     2.11           OBSERVATION DATA    G (GPS)             RINEX VERSION / TYPE
teqc 2010Oct21 OPUS Account 20111027 19:04:47UTC            PGM / RUN BY / DATE
N 1525                                                      MARKER NAME
3021                                                        MARKER NUMBER
CSMIDDLETON NGS                                             OBSERVER / AGENCY
0220284361 TRIMBLE 5700 NP 1.22 / SP 1.22                   REC # / TYPE / VERS
12234991 TRM41249.00 NONE                                   ANT # / TYPE
  -760706.7858 -5551361.3577  3036941.9080                  APPROX POSITION XYZ
        2.0000        0.0000        0.0000                  ANTENNA: DELTA H/E/N
     1     1                                                WAVELENGTH FACT L1/2
     5    L1    L2    C1    P1    P2                        # / TYPES OF OBSERV
    15                                                      LEAP SECONDS
  2011     8    19     0     0   30.0000000     GPS         TIME OF FIRST OBS
                                                            END OF HEADER
 11  8 19  0  0 30.0000000  0  7G17G09G12G04G02G10G05
 -32643153.99257 -25423719.26755  22796347.2664                   22796346.3364
 -15137122.91056 -11783214.94554  23057162.0944                   23057162.2504
 -16432782.46157 -12793272.68756  22136023.1954                   22136021.2704
 -33151650.36358 -25818980.03256  21096887.9454                   21096886.6564
 -29869356.17658 -23262521.94856  20752606.0944                   20752602.4224
 -25013252.55158 -19452208.50056  21103368.4844                   21103366.6334
 -10400917.02057  -8092014.81055  22942799.0474                   22942799.0084
 11  8 19  0  1  0.0000000  0  7G17G09G12G04G02G10G05
 -32629574.48047 -25413137.87045  22798931.6644                   22798930.2034
 -15102972.83647 -11756604.53744  23063660.7424                   23063660.9064
 -16542815.32447 -12879012.55646  22115084.6484                   22115083.0084
 -33116443.44948 -25791546.08846  21103587.9144                   21103585.9884
 -29917278.30948 -23299863.85046  20743486.8284                   20743482.9064
 -25075424.28548 -19500653.96446  21091537.5474                   21091535.9024
 -10534477.49247  -8196087.79945  22917383.2974                   22917383.4454
 11  8 19  0  1 30.0000000  0  7G17G09G12G04G02G10G05
 -32615867.19147 -25402456.90545  22801540.6954                   22801539.0664
 -15068493.19146 -11729737.34344  23070221.9064                   23070221.9224
 -16652536.57847 -12964509.61046  22094205.6334                   22094203.6604
 -33080992.37148 -25763921.88746  21110333.6804                   21110331.9614
 -29964861.49648 -23336941.64046  20734432.5554                   20734428.2304
 -25137009.93748 -19548642.75446  21079817.9614                   21079816.2704
 -10667875.57847  -8300034.22445  22891997.9144                   22891998.5514
 11  8 19  0  2  0.0000000  0  7G17G09G12G04G02G10G05
 -32602031.41847 -25391675.81545  22804172.2584                   22804171.5044
 -15033687.83647 -11702616.32444  23076845.3674                   23076845.5664
 -16761944.57047 -13049762.57046  22073385.8054                   22073383.7504
 -33045299.69948 -25736109.43546  21117125.8914                   21117124.2854
 -30012106.68748 -23373756.06246  20725442.1884                   20725437.9184
 -25198008.19948 -19596173.84246  21068210.3134                   21068208.7704
 -10801108.52047  -8403851.99245  22866644.7114                   22866644.7664
 11  8 19  0  2 30.0000000  0  7G17G09G12G04G02G10G05
 -32588062.83247 -25380791.23145  22806831.0634                   22806831.0864
 -14998555.95347 -11675240.87044  23083530.6254                   23083531.1024
 -16871032.39847 -13134766.06146  22052627.2664                   22052624.9344
 -33009363.66448 -25708107.35146  21123964.3054                   21123963.1804
 -30059010.57848 -23410304.52446  20716516.1884                   20716512.3554
 -25258413.51648 -19643242.88146  21056715.4694                   21056714.0434
 -10934169.12547  -8507535.47945  22841323.8834                   22841324.0904
 11  8 19  0  3  0.0000000  0  7G17G09G12G04G02G10G05
 -32573961.16447 -25369802.94545  22809514.8674                   22809513.1454
 -14963101.33247 -11647613.94844  23090277.8364                   23090277.6414
 -16979797.95748 -13219518.39546  22031929.6954                   22031927.9384
 -32973187.00848 -25679917.76946  21130848.1564                   21130846.5904
 -30105574.70348 -23446588.23846  20707655.3444                   20707651.4224
 -25318224.75448 -19689848.99246  21045333.6254                   21045332.3284
 -11067055.08247  -8611082.86545  22816036.4614                   22816036.5664
 11  8 19  0  3 30.0000000  0  7G17G09G12G04G02G10G05
 -32559728.18747 -25358712.34445  22812223.3134                   22812221.5704
 -14927329.68047 -11619739.99744  23097084.8134                   23097084.5234
 -17088241.00447 -13304019.45046  22011293.5004                   22011291.8404
 -32936774.38748 -25651544.32346  21137777.6644                   21137776.1484
 -30151802.19148 -23482609.63246  20698858.5314                   20698854.4264
 -25377442.51648 -19735992.65546  21034064.8284                   21034063.3914
 -11199765.91047  -8714493.77145  22790782.7114                   22790782.3984
 11  8 19  0  4  0.0000000  0  7G17G09G12G04G02G10G05
 -32545366.25447 -25347521.26945  22814956.3524                   22814954.4734
 -14891247.39547 -11591623.95944  23103951.1174                   23103951.6644
 -17196361.96948 -13388269.54446  21990719.2814                   21990717.3594
 -32900131.12948 -25622991.14046  21144750.6334                   21144748.8054
 -30197696.90648 -23518371.72447  20690125.2424                   20690120.8364
 -25436068.27348 -19781675.04846  21022908.6484                   21022907.5314
 -11332301.14847  -8817767.89345  22765561.9614                   22765561.7624
 11  8 19  0  4 30.0000000  0  7G17G09G12G04G02G10G05
 -32530873.62547 -25336228.39845  22817713.3754                   22817713.0824
 -14854856.85946 -11563267.74444  23110876.4924                   23110876.3984
 -17304157.23848 -13472265.82046  21970206.1484                   21970204.4064
 -32863258.50848 -25594259.23646  21151767.0554                   21151765.8954
 -30243258.66048 -23553874.35947  20681455.3524                   20681450.9184
 -25494099.78948 -19826894.36346  21011865.5784                   21011863.9104
 -11464656.86347  -8920902.09345  22740375.5474                   22740375.4064
 11  8 19  0  5  0.0000000  0  7G17G09G12G04G02G10G05
 -32516252.22347 -25324835.14345  22820496.3134                   22820495.3794
 -14818163.91446 -11534675.88344  23117858.9774                   23117858.5434
 -17411626.65648 -13556008.21346  21949755.7894                   21949753.5984
 -32826161.12548 -25565352.20946  21158826.4224                   21158825.2034
 -30288490.86748 -23589120.21446  20672847.2814                   20672843.6884
 -25551537.91848 -19871651.33346  21000935.7894                   21000934.2464
 -11596832.68747  -9023896.12445  22715222.6804                   22715222.5664
 11  8 19  0  5 30.0000000  0  7G17G09G12G04G02G10G05
 -32501500.32047 -25313340.21745  22823303.8914                   22823302.5864
 -14781170.68746 -11505850.04044  23124898.3674                   23124898.3874
 -17518766.59047 -13639493.85246  21929367.0084                   21929365.4104
 -32788840.52048 -25536271.21946  21165928.2734                   21165926.9964
 -30333393.33648 -23624109.12947  20664302.7424                   20664298.8244
 -25608380.49648 -19915944.22246  20990118.8674                   20990117.0434
 -11728824.77747  -9126746.99545  22690105.0944                   22690105.6094
 11  8 19  0  6  0.0000000  0  7G17G09G12G04G02G10G05
 -32486619.22347 -25301744.60145  22826135.9144                   22826134.4384
 -14743882.44947 -11476794.32844  23131994.2504                   23131994.2034
 -17625576.63348 -13722722.43046  21909042.1484                   21909039.8714
 -32751300.55948 -25507019.31146  21173072.2114                   21173070.4924
 -30377968.84848 -23658843.27546  20655820.5634                   20655816.1414
 -25664627.61748 -19959773.13546  20979415.6644                   20979413.6914
 -11860631.71147  -9229453.58345  22665023.4614                   22665023.3954
 11  8 19  0  6 30.0000000  0  8G17G09G12G04G02G10G30G05
 -32471607.58647 -25290047.23645  22828992.1484                   22828990.3834
 -14706302.03547 -11447510.92444  23139145.7274                   23139145.7074
 -17732053.23048 -13805691.18346  21888780.4774                   21888777.9614
 -32713543.08648 -25477597.91846  21180257.2424                   21180255.7544
 -30422217.39148 -23693322.63947  20647400.1174                   20647396.0124
 -25720277.32048 -20003136.52146  20968825.8594                   20968824.2664
   -203913.41056   -142756.11753  24335733.0864                   24335732.5784
 -11992249.89847  -9332013.10145  22639977.3914                   22639976.8834
 11  8 19  0  7  0.0000000  0  8G17G09G12G04G02G10G30G05
 -32456479.94547 -25278259.50445  22831870.7974                   22831869.5474
 -14668447.84847 -11418014.23744  23146348.5474                   23146348.8754
 -17838209.13347 -13888410.03346  21868579.5164                   21868577.5084
 -32675585.53148 -25448020.60446  21187480.0314                   21187479.0634
 -30466155.31248 -23727559.96547  20639039.3204                   20639035.4924
 -25775343.65248 -20046045.32446  20958346.7344                   20958345.1214
   -341801.12546   -250201.06242  24309493.8754                   24309493.4184
 -12123691.57047  -9434435.06145  22614964.7664                   22614964.4654
 11  8 19  0  7 30.0000000  0  8G17G09G12G04G02G10G30G05
 -32441234.95747 -25266380.32045  22834771.8364                   22834770.3134
 -14630322.84847 -11388306.47645  23153603.2114                   23153604.3054
 -17944041.24647 -13970876.58446  21848440.0864                   21848437.8834
 -32637429.42248 -25418288.58746  21194741.3284                   21194739.3794
 -30509782.84448 -23761555.41746  20630737.0084                   20630732.7274
 -25829824.54348 -20088497.93446  20947979.2114                   20947977.6844
   -479536.40646   -357527.24643  24283283.9384                   24283283.2854
 -12254953.14547  -9536716.70845  22589986.1094                   22589986.5164
 11  8 19  0  8  0.0000000  0  8G17G09G12G04G02G10G30G05
 -32425874.50047 -25254411.17345  22837694.9844                   22837693.7194
 -14591932.37547 -11358391.89545  23160909.2814                   23160910.0044
 -18049549.28947 -14053090.60246  21828362.9454                   21828360.5354
 -32599079.21948 -25388405.32446  21202038.5554                   21202037.4454
 -30553103.22348 -23795311.54246  20622493.6564                   20622489.6764
 -25883720.97348 -20130495.12046  20937723.4924                   20937721.4534
   -617118.81246   -464734.32243  24257103.2034                   24257103.0904
 -12386034.05147  -9638857.54645  22565041.8594                   22565042.3914
 11  8 19  0  8 30.0000000  0  8G17G09G12G04G02G10G30G05
 -32410391.57047 -25242346.57645  22840641.3444                   22840640.5314
 -14553273.34447 -11328268.03744  23168265.6414                   23168266.2274
 -18154723.62147 -14135044.58346  21808348.0704                   21808346.4694
 -32560530.99248 -25358367.77046  21209374.1954                   21209373.1804
 -30596110.90248 -23828823.99346  20614309.1954                   20614305.1884
 -25937025.35247 -20172030.96246  20927579.5474                   20927577.8094
   -754539.18046   -571815.14043  24230952.1724                   24230952.5664
 -12516924.59047  -9740850.06245  22540134.6884                   22540134.4494
 11  8 19  0  9  0.0000000  0  8G17G09G12G04G02G10G30G05
 -32394779.44547 -25230181.33645  22843612.3984                   22843610.7234
 -14514343.08247 -11297932.81844  23175673.3594                   23175673.8404
 -18259556.41847 -14216732.43946  21788399.7504                   21788397.0314
 -32521780.74647 -25328172.77446  21216748.1724                   21216746.6954
 -30638800.78948 -23862088.82646  20606185.6414                   20606181.5744
 -25989730.62547 -20213099.97946  20917550.2424                   20917548.6684
   -891788.73846   -678762.86843  24204835.2504                   24204834.7034
 -12647616.02747  -9842687.43945  22515265.0864                   22515265.1484
 11  8 19  0  9 30.0000000  0  8G17G09G12G04G02G10G30G05
 -32379040.26647 -25217917.08145  22846606.7894                   22846606.0664
 -14475147.87147 -11267391.16544  23183132.8204                   23183133.1134
 -18364047.60548 -14298154.11746  21768515.3364                   21768513.4774
 -32482833.48048 -25297824.26746  21224159.5784                   21224157.9454
 -30681176.25048 -23895108.65146  20598122.1954                   20598117.9574
 -26041837.96148 -20253703.06346  20907634.1414                   20907633.1174
  -1028867.19946   -785577.18043  24178749.7344                   24178749.5784
 -12778107.74247  -9944369.17045  22490432.9924                   22490432.5824
 11  8 19  0 10  0.0000000  0  8G17G09G12G04G02G10G30G05
 -32363170.32447 -25205550.89345  22849626.9304                   22849625.8634
 -14435688.28546 -11236643.50244  23190641.9384                   23190642.8284
 -18468191.97748 -14379305.52846  21748697.3984                   21748695.2154
 -32443688.68047 -25267321.83346  21231608.7504                   21231607.3094
 -30723235.57848 -23927882.13547  20590118.4924                   20590114.3754
 -26093343.28148 -20293837.04746  20897833.0084                   20897831.5744
  -1165769.30946   -892254.05343  24152698.3284                   24152698.0634
 -12908394.19547 -10045890.97545  22465640.1334                   22465639.8364
 11  8 19  0 10 30.0000000  0  8G17G09G12G04G02G10G30G05
 -32347169.68047 -25193082.89745  22852672.4304                   22852671.0434
 -14395968.42846 -11205692.98344  23198200.0554                   23198200.5984
 -18571987.43747 -14460185.06246  21728945.3754                   21728943.3954
 -32404348.97348 -25236667.53546  21239095.0554                   21239093.6094
 -30764980.69548 -23960410.78547  20582174.5864                   20582170.4224
 -26144246.29348 -20333501.69846  20888146.5864                   20888145.1454
  -1302492.84047   -998791.77144  24126680.6564                   24126680.5164
 -13038472.97347 -10147250.93945  22440886.7814                   22440886.3984
 11  8 19  0 11  0.0000000  0  8G17G09G12G04G02G10G30G05
 -32331033.71947 -25180509.45345  22855741.9384                   22855740.6414
 -14355987.23447 -11174538.91044  23205808.2734                   23205808.5474
 -18675427.22348 -14540787.45146  21709261.6564                   21709259.7734
 -32364812.60948 -25205859.98546  21246618.4224                   21246617.0234
 -30806407.98048 -23992691.76947  20574290.9614                   20574286.8094
 -26194541.54748 -20372692.77946  20878576.1094                   20878574.3484
  -1439030.66847  -1105184.80943  24100698.6174                   24100698.5514
 -13168336.64847 -10248443.29645  22416174.7344                   22416174.1294
 11  8 19  0 11 30.0000000  0  9G17G09G12G04G02G10G30G05G25
 -32314767.07447 -25167834.17545  22858838.1954                   22858837.2704
 -14315753.85247 -11143188.29944  23213464.4614                   23213464.8204
 -18778513.82847 -14621114.64846  21689644.7974                   21689642.7544
 -32325086.98048 -25174904.95946  21254178.0474                   21254176.5234
 -30847523.69948 -24024729.97347  20566467.0634                   20566462.8524
 -26244233.56648 -20411413.80546  20869120.0554                   20869118.4964
  -1575385.51247  -1211435.27344  24074751.2274                   24074750.7234
 -13297988.00447 -10349470.22145  22391503.1024                   22391501.9414
   -200389.39856   -140178.08253  24566657.4924                   24566658.0354
 11  8 19  0 12  0.0000000  0  9G17G09G12G04G02G10G30G05G25
 -32298379.17647 -25155064.41745  22861956.3834                   22861956.0124
 -14275281.53947 -11111651.47944  23221166.3984                   23221166.4304
 -18881255.56647 -14701173.10346  21670093.6334                   21670091.9884
 -32285184.44147 -25143812.07546  21261771.3524                   21261769.6414
 -30888339.33248 -24056534.34646  20558699.8914                   20558695.8794
 -26293331.32447 -20449671.76646  20859776.8834                   20859775.0594
  -1711564.85547  -1317548.93243  24048836.4384                   24048836.8054
 -13427434.14847 -10450337.23446  22366869.9454                   22366869.3594
   -336066.48046   -245900.48743  24540837.4144                   24540839.2304
 11  8 19  0 12 30.0000000  0  9G17G09G12G04G02G10G30G05G25
 -32281869.42247 -25142199.72245  22865098.6564                   22865096.9494
 -14234573.58246 -11079931.06444  23228912.5784                   23228913.0554
 -18983649.86348 -14780960.84346  21650608.7194                   21650606.8914
 -32245107.46948 -25112583.28146  21269397.4924                   21269396.4224
 -30928855.46148 -24088105.34847  20550989.9144                   20550985.8404
 -26341833.54748 -20487465.67246  20850547.1564                   20850545.1844
  -1847565.62947  -1423523.47243  24022956.4774                   24022956.3954
 -13556671.86747 -10551041.83945  22342276.6484                   22342276.0044
   -471654.52346   -351553.38243  24515037.0704                   24515038.2774
 11  8 19  0 13  0.0000000  0  9G17G09G12G04G02G10G30G05G25
 -32265239.19147 -25129241.12945  22868263.1804                   22868262.1804
 -14193635.35247 -11048031.21444  23236703.0944                   23236703.4304
 -19085695.92247 -14860477.22046  21631190.2734                   21631188.4494
 -32204859.98848 -25081221.62646  21277056.4384                   21277055.5204
 -30969075.28148 -24119445.46046  20543336.2814                   20543332.5864
 -26389741.37948 -20524796.44046  20841430.6564                   20841428.6684
  -1983387.29346  -1529358.41843  23997110.5004                   23997109.9304
 -13685700.21147 -10651583.30945  22317723.2734                   22317722.6994
   -607153.22346   -457136.69643  24489251.6094                   24489253.4494
 11  8 19  0 13 30.0000000  0  9G17G09G12G04G02G10G30G05G25
 -32248480.28547 -25116182.29345  22871452.7114                   22871451.2464
 -14152462.39546 -11015948.44944  23244538.4924                   23244538.6604
 -19187383.14547 -14939713.99246  21611839.3524                   21611838.0274
 -32164436.41448 -25049722.74046  21284748.7894                   21284747.0274
 -31008991.73048 -24150549.17346  20535740.6884                   20535736.4344
 -26437045.78948 -20561656.99046  20832428.8204                   20832427.0354
  -2119018.98446  -1635045.32943  23971300.3674                   23971300.3284
 -13814508.39847 -10751953.22445  22293211.7584                   22293211.0904
   -742552.03546   -562642.17843  24463486.8754                   24463488.7304
 11  8 19  0 14  0.0000000  0  9G17G09G12G04G02G10G30G05G25
 -32231588.39847 -25103019.82845  22874666.6884                   22874665.4064
 -14111054.75046 -10983682.83644  23252417.9844                   23252418.2704
 -19288705.68447 -15018666.59646  21592558.3204                   21592556.6684
 -32123835.21948 -25018085.45246  21292475.0784                   21292473.7154
 -31048602.35248 -24181414.57847  20528202.8984                   20528198.9494
 -26483742.33248 -20598043.89946  20823542.9614                   20823540.8324
  -2254454.45746  -1740579.43943  23945528.3364                   23945528.1454
 -13943089.61747 -10852146.28245  22268743.5164                   22268742.9654
   -877844.94946   -668065.14744  24437741.2814                   24437742.7424
 11  8 19  0 14 30.0000000  0  9G17G09G12G04G02G10G30G05G25
 -32214557.03147 -25089748.66545  22877907.8134                   22877906.0124
 -14069410.03947 -10951232.45044  23260342.3754                   23260342.6524
 -19389655.35247 -15097328.65946  21573348.6724                   21573346.2464
 -32083052.91048 -24986307.02746  21300235.5084                   21300234.3834
 -31087902.60948 -24212038.14547  20520724.2814                   20520720.1604
 -26529824.47348 -20633952.02446  20814773.7974                   20814771.7774
  -2389685.31646  -1845954.05943  23919794.6484                   23919793.7704
 -14071435.55147 -10952156.00746  22244320.1484                   22244319.4144
  -1013023.94946   -773399.34144  24412016.6804                   24412019.2894
 11  8 19  0 15  0.0000000  0  9G17G09G12G04G02G10G30G05G25
 -32197385.68447 -25076368.44745  22881175.3594                   22881174.2074
 -14027531.65646 -10918599.99344  23268312.2504                   23268311.9064
 -19490229.82447 -15175698.35146  21554209.8984                   21554207.8094
 -32042091.95748 -24954389.42346  21308030.2814                   21308028.5124
 -31126893.63348 -24242420.75647  20513304.4924                   20513300.4184
 -26575291.68748 -20669381.02046  20806121.5944                   20806120.3674
  -2524708.81246  -1951167.16843  23894099.5164                   23894099.3954
 -14199543.36747 -11051980.17645  22219942.3364                   22219940.8014
  -1148086.62147   -878642.86444  24386315.5554                   24386317.5204
 11  8 19  0 15 30.0000000  0  9G17G09G12G04G02G10G30G05G25
 -32180078.86747 -25062882.64845  22884468.9144                   22884467.4304
 -13985428.09047 -10885792.10244  23276323.9064                   23276324.2894
 -19590431.59447 -15253777.62246  21535141.6334                   21535139.8714
 -32000959.32448 -24922338.04246  21315857.4924                   21315855.7424
 -31165581.03148 -24272566.76447  20505942.3834                   20505938.0944
 -26620147.78548 -20704333.79846  20797585.2584                   20797583.8554
  -2659527.00846  -2056220.25543  23868444.9774                   23868444.7854
 -14327414.77747 -11151620.16745  22195608.5704                   22195608.2034
  -1283035.39147   -983797.66444  24360636.0004                   24360637.8284
 11  8 19  0 16  0.0000000  0  9G17G09G12G04G02G10G30G05G25
 -32162635.51647 -25049290.48045  22887788.3444                   22887787.0204
 -13943102.36746 -10852811.10944  23284377.9144                   23284378.8404
 -19690257.52047 -15331564.02446  21516145.7424                   21516143.9694
 -31959656.73048 -24890154.22446  21323716.9454                   21323715.9454
 -31203965.57447 -24302476.79347  20498638.2114                   20498633.9494
 -26664391.32848 -20738809.25046  20789165.9614                   20789164.3014
  -2794136.60546  -2161110.87943  23842829.3054                   23842829.0044
 -14455046.49647 -11251073.36346  22171321.0944                   22171320.3164
  -1417867.28546  -1088861.39744  24334978.2584                   24334979.8834
 11  8 19  0 16 30.0000000  0  9G17G09G12G04G02G10G30G05G25
 -32145046.50047 -25035584.82345  22891135.3284                   22891133.7384
 -13900549.44146 -10819653.04444  23292475.4924                   23292475.8914
 -19789697.03547 -15409049.33746  21497222.9454                   21497221.3284
 -31918177.94547 -24857833.11846  21331610.7194                   21331609.0394
 -31242039.95748 -24332145.13647  20491392.8284                   20491388.8324
 -26708013.43048 -20772800.49146  20780865.5944                   20780863.7464
  -2928526.50046  -2265830.22643  23817256.3914                   23817255.2384
 -14582427.40647 -11350331.11646  22147081.5704                   22147080.4304
  -1552571.43046  -1193825.60144  24309344.9774                   24309347.1914
 11  8 19  0 17  0.0000000  0  9G17G09G12G04G02G10G30G05G25
 -32127312.66047 -25021766.31345  22894510.1094                   22894508.8054
 -13857774.11747 -10786321.68444  23300615.6484                   23300616.1414
 -19888748.70347 -15486232.42646  21478374.2664                   21478372.0784
 -31876526.50848 -24825377.47846  21339536.2114                   21339534.7344
 -31279806.55148 -24361573.64347  20484206.2734                   20484202.0554
 -26751014.64848 -20806307.91646  20772682.4454                   20772680.7544
  -3062695.12146  -2370377.22843  23791725.3284                   23791724.2774
 -14709555.72747 -11449392.05746  22122889.3444                   22122888.6844
  -1687146.60247  -1298689.33644  24283736.1954                   24283738.2774
 11  8 19  0 17 30.0000000  0  9G17G09G12G04G02G10G30G05G25
 -32109435.77047 -25007836.30645  22897911.8754                   22897910.5634
 -13814782.15647 -10752821.55844  23308796.9694                   23308797.1994
 -19987412.47347 -15563113.25246  21459599.1724                   21459596.9264
 -31834706.66848 -24792790.60046  21347494.7194                   21347492.8834
 -31317268.60248 -24390764.83547  20477077.4924                   20477073.0354
 -26793396.44948 -20839332.66446  20764617.2974                   20764615.6884
  -3196642.10546  -2474751.48343  23766235.5704                   23766235.5044
 -14836430.89847 -11548255.72546  22098746.0634                   22098745.2344
  -1821592.73447  -1403452.46344  24258151.5314                   24258153.2274
 11  8 19  0 18  0.0000000  0  9G17G09G12G04G02G10G30G05G25
 -32091410.93047 -24993791.00145  22901342.0784                   22901341.0474
 -13771572.79747 -10719151.98844  23317019.3524                   23317020.3834
 -20085682.05147 -15639686.92946  21440899.0944                   21440896.6094
 -31792716.79748 -24760071.23246  21355484.9774                   21355483.2464
 -31354422.86748 -24419716.20347  20470007.5474                   20470003.0434
 -26835153.75848 -20871870.81046  20756671.2034                   20756669.4414
  -3330360.45746  -2578947.58344  23740789.4454                   23740788.8954
 -14963045.53947 -11646916.39546  22074652.0634                   22074650.8134
  -1955903.09847  -1508109.89444  24232592.7974                   24232594.9304
 11  8 19  0 18 30.0000000  0  9G17G09G12G04G02G10G30G05G25
 -30497820.36747 -23752032.16445  23204592.3674                   23204590.8444
 -12152733.05546  -9457718.48744  23625074.5234                   23625075.4304
 -18608133.53547 -14488350.39846  21722067.4304                   21722064.9494
 -30175142.18447 -23499623.48346  21663298.9694                   21663297.3524
 -29815851.78547 -23220829.62547  20762787.7974                   20762783.7034
 -25300866.71548 -19676322.44946  21048636.1804                   21048635.0044
  -1888424.98447  -1455361.47044  24015181.0394                   24015180.6484
 -13513974.88347 -10517770.33646  22350400.6564                   22350399.7704
   -514652.73447   -385057.66443  24506853.6884                   24506855.3524
 11  8 19  0 19  0.0000000  0  9G17G09G12G04G02G10G30G05G25
 -30479505.63347 -23737761.01745  23208077.0474                   23208076.8714
 -12109106.58647  -9423723.93744  23633376.5164                   23633377.2774
 -18705614.12147 -14564309.25546  21703517.3054                   21703515.3014
 -30132825.61348 -23466649.54145  21671351.3364                   21671350.2974
 -29852401.80547 -23249310.15447  20755832.6254                   20755828.1994
 -25341381.21148 -19707892.16646  21040926.9144                   21040924.8324
  -2021685.01247  -1559200.43744  23989822.9064                   23989821.7664
 -13640067.66847 -10616024.35246  22326406.0554                   22326405.1644
   -648691.39146   -489503.33343  24481347.3284                   24481348.3714
 11  8 19  0 19 30.0000000  0  9G17G09G12G04G02G10G30G05G25
 -30461040.30547 -23723372.54345  23211591.9534                   23211590.7704
 -12065271.86746  -9389567.07644  23641718.0704                   23641718.6414
 -18802692.09047 -14639954.39646  21685043.8524                   21685041.7734
 -30090344.05548 -23433547.03746  21679435.6414                   21679433.8714
 -29888646.61748 -23277552.86047  20748935.2344                   20748930.8404
 -25381268.57448 -19738973.20346  21033336.0314                   21033334.4414
  -2154706.96146  -1662853.89944  23964509.0784                   23964508.9534
 -13765890.21547 -10714067.79946  22302462.5084                   22302461.6054
   -782585.62546   -593836.55443  24455867.1484                   24455869.4734
 11  8 19  0 20  0.0000000  0  9G17G09G12G04G02G10G30G05G25
 -30442425.65647 -23708867.70145  23215133.1484                   23215132.5394
 -12021233.96947  -9355251.92244  23650098.2194                   23650099.1134
 -18899366.55547 -14715285.11646  21666647.1484                   21666645.0824
 -30047701.44148 -23400319.04946  21687550.7274                   21687549.0204
 -29924588.61748 -23305559.60247  20742095.6414                   20742091.5664
 -25420530.09848 -19769566.57146  21025865.1414                   21025863.6954
  -2287489.62946  -1766320.89343  23939241.8834                   23939240.5234
 -13891441.39847 -10811899.80246  22278571.3284                   22278570.0474
   -916334.67646   -698056.50343  24430415.5394                   24430417.7114
 11  8 19  0 20 30.0000000  0  9G17G09G12G04G02G10G30G05G25
 -30423661.72747 -23694246.52045  23218704.2814                   23218703.2664
 -11976997.35247  -9320781.92044  23658516.4144                   23658517.0044
 -18995636.28147 -14790300.45646  21648327.4614                   21648325.4654
 -30004900.77348 -23366967.88946  21695695.0864                   21695693.6294
 -29960230.14148 -23333332.20546  20735313.2974                   20735309.0164
 -25459165.80948 -19799672.29746  21018512.6884                   21018511.6484
  -2420031.24246  -1869600.04043  23914019.3284                   23914018.7234
 -14016719.19947 -10909518.79146  22254731.0164                   22254730.4344
  -1049936.80946   -802162.13043  24404992.7424                   24404994.9144
 11  8 19  0 21  0.0000000  0  9G17G09G12G04G02G10G30G05G25
 -30404745.41447 -23679506.57945  23222304.0314                   23222302.0394
 -11932562.77747  -9286157.66444  23666971.9774                   23666973.1174
 -19091496.27747 -14864996.53046  21630085.7114                   21630083.5904
 -29961941.25448 -23333492.95346  21703870.0314                   21703868.9304
 -29995569.59848 -23360869.42947  20728588.3134                   20728584.3404
 -25497172.52748 -19829287.89346  21011280.7194                   21011278.9884
  -2552326.27346  -1972687.03643  23888844.5084                   23888844.3754
 -14141718.22347 -11006920.52646  22230944.6254                   22230944.1524
  -1183386.84047   -906149.15644  24379598.2664                   24379600.2194
 11  8 19  0 21 30.0000000  0  9G17G09G12G04G02G10G30G05G25
 -30385679.64547 -23664650.16244  23225931.6804                   23225930.8244
 -11887937.28947  -9251384.63644  23675463.6644                   23675464.5864
 -19186947.24247 -14939373.88046  21611922.2584                   21611919.7704
 -29918828.68748 -23299898.76846  21712073.7664                   21712072.4494
 -30030611.63348 -23388174.90347  20721919.9844                   20721916.1094
 -25534553.38748 -19858415.80746  21004167.3204                   21004165.2734
  -2684375.38346  -2075582.35743  23863716.3134                   23863715.9614
 -14266438.77047 -11104105.27746  22207211.5864                   22207210.2194
  -1316685.75047  -1010018.43744  24354231.4304                   24354233.6844
 11  8 19  0 22  0.0000000  0  9G17G09G12G04G02G10G30G05G25
 -30366463.30947 -23649676.44245  23229589.1254                   23229588.1884
 -11843123.51646  -9216464.85044  23683991.8674                   23683992.1134
 -19281986.54747 -15013430.44746  21593837.0944                   21593834.2894
 -29875564.76648 -23266186.64346  21720306.6414                   21720305.1884
 -30065356.60547 -23415248.89847  20715308.1414                   20715304.0594
 -25571307.28947 -19887055.20146  20997172.9064                   20997171.3054
  -2816175.21546  -2178283.47243  23838635.0864                   23838635.3324
 -14390877.65647 -11201070.56846  22183531.5864                   22183530.5274
  -1449830.38747  -1113767.51344  24328895.8674                   24328897.4024
 11  8 19  0 22 30.0000000  0  9G17G09G12G04G02G10G30G05G25
 -30347092.74247 -23634582.49445  23233274.5234                   23233273.3554
 -11798121.90247  -9181398.79444  23692556.0634                   23692556.0664
 -19376608.33647 -15087161.68146  21575831.0084                   21575828.5044
 -29832147.97748 -23232355.40146  21728568.8674                   21728567.2774
 -30099802.54348 -23442089.87947  20708753.4694                   20708749.3954
 -25607430.55147 -19915203.16846  20990299.0314                   20990297.2114
  -2947719.73446  -2280785.68943  23813603.1954                   23813602.5744
 -14515028.75847 -11297811.60946  22159905.9224                   22159905.3404
  -1582815.02747  -1217391.90444  24303589.5474                   24303590.9104
 11  8 19  0 23  0.0000000  0  9G17G09G12G04G02G10G30G05G25
 -30327565.87947 -23619366.83244  23236990.6884                   23236989.9304
 -11752934.45347  -9146187.84544  23701154.4304                   23701155.0784
 -19470809.11347 -15160564.86046  21557905.2194                   21557902.7624
 -29788579.26648 -23198405.77646  21736859.5784                   21736858.1054
 -30133948.96548 -23468697.46346  20702255.5164                   20702251.4144
 -25642921.75048 -19942858.61546  20983545.4304                   20983543.5394
  -3079004.65646  -2383085.57643  23788620.9534                   23788619.7704
 -14638887.66047 -11394324.94246  22136336.1564                   22136335.4264
  -1715635.67247  -1320888.51244  24278315.0394                   24278316.1214
 11  8 19  0 23 30.0000000  0  9G17G09G12G04G02G10G30G05G25
 -30307884.62147 -23604030.86245  23240735.9844                   23240735.0594
 -11707566.93747  -9110836.61344  23709787.1094                   23709788.1174
 -19564588.71547 -15233639.85246  21540059.3444                   21540057.1294
 -29744862.84048 -23164341.05045  21745178.7664                   21745176.8794
 -30167799.27748 -23495074.31546  20695814.0864                   20695810.0354
 -25677782.33647 -19970022.70846  20976911.6174                   20976910.0204
  -3210029.50447  -2485182.85843  23763687.8054                   23763686.4964
 -14762453.72747 -11490610.10746  22112822.6724                   22112821.6054
  -1848292.04747  -1424257.08144  24253070.9454                   24253072.5004
 11  8 19  0 24  0.0000000  0  9G17G09G12G04G02G10G30G05G25
 -30288046.30947 -23588572.50444  23244511.3754                   23244509.7624
 -11662020.69946  -9075346.10144  23718454.4454                   23718455.1054
 -19657942.98847 -15306383.42446  21522294.9304                   21522292.4144
 -29700998.91448 -23130161.37846  21753525.7734                   21753524.0234
 -30201353.13348 -23521220.16047  20689429.0554                   20689425.0944
 -25712010.48447 -19996693.96746  20970398.1174                   20970396.6884
  -3340789.58246  -2587073.79043  23738805.1644                   23738804.2934
 -14885722.57047 -11586663.69446  22089365.3054                   22089363.7814
  -1980779.71947  -1527494.23044  24227859.0864                   24227860.7234
 11  8 19  0 24 30.0000000  0  9G17G09G12G04G02G10G30G05G25
 -30268048.99247 -23572990.25244  23248316.1334                   23248315.4024
 -11616297.61347  -9039717.82244  23727155.1414                   23727155.8754
 -19750867.82847 -15378792.37846  21504611.5084                   21504609.5204
 -29656987.95748 -23095867.15745  21761901.2194                   21761899.7234
 -30234609.66048 -23547134.31647  20683100.5864                   20683096.6914
 -25745603.98847 -20022870.69646  20964005.4924                   20964004.0274
  -3471280.41847  -2688754.89043  23713973.4224                   23713972.2194
 -15008689.33647 -11682481.88246  22065965.4774                   22065964.3984
  -2113094.48847  -1630596.57144  24202680.7034                   24202682.9884
 11  8 19  0 25  0.0000000  0  9G17G09G12G04G02G10G30G05G25
 -30247889.52047 -23557281.58044  23252153.2194                   23252151.2304
 -11570398.50047  -9003952.36844  23735889.8204                   23735890.4344
 -19843358.75047 -15450863.22046  21487011.2814                   21487009.0984
 -29612829.32448 -23061457.85346  21770303.8364                   21770302.6454
 -30267567.69148 -23572815.88347  20676828.8444                   20676824.7704
 -25778560.07848 -20048550.75146  20957733.8754                   20957732.4064
  -3601496.70747  -2790222.07744  23689193.4924                   23689193.3524
 -15131348.85547 -11778060.65746  22042623.9454                   22042622.8134
  -2245231.26247  -1733560.23344  24177535.5234                   24177538.0084
 11  8 19  0 25 30.0000000  0  9G17G09G12G04G02G10G30G05G25
 -30227577.00047 -23541453.63945  23256018.2734                   23256017.7114
 -11524336.80947  -8968060.19944  23744655.0084                   23744655.4144
 -19935422.96947 -15522601.53946  21469491.9924                   21469489.9844
 -29568534.98448 -23026942.82145  21778732.9534                   21778731.8984
 -30300238.21948 -23598273.41647  20670611.6024                   20670607.4414
 -25810888.57848 -20073741.77246  20951582.1414                   20951580.2704
  -3731445.48447  -2891480.77444  23664465.4454                   23664464.7774
 -15253707.63747 -11873405.08546  22019339.7194                   22019338.7974
  -2377197.27047  -1836390.84644  24152423.0784                   24152425.8754
 11  8 19  0 26  0.0000000  0  9G17G09G12G04G02G10G30G05G25
 -30207104.32447 -23525500.97245  23259913.8524                   23259913.4924
 -11478109.18747  -8932038.74844  23753452.1644                   23753452.5594
 -20027051.53547 -15594000.41246  21452055.9144                   21452053.5084
 -29524100.21148 -22992318.38145  21787188.7894                   21787187.2154
 -30332615.46547 -23623502.43547  20664450.6094                   20664446.7114
 -25842582.21548 -20098438.09146  20945550.5634                   20945549.1024
  -3861117.03947  -2992523.46144  23639789.3134                   23639788.8954
 -15375756.36747 -11968507.93046  21996114.9774                   21996113.7034
  -2508983.07046  -1939081.02644  24127345.2034                   24127347.1604
 11  8 19  0 26 30.0000000  0  9G17G09G12G04G02G10G30G05G25
 -30186472.81247 -23509424.53044  23263840.1094                   23263838.4384
 -11431721.09046  -8895892.23644  23762279.7814                   23762279.8134
 -20118244.16447 -15665059.59446  21434702.4694                   21434699.8164
 -29479528.93748 -22957587.55645  21795670.4064                   21795669.0164
 -30364702.35947 -23648505.19647  20658344.6644                   20658340.3484
 -25873643.00447 -20122641.28246  20939640.5634                   20939638.6484
  -3990510.54746  -3093349.50044  23615166.8364                   23615166.0984
 -15497494.13347 -12063368.45746  21972948.7194                   21972947.6254
  -2640588.14546  -2041630.38244  24102301.3054                   24102303.4494
 11  8 19  0 27  0.0000000  0  9G17G09G12G04G02G10G30G05G25
 -30165679.34047 -23493221.87244  23267797.1724                   23267795.8324
 -11385172.89147  -8859620.95443  23771136.8524                   23771137.1374
 -20208995.39547 -15735774.82046  21417432.7664                   21417430.7464
 -29434820.56248 -22922749.87945  21804178.1884                   21804176.6884
 -30396497.68448 -23673280.75147  20652294.1644                   20652289.7154
 -25904068.20747 -20146349.21846  20933850.5474                   20933848.6994
  -4119620.69147  -3193954.71244  23590597.5314                   23590597.1764
 -15618915.48447 -12157982.41746  21949843.1334                   21949841.8674
  -2772007.27347  -2144034.79844  24077293.4384                   24077295.3284
 11  8 19  0 27 30.0000000  0  9G17G09G12G04G02G10G30G05G25
 -30144729.32847 -23476897.22144  23271783.8364                   23271782.9494
 -11338474.19147  -8823232.41944  23780024.0474                   23780024.5824
 -20299309.50047 -15806149.43046  21400246.6724                   21400244.3014
 -29389982.87948 -22887811.44745  21812710.2584                   21812708.8984
 -30428008.52747 -23697834.64247  20646298.0864                   20646293.4384
 -25933863.21947 -20169566.08246  20928180.7974                   20928179.1844
  -4248450.43747  -3294341.44444  23566082.0314                   23566081.9804
 -15740023.44147 -12252352.18546  21926796.3364                   21926795.8364
  -2903243.64547  -2246296.85144  24052319.5394                   24052321.9024
 11  8 19  0 28  0.0000000  0  9G17G09G12G04G02G10G30G05G25
 -30123618.68447 -23460447.41044  23275801.3134                   23275800.3284
 -11291624.73847  -8786726.42344  23788939.1334                   23788940.2734
 -20389180.52347 -15876178.81246  21383144.8834                   21383142.4224
 -29345014.31248 -22852771.04945  21821267.5704                   21821265.7814
 -30459232.20347 -23722164.75147  20640355.8204                   20640352.1134
 -25963024.41448 -20192289.08346  20922631.6804                   20922629.9884
  -4376993.30547  -3394504.56544  23541620.9224                   23541621.0314
 -15860811.73847 -12346472.85946  21903811.0944                   21903810.1454
  -3034291.04347  -2348411.60844  24027381.9144                   24027383.6484
 11  8 19  0 28 30.0000000  0  9G17G09G12G04G02G10G30G05G25
 -30102345.69947 -23443871.14045  23279849.3444                   23279848.0434
 -11244627.01647  -8750104.91244  23797882.1724                   23797883.8204
 -20478605.00447 -15945860.20746  21366128.1174                   21366126.0164
 -29299915.83648 -22817629.43645  21829849.5164                   21829847.8204
 -30490169.01247 -23746271.34647  20634469.0234                   20634464.9454
 -25991550.69947 -20214517.33346  20917202.9534                   20917201.4884
  -4505245.50046  -3494441.25544  23517215.7504                   23517214.8754
 -15981276.43447 -12440341.39546  21880887.8834                   21880886.7304
  -3165145.89547  -2450376.35944  24002481.1484                   24002483.2664
 11  8 19  0 29  0.0000000  0  9G17G09G12G04G02G10G30G05G25
 -30080918.34447 -23427174.54445  23283927.2584                   23283926.4844
 -11197492.52047  -8713376.79944  23806851.7814                   23806852.5824
 -20567589.62147 -16015198.84746  21349194.9534                   21349192.1294
 -29254697.82048 -22782394.65545  21838454.0864                   21838452.7974
 -30520828.56647 -23770161.88147  20628634.6414                   20628630.3484
 -26019450.64547 -20236257.51346  20911894.1954                   20911892.4804
  -4633212.78947  -3594155.89844  23492863.7114                   23492863.7344
 -16101422.71547 -12533961.79646  21858024.7114                   21858023.5084
  -3295814.08647  -2552195.66544  23977615.9844                   23977617.4964
 11  8 19  0 29 30.0000000  0  9G17G09G12G04G02G10G30G05G25
 -30059332.25047 -23410354.27445  23288034.6954                   23288033.3164
 -11150220.73447  -8676541.63043  23815847.0704                   23815847.7344
 -20656127.46547 -16084189.35546  21332346.2664                   21332343.9734
 -29209358.29748 -22747065.21145  21847082.4614                   21847080.8674
 -30551208.02747 -23793834.17447  20622853.9224                   20622849.6214
 -26046720.15248 -20257506.46246  20906704.6884                   20906703.0434
  -4760888.05146  -3693642.99644  23468568.0554                   23468567.4804
 -16221244.41847 -12627329.29446  21835223.0944                   21835222.0704
  -3426288.84447  -2653864.24544  23952787.2114                   23952788.5394
 11  8 19  0 30  0.0000000  0  9G17G09G12G04G02G10G30G05G25
 -30037580.58647 -23393404.97245  23292173.5784                   23292173.1094
 -11102809.28146  -8639597.71144  23824868.7424                   23824870.8834
 -20744210.84447 -16152825.74046  21315585.0554                   21315582.6454
 -29163893.00448 -22711637.74245  21855734.2584                   21855732.6604
 -30581302.43448 -23817284.35247  20617126.7114                   20617122.4344
 -26073353.27047 -20278259.52646  20901636.6484                   20901634.8714
  -4888262.68046  -3792895.81944  23444329.5704                   23444329.7274
 -16340732.64847 -12720436.93946  21812484.9774                   21812483.7504
  -3556561.63747  -2755375.43844  23927997.2344                   23927998.4184
 11  8 19  0 30 30.0000000  0  9G17G09G12G04G02G10G30G05G25
 -30015662.85247 -23376326.25144  23296345.4384                   23296343.2734
 -11055260.86747  -8602547.09344  23833917.9774                   23833918.5634
 -20831836.99248 -16221105.83946  21298910.0784                   21298907.7304
 -29118303.62548 -22676113.56145  21864409.1484                   21864407.6564
 -30611112.87547 -23840513.25446  20611453.7894                   20611449.6724
 -26099349.77748 -20298516.52846  20896689.5234                   20896688.0434
  -5015333.43747  -3891911.88344  23420148.6804                   23420148.4264
 -16459884.16847 -12813282.21046  21789811.4844                   21789810.1334
  -3686629.48447  -2856726.91344  23903246.5554                   23903247.4654
 11  8 19  0 31  0.0000000  0  9G17G09G12G04G02G10G30G05G25
 -29993579.90247 -23359118.81045  23300547.1414                   23300545.6094
 -11007580.55547  -8565393.69244  23842990.7504                   23842992.3794
 -20919005.09847 -16289029.01046  21282322.4924                   21282320.1724
 -29072593.44148 -22640495.26345  21873107.6414                   21873106.0394
 -30640641.70347 -23863522.72546  20605834.5634                   20605830.5084
 -26124710.89848 -20318278.43446  20891863.3984                   20891862.0634
  -5142098.85947  -3990690.03244  23396026.1334                   23396025.4614
 -16578697.20347 -12905863.75346  21767201.7814                   21767200.9024
  -3816491.20347  -2957917.73344  23878534.3054                   23878536.3324
 11  8 19  0 31 30.0000000  0  9G17G09G12G04G02G10G30G05G25
 -29971329.18747 -23341780.64545  23304781.2274                   23304780.4304
 -10959769.74647  -8528138.62243  23852089.7974                   23852090.7704
 -21005711.01648 -16356592.03646  21265822.6484                   21265820.3244
 -29026762.62148 -22604782.96145  21881828.7424                   21881827.4774
 -30669888.39148 -23886312.33646  20600269.4924                   20600265.5124
 -26149434.93448 -20337543.91146  20887158.8524                   20887157.5594
  -5268554.35547  -4089226.73044  23371962.4534                   23371960.5354
 -16697167.00447 -12998177.80846  21744657.9614                   21744656.7934
  -3946142.18447  -3058944.33944  23853861.8754                   23853864.2624
 11  8 19  0 32  0.0000000  0  9G17G09G12G04G02G10G30G05G25
 -29948916.42647 -23324316.21444  23309045.9614                   23309045.4924
 -10911838.14146  -8490789.37644  23861210.3984                   23861211.8244
 -21091958.89147 -16423798.14846  21249410.5164                   21249408.4104
 -28980819.07447 -22568982.81345  21890572.0944                   21890570.0824
 -30698860.14148 -23908887.71546  20594756.2114                   20594752.2274
 -26173528.39848 -20356318.02746  20882573.7734                   20882572.1254
  -5394703.23847  -4187524.42344  23347956.9304                   23347955.8554
 -16815297.72347 -13090227.66146  21722178.4304                   21722177.2384
  -4075586.07447  -3159809.58244  23829230.3364                   23829231.0984
 11  8 19  0 32 30.0000000  0  9G17G09G12G04G02G10G30G05G25
 -29926335.10247 -23306720.44145  23313343.0474                   23313342.3594
 -10863783.06646  -8453344.00743  23870354.7034                   23870355.0944
 -21177740.81648 -16490641.17146  21233086.5084                   21233084.3284
 -28934758.97747 -22533091.85945  21899336.2814                   21899335.6294
 -30727552.11748 -23931245.09547  20589296.4454                   20589292.1844
 -26196985.28548 -20374596.11446  20878110.2344                   20878108.6414
  -5520536.75447  -4285576.44344  23324011.5864                   23324010.4414
 -16933080.18447 -13182006.14946  21699765.0784                   21699763.7234
  -4204814.22346  -3260506.69944  23804638.0394                   23804639.8874
 11  8 19  0 33  0.0000000  0  9G17G09G12G04G02G10G30G05G25
 -29903589.30547 -23288996.50145  23317672.4304                   23317671.1054
 -10815612.73046  -8415808.75544  23879522.0944                   23879522.9964
 -21263059.13748 -16557122.96046  21216851.0474                   21216849.3134
 -28888588.66847 -22497115.02645  21908122.4454                   21908121.4964
 -30755970.31248 -23953389.13446  20583888.5864                   20583884.2584
 -26219810.84848 -20392382.25046  20873766.6644                   20873765.1094
  -5646056.90247  -4383384.27844  23300125.1954                   23300125.0944
 -17050516.69547 -13273515.07446  21677417.7734                   21677416.5234
  -4333828.83246  -3361037.40244  23780087.1484                   23780089.5594
 11  8 19  0 33 30.0000000  0  9G17G09G12G04G02G10G30G05G25
 -29880676.69547 -23271142.56445  23322032.3364                   23322031.2854
 -10767327.99246  -8378184.40744  23888709.7974                   23888711.3794
 -21347909.42648 -16623240.03446  21200704.6414                   21200702.2154
 -28842307.92647 -22461052.12545  21916929.5634                   21916928.1294
 -30784113.79348 -23975319.11947  20578533.0474                   20578528.7384
 -26242002.55148 -20409674.47246  20869543.7584                   20869541.9884
  -5771258.42647  -4480943.82044  23276300.7664                   23276299.3284
 -17167601.91447 -13364750.25646  21655136.7274                   21655135.9494
  -4462624.89547  -3461397.81544  23755578.7814                   23755579.9024
 11  8 19  0 34  0.0000000  0  9G17G09G12G04G02G10G30G05G25
 -29857596.47747 -23253158.02944  23326424.6564                   23326423.5234
 -10718932.45746  -8340473.72644  23897919.4304                   23897920.9654
 -21432289.78948 -16688990.93746  21184647.4774                   21184645.1254
 -28795918.46147 -22424904.52245  21925757.1024                   21925756.0124
 -30811983.69948 -23997035.92247  20573229.8524                   20573225.4654
 -26263560.78948 -20426473.08746  20865441.1644                   20865439.3244
  -5896138.62547  -4578253.02144  23252536.0864                   23252535.2854
 -17284333.10547 -13455709.57346  21632923.6334                   21632922.4414
  -4591199.79747  -3561585.90844  23731111.0864                   23731113.7704
 11  8 19  0 34 30.0000000  0  9G17G09G12G04G02G10G30G05G25
 -29834349.29346 -23235043.39644  23330847.5164                   23330847.4304
 -10670430.08247  -8302679.80244  23907148.8674                   23907150.5984
 -21516198.57448 -16754374.37346  21168680.3524                   21168677.6644
 -28749423.18048 -22388674.44545  21934605.0634                   21934603.7544
 -30839581.86348 -24018540.97146  20567977.8364                   20567973.4414
 -26284486.75048 -20442779.02246  20861459.0234                   20861457.0164
  -6020695.48046  -4675310.28044  23228834.1804                   23228833.8204
 -17400708.31647 -13546391.49946  21610778.3914                   21610777.0704
  -4719551.63347  -3661600.21044  23706686.3204                   23706688.0004
 11  8 19  0 35  0.0000000  0  9G17G09G12G04G02G10G30G05G25
 -29810935.76247 -23216799.11544  23335303.1094                   23335302.0394
 -10621825.53546  -8264806.21143  23916398.2344                   23916399.3834
 -21599635.20348 -16819389.88546  21152802.6644                   21152800.4024
 -28702824.87947 -22352364.09045  21943472.9534                   21943471.5664
 -30866910.74648 -24039836.19647  20562777.0784                   20562773.6994
 -26304782.16048 -20458593.61546  20857597.1724                   20857595.3364
  -6144927.39146  -4772114.30744  23205193.6954                   23205193.2154
 -17516726.27048 -13636795.05046  21588700.8834                   21588699.5864
  -4847679.09047  -3761439.69944  23682304.8204                   23682306.2704
 11  8 19  0 35 30.0000000  0  9G17G09G12G04G02G10G30G05G25
 -29787356.04346 -23198425.37744  23339789.6644                   23339789.7074
 -10573122.80947  -8226856.17244  23925666.9844                   23925667.6684
 -21682598.30548 -16884036.43246  21137015.1564                   21137012.9924
 -28656126.28948 -22315975.60445  21952358.6094                   21952357.9454
 -30893972.38748 -24060923.17546  20557627.7424                   20557623.4574
 -26324448.00448 -20473917.63246  20853854.8284                   20853853.0514
  -6268832.40247  -4868663.62144  23181615.3674                   23181614.9304
 -17632384.86348 -13726918.56346  21566691.5314                   21566690.6054
  -4975580.23847  -3861102.82044  23657965.9614                   23657967.6054
 11  8 19  0 36  0.0000000  0  9G17G09G12G04G02G10G30G05G25
 -29763608.25447 -23179920.67444  23344309.4534                   23344308.6724
 -10524323.96147  -8188831.24244  23934953.1954                   23934953.8284
 -21765084.27048 -16948311.18346  21121318.6334                   21121316.4454
 -28609327.81248 -22279509.27445  21961264.5634                   21961263.3014
 -30920766.60248 -24081801.79047  20552528.7344                   20552524.8014
 -26343482.78548 -20488749.92746  20850232.6024                   20850230.7854
  -6392406.12546  -4964954.77844  23158100.1954                   23158098.9774
 -17747679.94547 -13816758.83046  21544751.7274                   21544750.3874
  -5103250.97347  -3960586.44544  23633671.1564                   23633672.2234
 11  8 19  0 36 30.0000000  0  9G17G09G12G04G02G10G30G05G25
 -29739692.19946 -23161284.82244  23348860.0704                   23348860.3674
 -10475432.66847  -8150734.23044  23944256.4384                   23944257.4414
 -21847091.74648 -17012213.08646  21105713.1484                   21105710.8364
 -28562431.58647 -22242966.78345  21970188.3834                   21970186.8324
 -30947294.93048 -24102473.22346  20547480.8284                   20547476.0664
 -26361887.60948 -20503091.32946  20846730.4844                   20846728.5514
  -6515646.20747  -5060986.03844  23134648.2974                   23134647.0274
 -17862609.31647 -13906314.12246  21522881.3364                   21522880.1024
  -5230689.02347  -4059888.76144  23609420.2194                   23609421.4774
 11  8 19  0 37  0.0000000  0  9G17G09G12G04G02G10G30G05G25
 -29715606.37147 -23142516.70944  23353444.2974                   23353443.2814
 -10426450.79747  -8112566.71344  23953577.9844                   23953579.1844
 -21928617.07848 -17075739.30146  21090199.4064                   21090196.9534
 -28515438.21147 -22206348.58045  21979130.8594                   21979129.7304
 -30973557.18048 -24122937.31747  20542483.1094                   20542479.1684
 -26379661.50848 -20516941.09846  20843348.1094                   20843346.1214
  -6638548.64547  -5156754.12944  23111260.5164                   23111260.3914
 -17977168.74648 -13995581.15546  21501081.4454                   21501079.9844
  -5357890.44947  -4159006.71744  23585214.8444                   23585215.0274
 11  8 19  0 37 30.0000000  0  9G17G09G12G04G02G10G30G05G25
 -29691353.37947 -23123618.30244  23358058.5554                   23358058.1644
 -10377385.31247  -8074334.02944  23962914.7894                   23962915.6254
 -22009661.91848 -17138891.10746  21074777.0004                   21074774.4574
 -28468352.90647 -22169658.76045  21988091.0474                   21988089.5904
 -30999558.12548 -24143197.80547  20537535.3984                   20537531.0744
 -26396808.58648 -20530302.43846  20840085.0554                   20840082.9654
  -6761113.90247  -5252259.48544  23087937.3524                   23087936.7734
 -18091359.04348 -14084560.55346  21479351.4144                   21479350.3204
  -5484855.98447  -4257940.90544  23561054.2194                   23561054.9064
 11  8 19  0 38  0.0000000  0  9G17G09G12G04G02G10G30G05G25
 -29666931.50447 -23104588.32944  23362706.3914                   23362705.9064
 -10328237.90247  -8036037.48543  23972267.3984                   23972268.2704
 -22090222.40248 -17201665.46546  21059447.1174                   21059444.4264
 -28421175.54747 -22132897.19845  21997068.4224                   21997067.3874
 -31025296.99248 -24163254.08547  20532637.0784                   20532633.3594
 -26413327.93048 -20543174.62746  20836941.8594                   20836939.8754
  -6883337.53147  -5347498.65944  23064679.3754                   23064678.1524
 -18205175.85948 -14173248.91446  21457692.9454                   21457691.7734
  -5611581.27047  -4356687.84244  23536938.8524                   23536939.7504
 11  8 19  0 38 30.0000000  0  9G17G09G12G04G02G10G30G05G25
 -29642340.50847 -23085426.63344  23367385.6024                   23367385.3834
 -10279011.91047  -7997679.64843  23981634.5784                   23981634.7154
 -22170296.55548 -17264060.88746  21044209.3984                   21044206.7504
 -28373908.32047 -22096065.61245  22006063.2194                   22006062.3284
 -31050775.43448 -24183107.41846  20527788.8984                   20527784.7974
 -26429219.92648 -20555557.98546  20833917.1804                   20833915.2974
  -7005216.99247  -5442469.65944  23041485.8364                   23041485.5204
 -18318616.74648 -14261644.36846  21436105.5394                   21436104.1374
  -5738063.88747  -4455245.71544  23512870.1254                   23512871.4804
 11  8 19  0 39  0.0000000  0  9G17G09G12G04G02G10G30G05G25
 -29617574.40247 -23066128.43444  23372098.7344                   23372098.6334
 -10229705.10946  -7959258.88343  23991017.0234                   23991017.7464
 -22249877.12948 -17326071.69446  21029065.6884                   21029063.2504
 -28326547.51247 -22059161.10145  22015076.1884                   22015074.6054
 -31075989.20348 -24202754.52646  20522991.0474                   20522986.8094
 -26444479.49248 -20567448.53546  20831013.2974                   20831011.7074
  -7126744.06647  -5537166.03044  23018360.3914                   23018358.6994
 -18431673.27748 -14349740.30746  21414591.7424                   21414590.6054
  -5864295.65647  -4553608.10444  23488848.5784                   23488849.1254
 11  8 19  0 39 30.0000000  0  9G17G09G12G04G02G10G30G05G25
 -29592638.99247 -23046698.31344  23376843.8984                   23376843.9534
 -10180327.43447  -7920782.89443  24000413.6094                   24000415.0274
 -22328968.61348 -17387701.39846  21014015.0784                   21014012.1954
 -28279101.44547 -22022190.15245  22024104.5394                   22024102.6484
 -31100945.91048 -24222201.31746  20518242.1024                   20518237.7114
 -26459113.95748 -20578851.99646  20828228.5314                   20828226.5944
  -7247922.50047  -5631590.75744  22995300.3754                   22995299.1174
 -18544349.89848 -14437540.21146  21393150.0234                   21393148.7704
  -5990280.43447  -4651778.07744  23464874.1564                   23464875.6414
 11  8 19  0 40  0.0000000  0  9G17G09G12G04G02G10G30G05G25
 -29567535.66047 -23027137.27444  23381621.0864                   23381620.6884
 -10130883.77346  -7882255.50244  24009822.3984                   24009824.3834
 -22407570.85248 -17448949.87746  20999057.4304                   20999054.7774
 -28231573.28147 -21985155.22445  22033148.7584                   22033147.9104
 -31125648.47748 -24241450.07946  20513540.9924                   20513536.8524
 -26473125.39548 -20589769.98846  20825562.5084                   20825560.6724
  -7368751.07046  -5725742.86844  22972307.5704                   22972306.8754
 -18656645.37148 -14525043.11946  21371781.2424                   21371779.6604
  -6116017.25447  -4749754.82644  23440947.8524                   23440948.9414
 11  8 19  0 40 30.0000000  0  9G17G09G12G04G02G10G30G05G25
 -29542261.21547 -23007442.94344  23386430.9144                   23386430.5594
 -10081374.47747  -7843677.01444  24019243.8204                   24019245.5204
 -22485679.26248 -17509813.54746  20984194.0554                   20984191.1804
 -28183962.25847 -21948055.77145  22042208.5164                   22042207.7704
 -31150095.30548 -24260499.55446  20508889.1884                   20508884.6954
 -26486511.59848 -20600200.77046  20823014.7974                   20823013.1724
  -7489224.36347  -5819618.13044  22949381.9844                   22949381.2344
 -18768554.32448 -14612244.84546  21350485.5394                   21350483.7234
  -6241500.66047  -4847534.09544  23417068.7504                   23417070.2894
 11  8 19  0 41  0.0000000  0  9G17G09G12G04G02G10G30G05G25
 -29516814.96147 -22987614.69744  23391272.2894                   23391271.8484
 -10031802.91447  -7805049.97343  24028677.8284                   24028678.4574
 -22563291.48448 -17570290.58146  20969424.6254                   20969422.7664
 -28136269.82447 -21910892.86645  22051284.3204                   22051283.2464
 -31174287.33648 -24279350.49346  20504285.6724                   20504281.3204
 -26499272.98448 -20610144.69146  20820586.8444                   20820585.2274
  -7609339.27047  -5913214.09544  22926525.4454                   22926523.8594
 -18880073.98048 -14699143.23046  21329263.9774                   21329262.1254
  -6366727.68047  -4945113.52944  23393238.7504                   23393241.0784
 11  8 19  0 41 30.0000000  0  9G17G09G12G04G02G10G30G05G25
 -29491195.53547 -22967651.57844  23396148.9144                   23396147.4144
  -9982171.59046  -7766376.30243  24038122.5554                   24038122.5004
 -22640404.64548 -17630378.73446  20954750.5474                   20954747.6954
 -28088496.60247 -21873667.00045  22060375.7274                   22060374.0824
 -31198225.12548 -24298003.31346  20499730.2584                   20499726.1254
 -26511409.36748 -20619601.60546  20818277.4774                   20818275.4184
  -7729092.22347  -6006528.03544  22903737.0314                   22903735.3754
 -18991200.85548 -14785735.54346  21308117.0234                   21308115.4804
  -6491694.81647  -5042490.51245  23369458.7344                   23369460.0944
 11  8 19  0 42  0.0000000  0  9G17G09G12G04G02G10G30G05G25
 -29465407.44547 -22947557.03544  23401055.5634                   23401054.9884
  -9932488.32846  -7727662.17543  24047575.2974                   24047577.8714
 -22717021.83648 -17690080.42746  20940170.6254                   20940168.1174
 -28040649.11347 -21836383.25545  22069480.9614                   22069479.0594
 -31221914.14548 -24316462.28146  20495222.4844                   20495218.5274
 -26522926.24648 -20628575.77746  20816085.6024                   20816083.9774
  -7848485.19947  -6099561.47244  22881017.1804                   22881016.4384
 -19101936.96548 -14872023.35546  21287044.8134                   21287043.2734
  -6616404.05947  -5139666.50545  23345727.0784                   23345728.7854
 11  8 19  0 42 30.0000000  0  9G17G09G12G04G02G10G30G05G25
 -27864025.83647 -21699727.25344  23705788.4384                   23705787.3874
  -8307332.97346  -6461307.53543  24356833.3444                   24356835.3634
 -21217713.45348 -16521788.15646  21225480.0944                   21225477.2464
 -26417305.85947 -20571440.48945  22378392.3984                   22378391.4774
 -29669930.14848 -23107124.09446  20790555.3364                   20790550.7114
 -24958399.03948 -19409463.65746  21113805.4384                   21113803.1294
  -6392086.41447  -4964705.22144  23158160.6414                   23158159.4304
 -17636851.08648 -13730397.94946  21565840.9224                   21565839.3634
  -5165423.57447  -4009032.37245  23621839.6024                   23621840.8594
 11  8 19  0 43  0.0000000  0  9G17G09G12G04G02G10G30G05G25
 -27837889.47346 -21679361.29944  23710761.7424                   23710761.1954
  -8257545.93446  -6422512.55343  24366307.0784                   24366309.3914
 -21293323.64148 -16580705.16346  21211091.5704                   21211089.0164
 -26369305.63747 -20534037.75845  22387526.6804                   22387525.6454
 -29693116.76248 -23125191.57647  20786143.1094                   20786138.5084
 -24968669.53148 -19417466.62546  21111850.9304                   21111848.9024
  -6510741.63747  -5057163.74744  23135580.8834                   23135580.1054
 -17746788.26648 -13816063.23846  21544920.5234                   21544919.3484
  -5289599.67247  -4105792.94745  23598209.9304                   23598211.1994
 11  8 19  0 43 30.0000000  0  9G17G09G12G04G02G10G30G05G25
 -27811582.68046 -21658862.52544  23715767.6024                   23715767.5554
  -8207716.08646  -6383684.27543  24375790.5704                   24375791.8874
 -21368431.43048 -16639230.70446  21196799.0944                   21196796.3244
 -26321235.76247 -20496580.74445  22396674.0314                   22396672.3794
 -29716057.98448 -23143067.85247  20781777.5314                   20781773.0594
 -24978322.18448 -19424988.15046  21110013.9224                   21110011.6604
  -6629028.16047  -5149335.05344  23113072.1094                   23113070.3874
 -17856326.40248 -13901417.57046  21524076.3834                   21524075.0554
  -5413509.38747  -4202345.94145  23574630.5704                   23574631.7734
 11  8 19  0 44  0.0000000  0  9G17G09G12G04G02G10G30G05G25
 -27785106.26646 -21638231.61944  23720805.9454                   23720806.8594
  -8157848.01246  -6344826.20343  24385279.6564                   24385281.5084
 -21443036.45748 -16697364.48346  21182602.4304                   21182599.5004
 -26273099.20747 -20459071.76745  22405834.3364                   22405833.4614
 -29738756.25448 -23160754.81846  20777458.1024                   20777453.6914
 -24987359.50848 -19432030.22046  21108293.9454                   21108291.8364
  -6746944.51247  -5241217.91344  23090632.9224                   23090631.9104
 -17965464.73848 -13986460.38246  21503308.0554                   21503306.4024
  -5537151.37147  -4298690.30345  23551102.4534                   23551103.5904
 11  8 19  0 44 30.0000000  0  9G17G09G12G04G02G10G30G05G25
 -27758453.47747 -21617463.29944  23725878.9384                   23725878.4534
  -8107938.69146  -6305935.98043  24394776.8524                   24394778.8954
 -21517130.87148 -16755100.38346  21168502.8834                   21168499.8914
 -26224891.18747 -20421507.11745  22415008.1884                   22415006.9264
 -29761206.66848 -23178248.63546  20773185.9224                   20773181.5634
 -24995775.75848 -19438588.32346  21106692.7274                   21106690.5124
  -6864481.75047  -5332805.35044  23068266.7114                   23068266.2664
 -18074194.18448 -14071184.56346  21482617.3054                   21482615.6954
  -5660516.63747  -4394819.01445  23527626.1174                   23527627.7934
 11  8 19  0 45  0.0000000  0  9G17G09G12G04G02G10G30G05G25
 -27731620.64546 -21596554.61244  23730984.6094                   23730983.5744
  -8057988.02046  -6267013.52943  24404282.9144                   24404284.7774
 -21590709.21948 -16812434.16046  21154500.7894                   21154498.1134
 -26176609.93747 -20383885.40145  22424195.4384                   22424194.2034
 -29783406.70748 -23195547.36747  20768961.4774                   20768957.2424
 -25003568.42648 -19444660.50646  21105209.5554                   21105207.4264
  -6981633.41447  -5424092.30344  23045972.8524                   23045972.7194
 -18182508.53548 -14155585.29846  21462005.8204                   21462004.1954
  -5783599.03947  -4490727.33244  23504204.6174                   23504205.5664
 11  8 19  0 45 30.0000000  0  9G17G09G12G04G02G10G30G05G25
 -27704614.24646 -21575510.67144  23736123.2424                   23736123.5004
  -8008006.42246  -6228067.00043  24413794.1804                   24413795.6024
 -21663777.01248 -16869370.10346  21140596.5314                   21140594.2624
 -26128264.14847 -20346213.39145  22433395.4844                   22433394.2344
 -29805365.07448 -23212657.77446  20764783.0314                   20764778.4804
 -25010745.28148 -19450252.85646  21103843.7664                   21103841.6564
  -7098404.17247  -5515082.44344  23023752.4144                   23023751.6884
 -18290412.14848 -14239665.99146  21441472.7974                   21441470.8094
  -5906402.99647  -4586418.68544  23480835.8204                   23480836.1994
 11  8 19  0 46  0.0000000  0  9G17G09G12G04G02G10G30G05G25
 -27677436.87546 -21554333.59644  23741295.7504                   23741294.6454
  -7957999.41446  -6189100.67044  24423310.8284                   24423312.3164
 -21736334.98448 -16925908.79046  21126789.0704                   21126786.9264
 -26079858.33247 -20308494.59645  22442606.6884                   22442605.7854
 -29827085.49648 -23229582.76446  20760649.8444                   20760645.0474
 -25017309.99648 -19455368.20646  21102594.9224                   21102593.0664
  -7214793.85947  -5605775.64644  23001603.5164                   23001602.7624
 -18397905.57048 -14323427.05546  21421017.1484                   21421015.5164
  -6028928.62147  -4681893.13844  23457519.9384                   23457520.9654
 11  8 19  0 46 30.0000000  0  9G17G09G12G04G02G10G30G05G25
 -27650087.75047 -21533022.59944  23746499.7734                   23746500.2854
  -7907969.87946  -6150116.77444  24432830.6804                   24432832.1484
 -21808380.83648 -16982048.41246  21113079.5784                   21113076.7974
 -26031393.52047 -20270729.82945  22451829.3914                   22451828.4304
 -29848569.03948 -23246323.18246  20756561.4614                   20756557.4694
 -25023263.74648 -19460007.47246  21101461.7274                   21101459.6334
  -7330799.55147  -5696169.66644  22979529.5004                   22979528.7894
 -18504986.18448 -14406866.43746  21400640.1414                   21400638.3834
  -6151172.91447  -4777148.35844  23434257.0234                   23434258.6804
 11  8 19  0 47  0.0000000  0  9G17G09G12G04G02G10G30G05G25
 -27622561.44146 -21511573.62344  23751738.0634                   23751737.9884
  -7857916.10546  -6111114.03344  24442356.0784                   24442357.9924
 -21879908.16448 -17037783.99046  21099467.8754                   21099465.4734
 -25982866.52747 -20232916.63345  22461063.7344                   22461062.8634
 -29869811.55948 -23262875.78446  20752519.0084                   20752514.8554
 -25028602.10948 -19464167.24046  21100445.7664                   21100443.7774
  -7446413.42247  -5786258.35644  22957528.4224                   22957527.7234
 -18611646.12948 -14489978.04546  21380343.5164                   21380341.7344
  -6273128.06647  -4872178.32344  23411049.8284                   23411050.9774
 11  8 19  0 47 30.0000000  0  9G17G09G12G04G02G10G30G05G25
 -27594861.56646 -21489989.34644  23757008.7034                   23757009.2464
  -7807845.29746  -6072097.93944  24451883.9384                   24451885.9104
 -21950919.64548 -17093117.60746  21085955.2814                   21085952.6844
 -25934282.99247 -20195059.35945  22470308.5084                   22470307.8444
 -29890818.43448 -23279244.77946  20748521.7114                   20748517.1054
 -25033330.17248 -19467851.44246  21099546.1334                   21099543.9844
  -7561636.99647  -5876042.93544  22935601.4924                   22935601.5394
 -18717887.05548 -14572763.12746  21360126.3284                   21360124.5594
  -6394795.59847  -4966984.13044  23387897.4144                   23387898.5204
 11  8 19  0 48  0.0000000  0  9G17G09G12G04G02G10G30G05G25
 -27566983.22346 -21468265.94344  23762313.6564                   23762313.6764
  -7757756.33246  -6033067.78544  24461415.9064                   24461417.8094
 -22021408.72748 -17148044.16546  21072541.5474                   21072538.9454
 -25885639.72347 -20157155.55645  22479564.5944                   22479565.1954
 -29911586.14148 -23295427.39146  20744569.7114                   20744564.9304
 -25037444.28948 -19471057.24046  21098763.1024                   21098761.4534
  -7676462.89847  -5965517.58244  22913751.2114                   22913750.3324
 -18823702.24248 -14655216.47746  21339990.5234                   21339989.2544
  -6516168.21547  -5061560.12644  23364800.6644                   23364802.2854
 11  8 19  0 48 30.0000000  0  9G17G09G12G04G02G10G30G05G25
 -27538921.73046 -21446399.89644  23767654.3204                   23767654.4614
  -7707647.58246  -5994022.16344  24470950.8134                   24470952.8054
 -22091369.05148 -17202558.70646  21059228.5394                   21059226.1094
 -25836933.93747 -20119203.02045  22488834.0164                   22488832.6294
 -29932111.85948 -23311421.45346  20740663.9304                   20740659.6644
 -25040941.07047 -19473782.01846  21098097.5704                   21098095.7544
  -7790883.96147  -6054676.82844  22891977.7664                   22891976.7854
 -18929084.44948 -14737332.44046  21319936.7974                   21319934.8914
  -6637238.78147  -5155900.78245  23341762.1024                   23341762.5664
 11  8 19  0 49  0.0000000  0  9G17G09G12G04G02G10G30G05G25
 -27510680.95746 -21424394.11044  23773028.0864                   23773027.5554
  -7657526.70346  -5954967.10543  24480489.3914                   24480490.2854
 -22160803.32448 -17256663.32546  21046015.3914                   21046013.1914
 -25788171.48847 -20081206.34045  22498113.1094                   22498112.4104
 -29952401.03948 -23327231.18646  20736802.6564                   20736798.4884
 -25043825.56248 -19476029.68846  21097549.6174                   21097546.7584
  -7904901.89147  -6143521.90644  22870280.7504                   22870280.1174
 -19034035.64848 -14819112.55946  21299965.2664                   21299963.6334
  -6758008.95747  -5250007.31445  23318780.2664                   23318781.5124
 11  8 19  0 49 30.0000000  0  9G17G09G12G04G02G10G30G05G25
 -27482264.07546 -21402251.15244  23778435.6644                   23778435.0434
  -7607400.34046  -5915907.77343  24490027.6564                   24490030.0124
 -22229713.28948 -17310359.39946  21032902.6644                   21032900.2584
 -25739357.36747 -20043169.39645  22507402.2814                   22507400.7234
 -29972458.16848 -23342860.10946  20732986.0084                   20732981.7894
 -25046102.72748 -19477804.09146  21097115.5634                   21097113.8674
  -8018517.45747  -6232053.46444  22848660.5474                   22848659.1414
 -19138556.93048 -14900557.66546  21280075.5474                   21280073.9414
  -6878479.55947  -5343880.49145  23295855.5394                   23295856.1804
 11  8 19  0 50  0.0000000  0  9G17G09G12G04G02G10G30G05G25
 -27453672.00446 -21379971.58144  23783875.4844                   23783876.0204
  -7557272.77346  -5876847.56343  24499567.0634                   24499569.2974
 -22298099.05948 -17363647.00246  21019889.4694                   21019886.7274
 -25690494.02747 -20005094.11045  22516700.6564                   22516699.1804
 -29992285.46948 -23358309.94646  20729213.0314                   20729208.5594
 -25047774.92648 -19479107.11046  21096797.2734                   21096795.4454
  -8131728.99247  -6320270.19844  22827117.0234                   22827115.4884
 -19242646.96548 -14981666.73646  21260267.7504                   21260266.3524
  -6998648.93447  -5437518.90745  23272988.1644                   23272988.6914
 11  8 19  0 50 30.0000000  0  9G17G09G12G04G02G10G30G05G25
 -27424901.49646 -21357553.03444  23789351.4304                   23789350.7974
  -7507144.60246  -5837786.80143  24509106.3834                   24509108.4144
 -22365955.97348 -17416522.50146  21006976.2894                   21006973.8284
 -25641580.78147 -19966979.90745  22526008.1954                   22526007.6604
 -30011881.51248 -23373579.58846  20725484.2034                   20725479.3954
 -25048840.69947 -19479937.58746  21096594.6884                   21096592.6564
  -8244531.39847  -6408168.10644  22805651.1644                   22805650.7344
 -19346300.83648 -15062435.93646  21240543.2424                   21240541.5164
  -7118511.87147  -5530918.53945  23250178.3364                   23250179.2304
 11  8 19  0 51  0.0000000  0  9G17G09G12G04G02G10G30G05G25
 -27395956.10246 -21334998.23044  23794859.7734                   23794859.0824
  -7457022.62146  -5798730.86443  24518643.5634                   24518646.6684
 -22433286.35548 -17468987.72146  20994163.6334                   20994160.7304
 -25592622.57447 -19928830.68045  22535324.8914                   22535323.3874
 -30031251.57848 -23388673.14446  20721797.9454                   20721793.3754
 -25049305.05948 -19480299.41846  21096506.1954                   21096504.1334
  -8356925.81247  -6495748.14045  22784263.5394                   22784261.9774
 -19449519.51648 -15142866.04046  21220901.3364                   21220899.6644
  -7238069.56647  -5624080.32945  23227427.3444                   23227428.7544
 11  8 19  0 51 30.0000000  0  9G17G09G12G04G02G10G30G05G25
 -27366836.46146 -21312307.60544  23800400.8754                   23800400.0704
  -7406910.92246  -5759682.94443  24528180.1024                   24528182.8204
 -22500089.42648 -17521042.04846  20981451.6094                   20981448.8524
 -25543622.07847 -19890648.49945  22544649.4694                   22544648.0354
 -30050397.49648 -23403592.02946  20718155.1174                   20718150.2194
 -25049170.05948 -19480194.23746  21096532.0164                   21096530.1054
  -8468910.60947  -6583008.95145  22762953.2194                   22762952.2624
 -19552302.16448 -15222956.37046  21201342.6564                   21201340.7194
  -7357320.33247  -5717002.95845  23204734.8984                   23204735.6844
 11  8 19  0 52  0.0000000  0  9G17G09G12G04G02G10G30G05G25
 -27337538.83246 -21289478.30344  23805976.0474                   23805975.9774
  -7356809.12546  -5720642.78443  24537714.2424                   24537716.7774
 -22566360.39848 -17572681.75446  20968840.7814                   20968838.1804
 -25494577.17247 -19852431.72045  22553982.7344                   22553981.4304
 -30069317.43448 -23418334.84946  20714554.4534                   20714550.0004
 -25048433.34848 -19479620.17246  21096672.5004                   21096670.1374
  -8580479.63747  -6669945.82045  22741722.5554                   22741721.1484
 -19654643.15648 -15302702.56346  21181867.3984                   21181865.5084
  -7476257.96947  -5809681.56245  23182102.2114                   23182103.1334
 11  8 19  0 52 30.0000000  0  9G17G09G12G04G02G10G30G05G25
 -27308060.74247 -21266508.40544  23811585.5864                   23811585.1414
  -7306717.84046  -5681610.88543  24547246.5164                   24547248.8554
 -22632095.27348 -17623903.71646  20956331.4614                   20956328.8364
 -25445486.96947 -19814179.63445  22563324.4844                   22563322.2154
 -30088010.02748 -23432900.50046  20710997.2114                   20710992.8754
 -25047094.10248 -19478576.61346  21096926.8364                   21096925.3134
  -8691627.91847  -6756554.82144  22720571.6644                   22720570.5904
 -19756537.40248 -15382100.63046  21162477.8134                   21162475.8554
  -7594877.45347  -5902112.28445  23159529.2814                   23159530.6414
 11  8 19  0 53  0.0000000  0  9G17G09G12G04G02G10G30G05G25
 -27278409.05547 -21243403.21844  23817228.4614                   23817227.1604
  -7256647.86346  -5642595.51543  24556774.1414                   24556776.7114
 -22697300.12148 -17674712.68646  20943923.7584                   20943921.0744
 -25396360.55947 -19775899.33545  22572672.6094                   22572671.3674
 -30106483.83248 -23447295.66546  20707481.4844                   20707477.3954
 -25045160.95347 -19477070.25246  21097295.0554                   21097292.7664
  -8802360.29347  -6842839.74144  22699499.6174                   22699498.4804
 -19857990.19548 -15461154.71046  21143171.8364                   21143170.1294
  -7713183.64547  -5994298.87745  23137016.0084                   23137017.3634
 11  8 19  0 53 30.0000000  0  9G17G09G12G04G02G10G30G05G25
 -27248577.03147 -21220157.53244  23822905.5394                   23822904.4614
  -7206595.71946  -5603593.96643  24566299.4144                   24566302.3134
 -22761966.75848 -17725102.26646  20931618.1884                   20931615.5744
 -25347192.54747 -19737586.60745  22582028.8054                   22582028.0004
 -30124733.39848 -23461516.09346  20704009.0314                   20704004.4264
 -25042628.61748 -19475097.00846  21097776.5944                   21097775.1604
  -8912667.48847  -6928793.32445  22678509.6724                   22678508.1484
 -19958992.55548 -15539857.81046  21123951.3054                   21123949.8284
  -7831167.23447  -6086234.08145  23114564.2424                   23114565.7814
 11  8 19  0 54  0.0000000  0  9G17G09G12G04G02G10G30G05G25
 -27218568.61347 -21196774.35044  23828615.6414                   23828614.2114
  -7156568.65646  -5564612.10443  24575820.6484                   24575822.1374
 -22826098.07847 -17775074.70846  20919414.1564                   20919411.7234
 -25297988.87547 -19699246.11645  22591392.4774                   22591391.1254
 -30142764.43448 -23475566.25046  20700577.7344                   20700573.5634
 -25039502.62948 -19472661.17146  21098371.5164                   21098369.4224
  -9022551.33247  -7014417.03144  22657598.9534                   22657597.9064
 -20059546.44148 -15618211.43746  21104817.0784                   21104815.3874
  -7948829.91047  -6177919.23945  23092174.4384                   23092174.8484
 11  8 19  0 54 30.0000000  0  9G17G09G12G04G02G10G30G05G25
 -27188382.09047 -21173252.45644  23834360.2034                   23834359.8484
  -7106568.19946  -5525650.90243  24585334.9384                   24585337.4964
 -22889691.10248 -17824627.71146  20907312.7424                   20907310.5704
 -25248749.39847 -19660877.73544  22600761.7114                   22600760.4924
 -30160576.21948 -23489445.55446  20697188.3594                   20697184.1884
 -25035782.95348 -19469762.72346  21099079.5084                   21099078.0204
  -9132007.75447  -7099707.69744  22636770.2664                   22636769.0744
 -20159648.03148 -15696212.63246  21085767.6334                   21085766.1844
  -8066167.55947  -6269351.14145  23069845.0164                   23069846.3204
 11  8 19  0 55  0.0000000  0  9G17G09G12G04G02G10G30G05G25
 -27158012.36747 -21149587.70944  23840139.0634                   23840138.8984
  -7056592.94546  -5486709.37443  24594843.3524                   24594847.1484
 -22952740.07448 -17873756.76846  20895315.3754                   20895312.5474
 -25199471.03147 -19622479.01245  22610139.3134                   22610138.7234
 -30178165.87948 -23503151.78446  20693841.2194                   20693836.5634
 -25031466.47348 -19466399.23046  21099900.8754                   21099898.7424
  -9241029.62147  -7184659.73944  22616023.8364                   22616022.1524
 -20259290.81648 -15773856.30646  21066806.2814                   21066805.0984
  -8183173.02747  -6360524.17745  23047580.2584                   23047580.2734
 11  8 19  0 55 30.0000000  0  9G17G09G12G04G02G10G30G05G25
 -27127465.25446 -21125784.75044  23845951.3364                   23845951.6254
  -7006651.83646  -5447794.46143  24604348.2734                   24604351.1454
 -23015249.24648 -17922465.21246  20883420.0164                   20883417.3594
 -25150161.19147 -19584055.80545  22619523.0554                   22619521.9224
 -30195540.23848 -23516690.24046  20690535.0704                   20690530.7034
 -25026560.23848 -19462576.16146  21100834.2814                   21100832.1994
  -9349620.31247  -7269275.78444  22595359.3054                   22595358.5824
 -20358478.16448 -15851145.09546  21047931.8914                   21047930.3284
  -8299849.55147  -6451440.89945  23025377.2424                   23025377.7274
 11  8 19  0 56  0.0000000  0  9G17G09G12G04G02G10G30G05G25
 -27096735.41046 -21101839.52043  23851799.3834                   23851799.4104
  -6956742.80546  -5408904.56443  24613845.8444                   24613848.7974
 -23077211.89148 -17970747.78246  20871628.6414                   20871626.2814
 -25100815.90647 -19545604.96745  22628912.3984                   22628912.0124
 -30212695.49248 -23530057.97746  20687270.3284                   20687265.9414
 -25021060.79348 -19458290.87546  21101881.1724                   21101879.1024
  -9457772.05547  -7353549.80944  22574779.1724                   22574777.7384
 -20457202.76648 -15928073.30646  21029145.2194                   21029143.1374
  -8416189.30947  -6542095.20345  23003238.5234                   23003239.3714
 11  8 19  0 56 30.0000000  0  9G17G09G12G04G02G10G30G05G25
 -27065823.21146 -21077752.16044  23857682.3674                   23857681.8794
  -6906869.25446  -5370042.22844  24623336.3284                   24623340.2974
 -23138627.81648 -18018604.36146  20859941.9304                   20859939.3754
 -25051437.14147 -19507128.03745  22638309.6954                   22638308.3984
 -30229633.37548 -23543256.32346  20684047.0004                   20684042.6334
 -25014970.18748 -19453544.93346  21103039.7894                   21103038.1564
  -9565482.80947  -7437480.20144  22554282.3754                   22554280.8674
 -20555462.85948 -16004639.56246  21010446.8134                   21010444.8874
  -8532190.11747  -6632485.38945  22981164.0704                   22981165.0354
 11  8 19  0 57  0.0000000  0  9G17G09G12G04G02G10G30G05G25
 -27034736.89846 -21053529.06344  23863598.3984                   23863596.5084
  -6857043.13346  -5331216.91443  24632817.8284                   24632821.2114
 -23199503.85948 -18066040.23546  20848357.4534                   20848354.6604
 -25002035.00447 -19468632.88945  22647710.2974                   22647709.2814
 -30246363.64148 -23556292.89146  20680863.4384                   20680859.0204
 -25008298.33248 -19448346.07846  21104309.8284                   21104307.6094
  -9672758.69947  -7521071.75944  22533868.1334                   22533866.8404
 -20653265.14548 -16080849.09946  20991835.5864                   20991833.8164
  -8647858.11347  -6722616.23145  22959153.1484                   22959154.6374
 11  8 19  0 57 30.0000000  0  9G17G09G12G04G02G10G30G05G25
 -27003470.18446 -21029165.45144  23869547.4384                   23869547.7624
  -6807261.45346  -5292426.26343  24642291.8914                   24642294.3914
 -23259832.84848 -18113049.83046  20836877.1174                   20836874.7384
 -24952604.87147 -19430115.95145  22657116.3914                   22657115.7894
 -30262881.45348 -23569163.91746  20677720.4144                   20677716.1764
 -25001040.78548 -19442690.84746  21105690.5314                   21105688.7854
  -9779591.33247  -7604317.91244  22513538.1804                   22513536.7624
 -20750601.63748 -16156695.67246  20973312.9304                   20973311.0274
  -8763184.75047  -6812481.08845  22937207.7504                   22937207.9614
 11  8 19  0 58  0.0000000  0  9G17G09G12G04G02G10G30G05G25
 -26972022.82046 -21004661.00144  23875531.3754                   23875532.3014
  -6757527.05947  -5253672.43743  24651756.7894                   24651759.2464
 -23319613.62548 -18159632.24846  20825501.0704                   20825498.5044
 -24903148.16047 -19391578.30045  22666527.7894                   22666526.6564
 -30279187.97348 -23581870.31346  20674617.3594                   20674612.7934
 -24993199.37148 -19436580.64146  21107182.5944                   21107181.1484
  -9885978.19947  -7687216.69945  22493293.9774                   22493292.4414
 -20847469.73848 -16232177.24646  20954879.5314                   20954878.1294
  -8878167.36347  -6902077.88945  22915326.6564                   22915327.7894
 11  8 19  0 58 30.0000000  0  9G17G09G12G04G02G10G30G05G25
 -26940394.97346 -20980015.95844  23881550.3364                   23881550.5084
  -6707843.23446  -5214957.97843  24661211.0474                   24661214.1134
 -23378844.82848 -18205786.43246  20814229.8524                   20814227.5474
 -24853666.11747 -19353020.88944  22675943.6094                   22675942.5634
 -30295284.60248 -23594413.13946  20671553.9534                   20671549.9454
 -24984775.75048 -19430016.78146  21108786.0864                   21108783.8524
  -9991917.03947  -7769766.39945  22473134.8364                   22473132.8714
 -20943867.50848 -16307292.35746  20936535.7584                   20936533.6604
  -8992803.64147  -6991404.77845  22893512.7114                   22893513.2664
 11  8 19  0 59  0.0000000  0  9G17G09G12G04G02G10G30G05G25
 -26908579.66446 -20955224.84544  23887604.9064                   23887604.0314
  -6658206.25446  -5176280.03443  24670656.7034                   24670660.1954
 -23437518.85248 -18251506.45246  20803064.8914                   20803062.0634
 -24804153.86347 -19314439.97044  22685365.7974                   22685364.6684
 -30311166.08248 -23606788.33046  20668532.0164                   20668527.6374
 -24975764.78548 -19422995.24746  21110500.3984                   21110498.3594
 -10097398.67247  -7851959.79945  22453061.9144                   22453060.1414
 -21039786.69548 -16382034.53246  20918283.0474                   20918281.0944
  -9107084.24247  -7080454.52145  22871765.1174                   22871766.3714
 11  8 19  0 59 30.0000000  0  9G17G09G12G04G02G10G30G05G25
 -26876583.79346 -20930293.03744  23893693.4844                   23893693.4924
  -6608626.13746  -5137646.41043  24680091.5234                   24680094.1604
 -23495641.53948 -18296796.86046  20792004.2894                   20792001.8524
 -24754619.61747 -19275841.93645  22694792.3914                   22694791.4694
 -30326840.63748 -23619002.27246  20665549.3364                   20665545.0824
 -24966175.28548 -19415522.90246  21112325.5864                   21112323.4734
 -10202427.82847  -7933800.64845  22433075.2814                   22433074.0864
 -21135232.02048 -16456407.46346  20900120.3754                   20900118.2854
  -9221013.70747  -7169230.65645  22850085.3284                   22850085.9844
 11  8 19  1  0  0.0000000  0  9G17G09G12G04G02G10G30G05G25
 -26844408.78546 -20905221.66544  23899816.5704                   23899816.3164
  -6559107.65246  -5099060.82943  24689514.3754                   24689518.8594
 -23553213.33248 -18341657.99646  20781048.5634                   20781045.9924
 -24705066.29747 -19237228.98645  22704221.7584                   22704219.9454
 -30342310.68748 -23631056.85746  20662605.3984                   20662601.0234
 -24956010.27748 -19407602.10746  21114259.3444                   21114257.4184
 -10307003.54747  -8015288.14845  22413175.1644                   22413173.5204
 -21230202.78148 -16530410.60746  20882047.8134                   20882045.8524
  -9334591.07047  -7257732.40645  22828471.8674                   22828472.7894
 11  8 19  1  0 30.0000000  0  9G17G09G12G04G02G10G30G05G25
 -26812055.22746 -20880011.11544  23905972.3834                   23905972.6914
  -6509654.57046  -5060526.16043  24698925.3754                   24698929.0904
 -23610233.66848 -18386089.42646  20770198.3444                   20770195.7114
 -24655495.89847 -19198602.72545  22713654.6414                   22713654.4734
 -30357578.52348 -23642953.87346  20659700.1644                   20659695.8524
 -24945272.23048 -19399234.80246  21116303.0864                   21116301.3874
 -10411124.24647  -8096421.11145  22393362.1644                   22393359.8914
 -21324698.04348 -16604043.24246  20864065.7344                   20864063.7814
  -9447814.48447  -7345958.39245  22806926.2664                   22806926.8794
 11  8 19  1  1  0.0000000  0  9G17G09G12G04G02G10G30G05G25
 -26779519.47346 -20854658.61944  23912163.9534                   23912164.2504
  -6460266.58246  -5022042.24143  24708323.9844                   24708327.2934
 -23666698.23448 -18430087.78546  20759453.0784                   20759450.7074
 -24605906.50847 -19159961.66744  22723091.4844                   22723090.0124
 -30372641.90648 -23654691.59146  20656833.7974                   20656829.2154
 -24933959.70748 -19390419.84546  21118455.6254                   21118453.3094
 -10514784.29747  -8177195.10645  22373635.4144                   22373634.7384
 -21418712.48848 -16677301.20746  20846175.7114                   20846173.2894
  -9560678.23047  -7433904.09245  22785448.7344                   22785449.3094
 11  8 19  1  1 30.0000000  0  9G17G09G12G04G02G10G30G05G25
 -26746803.52046 -20829165.62744  23918389.3524                   23918390.1294
  -6410948.34446  -4983612.68643  24717708.9614                   24717711.9574
 -23722607.77748 -18473653.65346  20748813.9614                   20748811.3634
 -24556301.45347 -19121308.40545  22732530.4694                   22732530.5354
 -30387503.92648 -23666272.39346  20654005.5634                   20654001.2664
 -24922076.34448 -19381160.07946  21120717.0474                   21120715.2304
 -10617983.10547  -8257609.71045  22353997.4774                   22353996.4414
 -21512245.56247 -16750184.07247  20828376.9924                   20828374.8054
  -9673181.54747  -7521568.93845  22764040.3364                   22764040.6524
 11  8 19  1  2  0.0000000  0  9G17G09G12G04G02G10G30G05G25
 -26713901.68746 -20803527.88844  23924651.3364                   23924650.0124
  -6361697.59446  -4945235.72543  24727081.6414                   24727085.4734
 -23777955.90248 -18516782.05646  20738281.5234                   20738278.7154
 -24506676.91447 -19082639.98044  22741974.5234                   22741972.9414
 -30402160.55148 -23677693.14446  20651216.5164                   20651212.0474
 -24909618.46948 -19371452.63046  21123087.6564                   21123085.6334
 -10720712.90647  -8337658.85945  22334448.9384                   22334447.8404
 -21605290.32048 -16822686.43946  20810671.1174                   20810668.9734
  -9785316.54747  -7608946.80445  22742701.2274                   22742702.0004
 11  8 19  1  2 30.0000000  0  9G17G09G12G04G02G10G30G05G25
 -26680819.99247 -20777749.93344  23930946.0784                   23930945.5204
  -6312523.51646  -4906918.50643  24736438.7734                   24736442.6844
 -23832747.68048 -18559476.94446  20727854.7194                   20727852.4964
 -24457039.98847 -19043961.89144  22751419.6954                   22751419.5234
 -30416619.09048 -23688959.53446  20648465.0634                   20648460.6914
 -24896593.86748 -19361303.58246  21125566.1414                   21125563.8014
 -10822977.60247  -8417345.55545  22314988.1484                   22314986.7584
 -21697850.76248 -16894811.41146  20793057.1414                   20793055.3054
  -9897086.88747  -7696040.50545  22721432.1724                   22721432.7894
 11  8 19  1  3  0.0000000  0  9G17G09G12G04G02G10G30G05G25
 -26647558.49647 -20751831.91244  23937275.3524                   23937275.3134
  -6263429.13346  -4868663.36343  24745781.4774                   24745784.7344
 -23886982.04748 -18601737.48246  20717534.4384                   20717531.9144
 -24407392.09047 -19005275.26644  22760868.0004                   22760866.0944
 -30430880.90248 -23700072.64846  20645751.0944                   20645746.9264
 -24883004.41848 -19350714.39546  21128152.4144                   21128150.0784
 -10924774.89847  -8496668.09445  22295617.2664                   22295615.7854
 -21789925.07848 -16966557.59347  20775536.1884                   20775533.8054
 -10008490.12548  -7782848.15645  22700232.9384                   22700233.6294
 11  8 19  1  3 30.0000000  0  8G17G12G04G02G10G30G05G25
 -26614111.75047 -20725769.52644  23943640.2194                   23943639.6994
 -23940652.78148 -18643558.81946  20707321.4064                   20707318.5314
 -24357729.30947 -18966576.99744  22770317.5864                   22770316.4344
 -30444941.59448 -23711029.03246  20643075.5164                   20643071.3954
 -24868846.99647 -19339682.62146  21130846.1724                   21130844.1764
 -11026097.14147  -8575620.41745  22276336.0314                   22276334.6994
 -21881506.43048 -17037919.64346  20758109.0004                   20758106.8874
 -10119518.46547  -7869363.69645  22679104.5554                   22679105.3134
 11  8 19  1  4  0.0000000  0  8G17G12G04G02G10G30G05G25
 -26580478.30547 -20699561.64443  23950041.0784                   23950041.0864
 -23993757.50848 -18684939.10946  20697216.1804                   20697213.4454
 -24308051.26247 -18927866.83844  22779771.0084                   22779769.7114
 -30458801.19948 -23721828.72046  20640437.5784                   20640433.8094
 -24854121.95348 -19328208.54446  21133648.0234                   21133646.1134
 -11126940.69947  -8654199.77745  22257145.9384                   22257144.5744
 -21972591.18448 -17108894.73947  20740775.5554                   20740773.8244
 -10230168.04747  -7955584.09245  22658048.7894                   22658049.5704
 11  8 19  1  4 30.0000000  0  8G17G12G04G02G10G30G05G25
 -26546650.48846 -20673202.29244  23956477.7974                   23956477.2774
 -24046288.05948 -18725871.99546  20687219.6954                   20687217.3364
 -24258352.03547 -18889140.18144  22789228.1884                   22789227.5664
 -30472453.48048 -23732466.88546  20637840.1724                   20637835.9574
 -24838823.65247 -19316287.79446  21136559.7194                   21136557.3674
 -11227295.92247  -8732398.61545  22238048.7034                   22238047.6524
 -22063170.16848 -17179475.72347  20723539.2344                   20723537.3054
 -10340428.92647  -8041501.61245  22637067.1334                   22637067.7034
 11  8 19  1  5  0.0000000  0  8G17G12G04G02G10G30G05G25
 -26512631.37946 -20646693.88843  23962951.5784                   23962951.2234
 -24098246.46548 -18766359.04646  20677332.2274                   20677329.4804
 -24208636.05147 -18850400.48244  22798689.4224                   22798688.6334
 -30485902.65248 -23742946.76846  20635280.9454                   20635276.4224
 -24822957.16448 -19303924.28446  21139578.5314                   21139576.8484
 -11327163.64547  -8810217.60545  22219044.6804                   22219043.4384
 -22153244.71148 -17249663.64347  20706398.4454                   20706396.5044
 -10450301.92647  -8127116.90645  22616158.7734                   22616159.2854
 11  8 19  1  5 30.0000000  0  8G17G12G04G02G10G30G05G25
 -26478421.93446 -20620037.14643  23969461.1644                   23969461.3244
 -24149632.46948 -18806400.08746  20667553.7814                   20667551.2544
 -24158905.50047 -18811649.43544  22808153.3134                   22808151.9614
 -30499150.57448 -23753269.84346  20632759.9454                   20632755.5824
 -24806524.96148 -19291119.96946  21142705.9064                   21142703.7664
 -11426542.32847  -8887655.50845  22200133.9304                   22200132.4884
 -22242813.34448 -17319457.33047  20689354.3834                   20689352.4384
 -10559785.19147  -8212428.49745  22595325.0004                   22595325.2234
 11  8 19  1  6  0.0000000  0  8G17G12G04G02G10G30G05G25
 -26444025.20746 -20593234.47143  23976006.8524                   23976006.7234
 -24200448.95348 -18845997.32646  20657883.8054                   20657881.0044
 -24109164.62147 -18772890.31444  22817617.9224                   22817618.2424
 -30512202.10548 -23763439.86946  20630276.0554                   20630272.0394
 -24789532.60248 -19277879.18246  21145939.3594                   21145937.6094
 -11525433.13747  -8964713.24745  22181315.3984                   22181313.9614
 -22331877.94948 -17388858.28546  20672405.8444                   20672403.7544
 -10668879.66447  -8297437.13945  22574565.1094                   22574565.7034
 11  8 19  1  6 30.0000000  0  8G17G12G04G02G10G30G05G25
 -24834025.06646 -19338688.86443  24282379.6724                   24282379.3754
 -22675275.59848 -17657550.55146  20948114.4924                   20948111.8754
 -22483999.27747 -17506527.78444  23126877.1644                   23126875.8594
 -28949641.01248 -22545859.80746  20927621.6024                   20927617.9024
 -23196565.34847 -18036605.99746  21449070.8754                   21449068.2974
 -10048413.25847  -7813788.64445  22462382.7114                   22462381.0984
 -20845016.40648 -16230264.83947  20955346.1564                   20955343.6254
  -9202162.00847  -7154540.23345  22853672.1804                   22853672.3284
 11  8 19  1  7  0.0000000  0  8G17G12G04G02G10G30G05G25
 -24799261.60946 -19311600.46243  24288994.0314                   24288994.6024
 -22724957.86748 -17696263.99146  20938660.3054                   20938657.7074
 -22434249.64547 -17467761.81444  23136343.5234                   23136343.0784
 -28962311.19148 -22555732.68446  20925210.8524                   20925206.4384
 -23178466.42647 -18022502.93046  21452515.0004                   21452512.7464
 -10146329.53547  -7890087.02545  22443750.0004                   22443748.3134
 -20933075.32848 -16298882.13046  20938589.0474                   20938586.9304
  -9310479.34447  -7238943.32145  22833059.7344                   22833060.8364
 11  8 19  1  7 30.0000000  0  8G17G12G04G02G10G30G05G25
 -24764314.35246 -19284368.74343  24295644.2424                   24295644.7624
 -22774071.61348 -17734534.42746  20929314.3444                   20929311.9384
 -22384497.02347 -17428993.58344  23145811.3984                   23145810.4494
 -28974791.77048 -22565457.80846  20922835.6804                   20922831.5514
 -23159816.91847 -18007970.84546  21456063.8914                   21456061.8984
 -10243754.89847  -7966002.86745  22425210.3984                   22425209.3554
 -21020628.47348 -16367105.30846  20921927.7814                   20921925.7584
  -9418404.23847  -7323040.62045  22812522.3674                   22812522.8484
 11  8 19  1  8  0.0000000  0  8G17G12G04G02G10G30G05G25
 -24729185.71946 -19256995.81243  24302330.5314                   24302328.9344
 -22822618.80148 -17772363.39546  20920076.2584                   20920073.3284
 -22334745.46547 -17390226.17844  23155279.3134                   23155278.4454
 -28987086.80548 -22575038.35246  20920496.0554                   20920491.7544
 -23140621.65648 -17993013.48746  21459716.9534                   21459714.4144
 -10340689.98447  -8041536.69645  22406764.3524                   22406763.1054
 -21107677.09848 -16434935.37447  20905363.1884                   20905361.3634
  -9525936.98047  -7406832.33845  22792059.3364                   22792060.5594
 11  8 19  1  8 30.0000000  0  8G17G12G04G02G10G30G05G25
 -24693872.17246 -19229478.72743  24309050.1724                   24309049.3404
 -22870594.59448 -17809747.11746  20910946.2974                   20910943.7734
 -22284992.28147 -17351457.46544  23164747.3914                   23164746.0554
 -28999194.13348 -22584472.64446  20918192.1334                   20918187.8284
 -23120878.99248 -17977629.59246  21463473.2734                   21463471.1174
 -10437128.72747  -8116683.74545  22388413.1954                   22388411.3874
 -21194215.42648 -16502367.79946  20888895.5004                   20888893.5864
  -9633071.27047  -7490313.58745  22771672.0314                   22771673.3984
 11  8 19  1  9  0.0000000  0  8G17G12G04G02G10G30G05G25
 -24658377.02346 -19201820.19843  24315804.9304                   24315803.6844
 -22918001.52348 -17846687.56546  20901925.2814                   20901922.8554
 -22235241.87147 -17312690.90344  23174214.2424                   23174213.4144
 -29011117.83248 -22593763.84546  20915923.2194                   20915918.9184
 -23100593.90248 -17961823.02546  21467333.8054                   21467331.5864
 -10533072.27047  -8191444.92045  22370155.1174                   22370153.2704
 -21280244.86348 -16569403.68346  20872524.4224                   20872522.3324
  -9739807.94147  -7573485.00245  22751361.1094                   22751362.2544
 11  8 19  1  9 30.0000000  0  8G17G12G04G02G10G30G05G25
 -24622699.40646 -19174019.45343  24322593.0314                   24322593.2854
 -22964838.65248 -17883184.02346  20893012.8594                   20893010.0084
 -22185495.03147 -17273927.17844  23183680.2424                   23183679.5044
 -29022858.44948 -22602912.37046  20913688.9614                   20913684.5904
 -23079767.96148 -17945595.02846  21471296.8984                   21471294.6214
 -10628517.87147  -8265818.09845  22351992.5474                   22351991.0124
 -21365763.37948 -16636041.43847  20856250.7814                   20856248.8404
  -9846144.03947  -7656344.26445  22731126.2274                   22731126.9884
 11  8 19  1 10  0.0000000  0  8G17G12G04G02G10G30G05G25
 -24586840.75446 -19146077.57643  24329417.5864                   24329416.0084
 -23011105.83248 -17919236.35946  20884208.4534                   20884205.5164
 -22135753.76647 -17235167.80844  23193146.0554                   23193145.1374
 -29034418.21548 -22611919.98646  20911488.8914                   20911484.9104
 -23058404.50448 -17928948.18446  21475361.8674                   21475360.0474
 -10723464.38747  -8339802.36145  22333924.3914                   22333923.3134
 -21450770.32448 -16702280.57347  20840074.6254                   20840072.5204
  -9952078.18747  -7738890.33945  22710967.5084                   22710967.9734
 11  8 19  1 10 30.0000000  0  8G17G12G04G02G10G30G05G25
 -24550802.58246 -19117995.95843  24336274.3834                   24336274.2854
 -23056804.80948 -17954845.94546  20875512.1884                   20875509.3954
 -22086021.05946 -17196415.06444  23202609.3594                   23202608.8954
 -29045800.09448 -22620788.97746  20909323.3364                   20909318.9574
 -23036507.38748 -17911885.50046  21479528.8444                   21479526.4964
 -10817911.78147  -8413397.70645  22315952.3524                   22315950.6414
 -21535265.85248 -16768121.21146  20823995.5864                   20823993.5314
 -10057609.89547  -7821122.79945  22690885.1644                   22690886.2114
 11  8 19  1 11  0.0000000  0  8G17G12G04G02G10G30G05G25
 -24514580.12146 -19089770.52643  24343168.1954                   24343166.7304
 -23101929.68748 -17990008.18546  20866924.8364                   20866922.1724
 -22036293.25046 -17157666.15044  23212072.8444                   23212071.8164
 -29057000.45348 -22629516.52646  20907192.0394                   20907187.6094
 -23014073.62148 -17894404.64046  21483798.0704                   21483795.9924
 -10911852.95747  -8486598.58445  22298075.3674                   22298074.0824
 -21619243.43048 -16833558.24146  20808015.0864                   20808013.3134
 -10162731.82448  -7903035.96145  22670881.8364                   22670881.9494
 11  8 19  1 11 30.0000000  0  8G17G12G04G02G10G30G05G25
 -24478177.84445 -19061405.15543  24350093.8594                   24350093.9654
 -23146484.53148 -18024726.22546  20858446.4924                   20858443.7304
 -21986575.96947 -17118925.42944  23221533.2664                   23221532.0274
 -29068024.82848 -22638106.93646  20905094.0234                   20905090.0204
 -22991109.94948 -17876510.86446  21488167.5164                   21488165.6604
 -11005290.27347  -8559406.84245  22280295.0634                   22280293.5394
 -21702705.91048 -16898593.89447  20792132.9614                   20792130.5084
 -10267446.13747  -7984631.50845  22650954.9144                   22650955.5944
 11  8 19  1 12  0.0000000  0  8G17G12G04G02G10G30G05G25
 -24441592.05945 -19032896.79243  24357056.0634                   24357056.4734
 -23190465.35248 -18058996.99746  20850077.0164                   20850074.7304
 -21936866.81246 -17080191.05544  23230993.3674                   23230992.0124
 -29078871.21948 -22646558.65946  20903029.9384                   20903025.9264
 -22967615.42648 -17858203.44046  21492638.8674                   21492636.9184
 -11098218.40247  -8631818.33945  22262611.5084                   22262609.9224
 -21785648.35548 -16963224.34046  20776349.1334                   20776347.2154
 -10371747.14547  -8065904.97545  22631107.2664                   22631107.7894
 11  8 19  1 12 30.0000000  0  8G17G12G04G02G10G30G05G25
 -24404821.68445 -19004244.42543  24364054.5314                   24364052.8164
 -23233869.94948 -18092818.75946  20841817.5084                   20841814.9534
 -21887165.36347 -17041462.67144  23240451.0084                   23240450.2274
 -29089539.03548 -22654871.22946  20901000.2504                   20900996.0904
 -22943590.69148 -17839482.87146  21497210.2734                   21497208.2424
 -11190633.73047  -8703830.25445  22245025.4924                   22245023.0474
 -21868068.05148 -17027447.43446  20760665.2814                   20760662.9654
 -10475630.87547  -8146853.29445  22611338.5164                   22611339.2304
 11  8 19  1 13  0.0000000  0  8G17G12G04G02G10G30G05G25
 -24367869.52345 -18975450.62643  24371086.3984                   24371084.8014
 -23276700.57448 -18126193.26946  20833667.3674                   20833664.3054
 -21837475.71946 -17002743.49844  23249906.3834                   23249905.6054
 -29100032.18448 -22663047.70446  20899003.2424                   20898998.7114
 -22919040.71948 -17820353.02846  21501882.1564                   21501880.1024
 -11282537.14547  -8775443.25645  22227536.5164                   22227535.3204
 -21949966.13348 -17091264.08147  20745080.6024                   20745078.3204
 -10579097.92647  -8227476.94145  22591649.6094                   22591650.2854
 11  8 19  1 13 30.0000000  0  8G17G12G04G02G10G30G05G25
 -24330734.41846 -18946514.13643  24378151.9844                   24378152.0904
 -23318955.78148 -18159119.39946  20825626.1724                   20825623.5084
 -21787797.79346 -16964033.44644  23259359.5634                   23259359.0944
 -29110350.66848 -22671088.07846  20897039.6334                   20897035.1724
 -22893966.45348 -17800814.66046  21506653.5084                   21506651.8714
 -11373925.51247  -8846654.94145  22210146.3834                   22210144.4454
 -22031339.85948 -17154672.14146  20729595.6954                   20729593.4884
 -10682144.86347  -8307773.23245  22572040.2114                   22572040.8594
 11  8 19  1 14  0.0000000  0  9G17G29G12G04G02G10G30G05G25
 -24293417.09446 -18917435.67243  24385253.8284                   24385253.3054
   4560590.10555   3566778.89053  24690894.2814                   24690893.4804
 -23360635.85248 -18191597.37746  20817694.8364                   20817692.1604
 -21738133.31246 -16925333.89244  23268810.2664                   23268810.1214
 -29120496.45348 -22678993.86346  20895108.7504                   20895104.7114
 -22868370.94547 -17780870.09546  21511524.1804                   21511522.1134
 -11464797.59447  -8917464.33545  22192853.6804                   22192851.9694
 -22112188.21548 -17217670.81347  20714210.4454                   20714208.5004
 -10784770.12547  -8387740.93945  22552511.3594                   22552512.0474
 11  8 19  1 14 30.0000000  0  9G17G29G12G04G02G10G30G05G25
 -24255927.53945 -18888223.03142  24392387.2734                   24392387.2894
   4448322.17246   3479297.36643  24669530.3054                   24669529.6684
 -23401749.59447 -18223634.06146  20809871.4534                   20809868.3874
 -21688492.95346 -16886653.13544  23278257.0634                   23278256.3364
 -29130480.22747 -22686773.41746  20893209.3054                   20893204.9104
 -22842266.09047 -17760528.65645  21516491.8054                   21516489.8134
 -11555161.07047  -8987877.39445  22175658.1954                   22175655.9534
 -22192519.62548 -17280266.68547  20698924.0004                   20698921.9024
 -10886980.87547  -8467385.62345  22533060.8984                   22533061.8324
 11  8 19  1 15  0.0000000  0  9G17G29G12G04G02G10G30G05G25
 -24218264.68446 -18858875.26642  24399554.7194                   24399554.0944
   4335964.60246   3391746.11043  24648149.9694                   24648149.0434
 -23442296.14148 -18255228.77346  20802155.6884                   20802152.5744
 -21638876.95346 -16847991.34544  23287698.8524                   23287698.0824
 -29140302.39848 -22694427.04446  20891339.9304                   20891335.8914
 -22815653.40247 -17739791.49046  21521555.9144                   21521554.1764
 -11645013.15647  -9057891.96345  22158559.3444                   22158557.8914
 -22272332.02748 -17342458.12547  20683736.1644                   20683734.1484
 -10988774.16047  -8546705.03245  22513690.5084                   22513690.8674
 11  8 19  1 15 30.0000000  0  9G17G29G12G04G02G10G30G05G25
 -24180433.64146 -18829396.48042  24406753.4144                   24406753.0084
   4223513.03146   3304121.62143  24626751.1954                   24626750.0864
 -23482279.91448 -18286384.95746  20794547.2734                   20794544.1914
 -21589291.54746 -16809353.40344  23297134.6644                   23297134.3484
 -29149969.29348 -22701959.67946  20889500.6334                   20889495.9104
 -22788540.33248 -17718664.41646  21526715.5634                   21526713.3094
 -11734357.07847  -9127510.57145  22141558.1094                   22141556.0354
 -22351629.05548 -17404247.97747  20668646.5394                   20668644.7154
 -11090152.75047  -8625701.30245  22494398.6024                   22494398.8674
 11  8 19  1 16  0.0000000  0  9G17G29G12G04G02G10G30G05G25
 -24142423.34445 -18799778.02042  24413985.6254                   24413986.3714
   4110978.57846   3216432.46043  24605335.8754                   24605336.0434
 -23521689.50048 -18317093.72946  20787047.4694                   20787044.3284
 -21539726.43446 -16770731.28844  23306566.9534                   23306565.7774
 -29159470.61748 -22709363.28946  20887692.3054                   20887688.3324
 -22760918.02047 -17697140.52846  21531971.8204                   21531970.1254
 -11823179.60947  -9196722.92045  22124655.8524                   22124654.2464
 -22430397.75448 -17465626.13947  20653657.0554                   20653655.1994
 -11191103.09447  -8704363.87045  22475188.8984                   22475189.3714
 11  8 19  1 16 30.0000000  0  9G17G29G12G04G02G10G30G05G25
 -24104236.03945 -18770021.62542  24421253.2034                   24421252.9104
   3998360.03546   3128677.82843  24583905.5084                   24583904.5434
 -23560526.49248 -18347356.33146  20779657.0784                   20779653.8754
 -21490184.78947 -16732127.46444  23315994.4844                   23315993.4064
 -29168809.60948 -22716640.42346  20885915.2504                   20885911.1994
 -22732790.67247 -17675223.12546  21537324.6724                   21537322.4734
 -11911481.01247  -9265529.18745  22107852.3524                   22107850.6884
 -22508639.11748 -17526593.39047  20638768.4224                   20638766.4694
 -11291625.17247  -8782692.72645  22456059.8914                   22456060.5514
 11  8 19  1 17  0.0000000  0  9G17G29G12G04G02G10G30G05G25
 -24065868.56645 -18740124.87942  24428553.7664                   24428554.0234
   3885661.61746   3040861.03043  24562459.5474                   24562459.0904
 -23598787.54747 -18377170.14846  20772376.1094                   20772373.2934
 -21440664.29746 -16693540.07244  23325418.0704                   23325416.5704
 -29177983.88747 -22723789.20346  20884169.5234                   20884165.1484
 -22704157.15247 -17652911.28245  21542772.7034                   21542770.7544
 -11999256.16447  -9333925.37245  22091149.2814                   22091147.4144
 -22586348.55948 -17587146.16447  20623980.7814                   20623978.8014
 -11391713.24247  -8860683.39145  22437013.6254                   22437014.3444
 11  8 19  1 17 30.0000000  0  9G17G29G12G04G02G10G30G05G25
 -24027319.47745 -18710086.55142  24435890.9454                   24435888.9804
   3772885.08247   2952983.26244  24540999.4064                   24540998.5204
 -23636470.48448 -18406533.47346  20765205.3204                   20765202.4654
 -21391164.10246 -16654968.49644  23334837.6174                   23334836.3634
 -29186993.18047 -22730809.42346  20882454.9774                   20882450.2274
 -22675018.48447 -17630205.82245  21548317.8134                   21548315.5904
 -12086501.38747  -9401908.65245  22074547.0164                   22074545.3484
 -22663522.72348 -17647281.83447  20609295.1024                   20609292.7774
 -11491363.45347  -8938332.87045  22418050.7114                   22418051.2504
 11  8 19  1 18  0.0000000  0  9G17G29G12G04G02G10G30G05G25
 -23988587.10945 -18679905.40642  24443261.3054                   24443259.6914
   3660032.52347   2865046.25344  24519524.4064                   24519523.4654
 -23673573.48848 -18435444.89946  20758145.2274                   20758141.9104
 -21341684.18446 -16616412.76744  23344253.2194                   23344252.7034
 -29195836.89848 -22737700.63446  20880772.0314                   20880768.1884
 -22645375.60248 -17607107.47145  21553958.7274                   21553957.0554
 -12173213.56647  -9469476.57045  22058046.1024                   22058044.6024
 -22740158.89148 -17706998.29647  20594711.7274                   20594709.6054
 -11590572.15647  -9015638.32945  22399172.2034                   22399172.5234
 11  8 19  1 18 30.0000000  0  9G17G29G12G04G02G10G30G05G25
 -23949669.37945 -18649579.78542  24450665.6564                   24450665.6914
   3547106.80147   2777052.27244  24498034.9454                   24498033.5904
 -23710093.75848 -18463902.25546  20751195.4384                   20751192.5084
 -21292222.65647 -16577871.37344  23353664.7894                   23353664.7894
 -29204513.82848 -22744461.87846  20879120.7664                   20879116.7074
 -22615228.47348 -17583616.21745  21559695.5474                   21559693.6054
 -12259388.48447  -9536625.82745  22041647.7114                   22041646.0274
 -22816253.58248 -17766292.82047  20580231.4384                   20580229.3674
 -11689334.83247  -9092596.22045  22380378.3674                   22380378.3134
 11  8 19  1 19  0.0000000  0  9G17G29G12G04G02G10G30G05G25
 -23910571.43046 -18619113.85643  24458107.9064                   24458105.8984
   3434103.23847   2688997.63444  24476531.2734                   24476530.0744
 -23746036.34048 -18491909.46546  20744355.6414                   20744352.8714
 -21242785.89547 -16539349.26244  23363073.0004                   23363072.4494
 -29213030.07448 -22751097.91146  20877500.3444                   20877496.1764
 -22584584.52348 -17559737.83045  21565526.9614                   21565524.7504
 -12345029.44547  -9603359.02245  22025350.5784                   22025349.1484
 -22891810.80148 -17825168.54247  20565853.3754                   20565851.2234
 -11787654.28548  -9169208.74845  22361668.6484                   22361668.9184
 11  8 19  1 19 30.0000000  0  9G17G29G12G04G02G10G30G05G25
 -23871287.57045 -18588503.02042  24465582.0314                   24465581.4924
   3321028.51247   2600887.48744  24455014.1564                   24455013.4184
 -23781395.10948 -18519461.74846  20737627.2974                   20737624.2504
 -21193368.71547 -16500842.44344  23372476.6334                   23372476.1214
 -29221380.93048 -22757605.07346  20875911.0004                   20875906.6414
 -22553440.35948 -17535469.65645  21571453.6484                   21571451.5904
 -12430128.72747  -9669670.14245  22009156.8364                   22009155.2894
 -22966823.08248 -17883619.63747  20551578.7194                   20551576.5944
 -11885522.44147  -9245469.63345  22343044.9144                   22343045.4454
 11  8 19  1 20  0.0000000  0  9G17G29G12G04G02G10G30G05G25
 -23831819.77346 -18557748.78942  24473092.6094                   24473091.3674
   3207881.41847   2512721.00744  24433482.5784                   24433482.1054
 -23816171.83248 -18546560.47946  20731009.5634                   20731006.4924
 -21143974.14147 -16462353.21244  23381875.6884                   23381875.0594
 -29229569.33248 -22763985.64746  20874352.9924                   20874348.7894
 -22521800.36348 -17510815.12145  21577474.5944                   21577472.2624
 -12514686.54347  -9735559.34145  21993066.1414                   21993064.5274
 -23041291.35248 -17941646.82847  20537407.6724                   20537405.8634
 -11982939.05947  -9321378.66845  22324507.0784                   22324507.2384
 11  8 19  1 20 30.0000000  0  9G17G29G12G04G02G10G30G05G25
 -23792171.25046 -18526853.74242  24480637.7194                   24480636.7344
   3094659.42646   2424496.16344  24411936.5314                   24411936.1724
 -23850369.42647 -18573207.95146  20724501.8524                   20724498.7734
 -21094606.02047 -16423884.55044  23391270.3914                   23391269.8594
 -29237599.25448 -22770242.72146  20872825.2584                   20872821.0164
 -22489669.95747 -17485778.43045  21583588.5474                   21583586.3874
 -12598704.02047  -9801027.50145  21977078.3134                   21977076.6564
 -23115217.12548 -17999251.28347  20523340.3054                   20523338.1134
 -12079904.87547  -9396936.42545  22306054.7344                   22306055.1604
 11  8 19  1 21  0.0000000  0  8G29G12G04G02G10G30G05G25
   2981364.22347   2336214.26544  24390377.8054                   24390376.1804
 -23883986.45748 -18599403.03046  20718104.6024                   20718101.7814
 -21045264.20347 -16385436.42744  23400659.6254                   23400659.1524
 -29245470.84848 -22776376.43546  20871327.1724                   20871323.0004
 -22457050.46548 -17460360.67845  21589795.5084                   21589794.0274
 -12682178.44547  -9866072.48245  21961193.2274                   21961191.8204
 -23188598.29348 -18056431.37647  20509376.1884                   20509374.1684
 -12176416.69147  -9472140.41245  22287689.4614                   22287689.9654
 11  8 19  1 21 30.0000000  0  8G29G12G04G02G10G30G05G25
   2867996.45746   2247875.75743  24368804.0784                   24368803.4304
 -23917022.69948 -18625145.54146  20711818.2344                   20711815.2344
 -20995949.69146 -16347009.56444  23410043.5234                   23410043.5164
 -29253184.81248 -22782387.31346  20869859.2344                   20869854.8094
 -22423944.12148 -17434563.53145  21596096.0314                   21596093.7194
 -12765108.09447  -9930692.97745  21945412.2034                   21945410.7304
 -23261433.55148 -18113186.08547  20495516.2114                   20495513.8714
 -12272472.32447  -9546988.93345  22269410.9064                   22269411.0594
 11  8 19  1 22  0.0000000  0  8G29G12G04G02G10G30G05G25
   2754569.27346   2159490.96843  24347219.8364                   24347219.2274
 -23949465.89148 -18650425.92646  20705644.1174                   20705641.0354
 -20946650.62546 -16308594.75144  23419425.4454                   23419425.0514
 -29260729.93048 -22788266.63146  20868423.1884                   20868419.5354
 -22390340.96548 -17408379.26045  21602490.1884                   21602488.3054
 -12847478.68447  -9994877.83845  21929737.9454                   21929736.0084
 -23333709.47748 -18169504.96347  20481762.6024                   20481760.1604
 -12368057.09848  -9621470.55246  22251221.5314                   22251221.7734
 11  8 19  1 22 30.0000000  0  8G29G12G04G02G10G30G05G25
   2641082.90646   2071060.02443  24325623.6414                   24325622.9104
 -23981315.93448 -18675244.12646  20699583.6884                   20699580.6604
 -20897368.39146 -16270193.07444  23428804.0704                   23428802.6564
 -29268107.37948 -22794015.28846  20867019.5704                   20867015.2424
 -22356243.89147 -17381810.12545  21608979.0004                   21608976.7154
 -12929289.00048 -10058626.10545  21914169.8984                   21914168.2194
 -23405424.99648 -18225387.15047  20468115.7114                   20468112.9844
 -12463169.29748  -9695583.94245  22233122.6484                   22233122.5314
 11  8 19  1 23  0.0000000  0  8G29G12G04G02G10G30G05G25
   2527538.16446   1982583.73243  24304016.1094                   24304016.1564
 -24012573.03548 -18699600.29746  20693635.0784                   20693632.2854
 -20848103.71546 -16231805.06043  23438178.6724                   23438176.9534
 -29275318.51248 -22799634.34746  20865647.2344                   20865643.0274
 -22321655.40248 -17354858.05545  21615561.0784                   21615558.8594
 -13010537.42248 -10121936.54045  21898708.5314                   21898706.8284
 -23476579.33648 -18280832.05047  20454575.3984                   20454572.9454
 -12557806.82447  -9769327.43945  22215113.4454                   22215113.5944
 11  8 19  1 23 30.0000000  0  8G29G12G04G02G10G30G05G25
   2413929.27046   1894057.24143  24282397.9534                   24282396.1374
 -24043243.53148 -18723499.35547  20687798.8834                   20687796.3204
 -20798863.87546 -16193436.36343  23447548.9304                   23447548.0744
 -29282370.55148 -22805129.43746  20864305.4064                   20864300.9804
 -22286584.56647 -17327530.12445  21622234.2274                   21622232.9064
 -13091228.77748 -10184812.90045  21883353.4614                   21883352.1914
 -23547177.75048 -18335843.76847  20441140.4694                   20441138.2664
 -12651973.97347  -9842704.42245  22197193.6954                   22197194.0274
 11  8 19  1 24  0.0000000  0  8G29G12G04G02G10G30G05G25
   2300254.84846   1805479.82643  24260765.9534                   24260764.1054
 -24073328.88348 -18746942.46646  20682074.0234                   20682070.8014
 -20749651.89546 -16155089.35444  23456913.3444                   23456912.3954
 -29289266.33648 -22810502.77546  20862993.2504                   20862988.6724
 -22251035.57048 -17299829.60845  21628999.2734                   21628997.5394
 -13171363.30148 -10247255.36545  21868104.8364                   21868102.9844
 -23617221.19548 -18390423.04647  20427812.0314                   20427809.9184
 -12745670.60247  -9915714.75645  22179363.8204                   22179364.1454
 11  8 19  1 24 30.0000000  0  8G29G12G04G02G10G30G05G25
   2186514.21546   1716850.81443  24239121.6334                   24239120.6994
 -24102831.52048 -18769931.51946  20676459.6334                   20676456.8094
 -20700469.75446 -16116765.65944  23466272.8134                   23466271.9804
 -29296008.34048 -22815756.29046  20861710.2584                   20861705.8404
 -22215012.51648 -17271759.67645  21635854.1094                   21635852.3874
 -13250940.83647 -10309263.82345  21852961.2584                   21852960.1914
 -23686709.42648 -18444569.68547  20414588.8914                   20414586.5824
 -12838895.97747  -9988357.87145  22161623.9064                   22161623.8984
 11  8 19  1 25  0.0000000  0  8G29G12G04G02G10G30G05G25
   2072710.83646   1628172.94143  24217466.0634                   24217464.2624
 -24131748.42248 -18792464.14646  20670956.6804                   20670954.1724
 -20651315.90647 -16078463.95844  23475625.8444                   23475625.1484
 -29302594.85948 -22820888.63546  20860456.8594                   20860452.3134
 -22178515.28548 -17243320.27945  21642799.2344                   21642797.2504
 -13329957.23048 -10370835.00345  21837925.4304                   21837923.4734
 -23755639.37948 -18498281.30547  20401471.7584                   20401469.6414
 -12931645.44948 -10060630.16245  22143974.0864                   22143974.6134
 11  8 19  1 25 30.0000000  0  8G29G12G04G02G10G30G05G25
   1958843.24246   1539444.98043  24195797.6564                   24195795.8834
 -24160081.73848 -18814542.03546  20665565.5394                   20665562.3014
 -20602193.03547 -16040186.43543  23484973.7894                   23484972.0664
 -29309029.23048 -22825902.43946  20859232.7814                   20859228.3954
 -22141548.93048 -17214515.33045  21649833.6804                   21649831.7074
 -13408413.00448 -10431969.34145  21822995.5234                   21822993.6254
 -23824012.11748 -18551558.73647  20388460.8364                   20388458.6214
 -13023919.09047 -10132531.66345  22126414.5704                   22126415.4924
 11  8 19  1 26  0.0000000  0  8G29G12G04G02G10G30G05G25
   1844909.45347   1450665.40043  24174117.1724                   24174116.3484
 -24187834.21948 -18836167.33646  20660284.1954                   20660281.1174
 -20553104.53147 -16001935.70844  23494315.4064                   23494315.0984
 -29315314.91048 -22830800.36846  20858036.2584                   20858032.2504
 -22104118.25448 -17185348.58245  21656956.5234                   21656954.4304
 -13486309.23447 -10492667.67245  21808172.4694                   21808170.4494
 -23891829.28148 -18604403.25647  20375555.3364                   20375552.9924
 -13115717.44947 -10204062.81645  22108946.1484                   22108946.6994
 11  8 19  1 26 30.0000000  0  8G29G12G04G02G10G30G05G25
   1730909.45747   1361834.30444  24152423.6094                   24152423.4774
 -24215006.45748 -18857340.49346  20655113.3914                   20655110.7114
 -20504052.10947 -15963713.04444  23503649.3914                   23503648.5084
 -29321453.58247 -22835583.75346  20856867.9774                   20856863.7774
 -22066226.41848 -17155822.46145  21664167.2814                   21664165.3634
 -13563645.14548 -10552929.38245  21793455.7894                   21793454.1454
 -23959090.69148 -18656814.71047  20362756.1094                   20362753.6724
 -13207039.22747 -10275222.60346  22091567.9844                   22091568.5044
 11  8 19  1 27  0.0000000  0  8G29G12G04G02G10G30G05G25
   1616842.72347   1272951.21944  24130717.4224                   24130715.7464
 -24241600.32848 -18878062.97646  20650052.8134                   20650050.0084
 -20455037.98447 -15925520.24144  23512976.2664                   23512975.8914
 -29327447.64548 -22840254.43246  20855727.6804                   20855723.5204
 -22027877.67648 -17125940.33245  21671465.0314                   21671462.5864
 -13640420.85248 -10612754.58445  21778845.9924                   21778844.1214
 -24025796.86748 -18708793.51147  20350062.2974                   20350059.9064
 -13297883.95747 -10346010.67346  22074280.9924                   22074281.8014
 11  8 19  1 27 30.0000000  0  8G29G12G04G02G10G30G05G25
   1502710.64147   1184017.16644  24108998.5314                   24108997.2774
 -24267615.19948 -18898334.29746  20645102.6254                   20645099.6174
 -20406062.02047 -15887357.22344  23522296.3834                   23522295.6214
 -29333297.34448 -22844812.64746  20854614.3914                   20854610.0314
 -21989073.92648 -17095703.63845  21678848.6804                   21678847.1214
 -13716634.13748 -10672141.52245  21764342.9924                   21764341.2424
 -24091945.92248 -18760338.20147  20337474.5864                   20337472.0394
 -13388248.88348 -10416424.86346  22057084.9534                   22057085.8674
 11  8 19  1 28  0.0000000  0  8G29G12G04G02G10G30G05G25
   1388508.94546   1095028.86544  24087266.7504                   24087266.2584
 -24293056.22748 -18918158.47446  20640261.2114                   20640258.0864
 -20357130.09847 -15849228.48244  23531607.8594                   23531607.1054
 -29339008.49648 -22849262.89146  20853527.6804                   20853523.1994
 -21949822.59448 -17065118.22145  21686318.3834                   21686316.1604
 -13792288.29348 -10731092.78945  21749946.3134                   21749944.7194
 -24157542.09448 -18811452.06647  20324992.0474                   20324989.8954
 -13478136.83248 -10486467.38446  22039979.8754                   22039980.4924
 11  8 19  1 28 30.0000000  0  8G29G12G04G02G10G30G05G25
   1274248.44946   1005994.78444  24065523.6724                   24065522.8204
 -24317913.82048 -18937528.03046  20635530.4924                   20635527.9924
 -20308232.89147 -15811126.80844  23540913.4144                   23540912.7114
 -29344572.33248 -22853598.35246  20852468.6254                   20852464.4414
 -21910116.65247 -17034178.52745  21693874.2034                   21693871.3634
 -13867372.23848 -10789599.72445  21735658.3524                   21735656.5354
 -24222574.81648 -18862126.88047  20312616.9844                   20312614.2234
 -13567536.11348 -10556129.13946  22022967.6484                   22022968.0984
 11  8 19  1 29  0.0000000  0  8G29G12G04G02G10G30G05G25
   1159925.92246    916912.35444  24043769.1414                   24043767.8134
 -24342191.65248 -18956445.82146  20630911.0704                   20630907.9264
 -20259375.00447 -15773055.78944  23550210.4774                   23550209.4694
 -29349993.61747 -22857822.72846  20851437.0164                   20851432.5634
 -21869962.32047 -17002889.43845  21701515.1644                   21701512.7344
 -13941888.28148 -10847664.14945  21721478.7034                   21721476.2974
 -24287047.00447 -18912364.92247  20300347.8914                   20300345.8634
 -13656448.57048 -10625411.52346  22006048.2814                   22006048.6804
 11  8 19  1 29 30.0000000  0  8G29G12G04G02G10G30G05G25
   1045543.29747    827783.04144  24022002.4534                   24022001.4344
 -24365889.36348 -18974911.56446  20626401.2974                   20626398.4534
 -20210556.00847 -15735015.07144  23559499.9694                   23559499.2034
 -29355272.14147 -22861935.84446  20850432.5474                   20850428.4144
 -21829361.29747 -16971252.28945  21709241.1024                   21709239.3954
 -14015834.06248 -10905284.20145  21707406.9774                   21707405.3834
 -24350956.74647 -18962164.68547  20288186.3674                   20288183.7464
 -13744871.11348 -10694312.17946  21989222.3754                   21989222.8874
 11  8 19  1 30  0.0000000  0  8G29G12G04G02G10G30G05G25
    931099.68046    738606.25944  24000224.3984                   24000223.3014
 -24389008.95748 -18992926.84147  20622001.5864                   20621998.6684
 -20161778.63746 -15697006.82644  23568781.8054                   23568781.5984
 -29360410.64548 -22865939.89546  20849454.9224                   20849450.5434
 -21788318.13748 -16939270.61645  21717051.5634                   21717049.1684
 -14089210.12948 -10962460.34245  21693444.2274                   21693442.4264
 -24414305.10948 -19011527.02447  20276131.6414                   20276129.2194
 -13832803.88748 -10762831.18646  21972489.2504                   21972489.2974
 11  8 19  1 30 30.0000000  0  8G29G12G04G02G10G30G05G25
   2392023.98846   1876988.86744  24278229.7114                   24278228.3484
 -22836125.99648 -17782888.18046  20917505.6724                   20917502.6604
 -18537620.75446 -14431429.27844  23877849.2664                   23877848.9344
 -27789985.35548 -21642231.86746  21148296.9384                   21148292.6174
 -20171412.33247 -15679344.03645  22024738.7734                   22024736.7114
 -12586588.39848  -9791586.22745  21979383.4774                   21979381.6374
 -22901665.11348 -17832846.46847  20563977.4774                   20563974.8794
 -12344817.61348  -9603361.32546  22255643.2974                   22255643.8524
 11  8 19  1 31  0.0000000  0  8G29G12G04G02G10G30G05G25
   2277467.68846   1787724.29344  24256429.9534                   24256429.4144
 -22858083.83648 -17799998.19446  20913327.5084                   20913324.2704
 -18488921.72746 -14393482.05443  23887116.6334                   23887116.5664
 -27794839.44148 -21646014.25746  21147372.8594                   21147368.6804
 -20129485.61348 -15646673.85945  22032716.4924                   22032714.3554
 -12658814.18448  -9847866.03145  21965639.3674                   21965637.1294
 -22963881.60248 -17881326.82447  20552137.7114                   20552135.4224
 -12431758.03548  -9671107.08146  22239099.2344                   22239099.7774
 11  8 19  1 31 30.0000000  0  8G29G12G04G02G10G30G05G25
   2162854.69546   1698415.48144  24234619.2584                   24234619.2774
 -22879462.74248 -17816657.09646  20909258.8914                   20909256.3714
 -18440264.49246 -14355567.39044  23896374.8364                   23896375.2114
 -27799554.46548 -21649688.30046  21146475.6804                   21146471.4024
 -20087122.82047 -15613663.87845  22040777.9384                   22040775.6174
 -12730464.49248  -9903697.42845  21952004.8364                   21952002.5634
 -23025532.87148 -17929366.74047  20540406.1334                   20540403.5824
 -12518201.10248  -9738465.28846  22222649.3134                   22222649.7234
 11  8 19  1 32  0.0000000  0  8G29G12G04G02G10G30G05G25
   2048188.50046   1609065.29244  24212798.7194                   24212798.6094
 -22900260.41848 -17832863.09346  20905301.3204                   20905298.4654
 -18391646.75846 -14317683.48544  23905626.9694                   23905626.9694
 -27804128.56648 -21653252.52546  21145605.3364                   21145600.7344
 -20044323.76647 -15580313.99745  22048922.9384                   22048920.3634
 -12801535.22348  -9959077.19145  21938480.0164                   21938478.7774
 -23086615.18748 -17976963.32647  20528782.4454                   20528780.5084
 -12604142.08248  -9805432.26046  22206295.4534                   22206295.3364
 11  8 19  1 32 30.0000000  0  8G29G12G04G02G10G30G05G25
   1933467.59846   1519672.45344  24190968.1884                   24190967.4144
 -22920479.63348 -17848618.34146  20901453.6334                   20901450.4344
 -18343071.96946 -14279833.05644  23914870.9844                   23914870.5314
 -27808564.96148 -21656709.44046  21144761.2274                   21144756.6024
 -20001093.72747 -15546628.24845  22057148.5164                   22057146.5824
 -12872027.62548 -10014006.31945  21925065.9614                   21925064.4844
 -23147130.54748 -18024118.12947  20517266.7274                   20517264.1484
 -12689581.71148  -9872008.56946  22190037.0004                   22190037.0784
 11  8 19  1 33  0.0000000  0  8G29G12G04G02G10G30G05G25
   1818693.28146   1430238.00644  24169126.7114                   24169126.5634
 -22940120.74248 -17863923.11246  20897716.4304                   20897713.5044
 -18294540.28546 -14242016.22844  23924106.5554                   23924105.0904
 -27812864.56648 -21660059.75046  21143943.0004                   21143938.3204
 -19957435.16047 -15512608.58145  22065456.6414                   22065455.1994
 -12941940.34047 -10068483.75345  21911761.9144                   21911760.0124
 -23207077.89848 -18070830.32847  20505858.9064                   20505856.8834
 -12774517.83648  -9938192.53346  22173873.8134                   22173874.0594
 11  8 19  1 33 30.0000000  0  8G29G12G04G02G10G30G05G25
   1703867.54346   1340763.40844  24147276.4304                   24147276.1414
 -22959182.84048 -17878776.69846  20894088.6174                   20894085.8204
 -18246051.12947 -14204232.52543  23933333.4304                   23933332.5314
 -27817026.69148 -21663302.95346  21143150.9224                   21143146.2274
 -19913349.39548 -15478256.07745  22073846.1644                   22073843.1844
 -13011270.75048 -10122507.43345  21898568.9534                   21898567.0664
 -23266455.30148 -18117098.40247  20494559.7814                   20494557.3014
 -12858947.37148 -10003981.75846  22157807.4614                   22157807.6804
 11  8 19  1 34  0.0000000  0  8G29G12G04G02G10G30G05G25
   1588992.32046   1251250.36544  24125416.9454                   24125415.5234
 -22977665.25448 -17893178.60646  20890571.7734                   20890568.6884
 -18197603.91447 -14166481.45743  23942551.7894                   23942552.1994
 -27821050.57448 -21666438.42846  21142384.9614                   21142380.6414
 -19868837.93047 -15443571.81845  22082316.3834                   22082314.9844
 -13080016.53148 -10176075.57245  21885486.9224                   21885485.0554
 -23325261.12148 -18162921.09147  20483369.2114                   20483367.1094
 -12942867.32448 -10069373.90346  22141838.0234                   22141838.2854
 11  8 19  1 34 30.0000000  0  8G29G12G04G02G10G30G05G25
   1474063.66047   1161695.59944  24103546.8204                   24103545.9494
 -22995573.79748 -17907133.30846  20887163.7814                   20887160.8164
 -18149204.27347 -14128767.49043  23951762.7114                   23951761.5824
 -27824942.87948 -21669471.37746  21141644.6804                   21141640.4454
 -19823908.74247 -15408562.06445  22090865.4144                   22090863.8554
 -13148181.77048 -10229191.33945  21872515.4924                   21872513.9924
 -23383499.75448 -18208301.81947  20472287.2814                   20472284.7934
 -13026281.09048 -10134371.62446  22125965.1884                   22125965.6214
 11  8 19  1 35  0.0000000  0  8G29G12G04G02G10G30G05G25
   1359083.52747   1072100.76944  24081666.3134                   24081666.0164
 -23012907.91048 -17920640.41846  20883865.3054                   20883862.4264
 -18100851.71546 -14091090.22743  23960963.9224                   23960963.2344
 -27828703.18748 -21672401.47946  21140929.1644                   21140924.6954
 -19778563.05947 -15373227.80745  22099495.6644                   22099494.0354
 -13215764.18048 -10281852.95745  21859655.2584                   21859653.3524
 -23441169.65248 -18253239.36647  20461313.2274                   20461310.3714
 -13109185.83248 -10198972.68846  22110188.7664                   22110188.8794
 11  8 19  1 35 30.0000000  0  8G29G12G04G02G10G30G05G25
   1244056.01647    982469.03044  24059777.2424                   24059775.6764
 -23029664.70348 -17933697.66146  20880676.4534                   20880673.5474
 -18052543.98447 -14053447.86744  23970156.5784                   23970155.6884
 -27832329.28948 -21675226.98246  21140238.6804                   21140234.1884
 -19732801.08247 -15337569.12945  22108203.5004                   22108200.3244
 -13282759.63347 -10334057.18845  21846906.3444                   21846904.5124
 -23498267.49648 -18297731.18147  20450447.0634                   20450444.8284
 -13191576.78948 -10263173.43046  22094510.3284                   22094510.5004
 11  8 19  1 36  0.0000000  0  8G29G12G04G02G10G30G05G25
   1128979.31646    892798.91544  24037879.1174                   24037877.5474
 -23045847.97348 -17946307.99746  20877597.1804                   20877594.1054
 -18004284.32447 -14015842.91843  23979340.8914                   23979339.2584
 -27835824.24648 -21677950.32046  21139574.2734                   21139569.1334
 -19686628.03147 -15301590.15645  22116989.6804                   22116988.4804
 -13349169.71148 -10385805.28546  21834269.2424                   21834267.3054
 -23554795.18048 -18341778.69847  20439690.6414                   20439688.1724
 -13273454.82448 -10326974.48446  22078929.6024                   22078929.4534
 11  8 19  1 36 30.0000000  0  8G29G12G04G02G10G30G05G25
   1013856.44947    803092.87844  24015972.0004                   24015970.7584
 -23061455.82048 -17958469.95746  20874626.8594                   20874624.0514
 -17956071.10547 -13978274.24943  23988515.2194                   23988514.3594
 -27839187.23448 -21680570.80546  21138933.7974                   21138929.1994
 -19640044.55147 -15265291.36145  22125854.3914                   22125851.8874
 -13414991.35248 -10437094.88246  21821743.3834                   21821741.6914
 -23610750.12148 -18385379.91947  20429042.7894                   20429040.4494
 -13354816.26648 -10390372.99546  22063446.8914                   22063447.2974
 11  8 19  1 37  0.0000000  0  8G29G12G04G02G10G30G05G25
    898691.20747    713353.78244  23994057.1484                   23994054.6914
 -23076486.73448 -17970182.37246  20871766.6484                   20871763.7664
 -17907902.29346 -13940740.08843  23997681.5474                   23997681.2734
 -27842416.64548 -21683087.22246  21138319.3674                   21138314.9844
 -19593050.56647 -15228672.70945  22134796.8754                   22134795.0554
 -13480220.84847 -10487923.05946  21809330.4614                   21809329.0274
 -23666129.28948 -18428532.49447  20418504.3594                   20418502.1684
 -13435656.70348 -10453365.52546  22048063.2734                   22048063.7504
 11  8 19  1 37 30.0000000  0  8G29G12G04G02G10G30G05G25
    783485.63346    623583.27944  23972134.0704                   23972132.8794
 -23090939.28548 -17981444.08946  20869016.2734                   20869013.5394
 -17859776.84046 -13903239.72343  24006839.6804                   24006838.6604
 -27845511.35548 -21685498.67746  21137730.1954                   21137726.0004
 -19545647.69147 -15191735.39445  22143817.8054                   22143815.3714
 -13544855.69947 -10538287.86445  21797031.2584                   21797029.3094
 -23720930.87948 -18471235.00047  20408076.1254                   20408073.3674
 -13515972.96148 -10515949.61846  22032779.7114                   22032780.0274
 11  8 19  1 38  0.0000000  0  8G29G12G04G02G10G30G05G25
    668235.97347    533778.39044  23950202.9614                   23950201.4264
 -23104819.64148 -17992259.94446  20866374.5234                   20866372.4344
 -17811700.64547 -13865777.82043  24015988.5004                   24015987.1564
 -27848477.68747 -21687810.10546  21137166.2274                   21137161.0234
 -19497843.89547 -15154485.68245  22152914.7034                   22152911.7344
 -13608900.14847 -10588192.61645  21784843.6804                   21784841.7854
 -23775159.44948 -18513491.01147  20397756.8054                   20397754.3364
 -13595768.66848 -10578128.07046  22017595.2114                   22017595.1294
 11  8 19  1 38 30.0000000  0  8G29G12G04G02G10G30G05G25
    552935.01247    443933.53244  23928261.5554                   23928260.4224
 -23118136.68748 -18002636.85946  20863840.6254                   20863837.9264
 -17763681.98846 -13828360.66843  24025125.8364                   24025124.6334
 -27851324.13748 -21690028.10746  21136624.3054                   21136619.8244
 -19449649.85547 -15116931.90545  22162085.4614                   22162083.7664
 -13672361.27747 -10637642.82845  21772767.5234                   21772765.6294
 -23828822.75448 -18555306.53747  20387544.8984                   20387542.5314
 -13675050.09848 -10639905.79346  22002508.0704                   22002508.4104
 11  8 19  1 39  0.0000000  0  8G29G12G04G02G10G30G05G25
    437593.88346    354057.40644  23906312.4304                   23906310.9414
 -23130880.95748 -18012567.45346  20861415.5944                   20861413.1724
 -17715711.51246 -13790981.12743  24034253.7814                   24034252.9414
 -27854041.54348 -21692145.57046  21136107.1414                   21136102.9454
 -19401058.04747 -15079068.17945  22171332.0394                   22171329.4264
 -13735227.96548 -10686629.83546  21760804.4384                   21760802.3164
 -23881910.51648 -18596673.59247  20377442.5084                   20377440.3284
 -13753805.53548 -10701273.66246  21987521.3984                   21987522.1294
 11  8 19  1 39 30.0000000  0  8G29G12G04G02G10G30G05G25
    322210.06646    264147.97144  23884355.3984                   23884354.6054
 -23143056.93048 -18022055.22246  20859098.7894                   20859095.9264
 -17667793.21546 -13753642.25543  24043372.0314                   24043371.9024
 -27856634.13748 -21694165.78446  21135613.7584                   21135609.2974
 -19352074.93447 -15040899.52745  22180653.2974                   22180651.4694
 -13797502.94547 -10735155.78346  21748953.3984                   21748951.8324
 -23934425.96548 -18637594.69847  20367449.1094                   20367446.8014
 -13832036.98848 -10762233.24146  21972634.6024                   21972634.8324
 11  8 19  1 40  0.0000000  0  8G29G12G04G02G10G30G05G25
    206786.82447    174207.81544  23862391.3444                   23862390.2854
 -23154662.87548 -18031098.81346  20856890.1804                   20856887.4534
 -17619925.22346 -13716342.53543  24052481.2424                   24052481.0044
 -27859100.55548 -21696087.66146  21135144.6334                   21135139.8674
 -19302700.93047 -15002426.29645  22190048.6094                   22190046.1884
 -13859183.10247 -10783218.23546  21737216.7194                   21737214.2344
 -23986366.50048 -18678067.81547  20357565.0474                   20357562.5124
 -13909740.63348 -10822781.51146  21957848.3914                   21957848.3554
 11  8 19  1 40 30.0000000  0  8G29G12G04G02G10G30G05G25
     91324.62947     84237.30444  23840419.8524                   23840418.6174
 -23165699.91048 -18039699.08946  20854789.9304                   20854787.1804
 -17572108.40246 -13679082.70643  24061579.7664                   24061580.4184
 -27861441.87148 -21697912.06446  21134699.0864                   21134694.4224
 -19252939.05547 -14963650.81445  22199518.7194                   22199516.8324
 -13920267.84847 -10830816.69846  21725592.6954                   21725590.7584
 -24037731.86348 -18718092.74647  20347790.7034                   20347788.3324
 -13986915.10248 -10882917.45146  21943162.3364                   21943162.6174
 11  8 19  1 41  0.0000000  0  8G29G12G04G02G10G30G05G25
    -24175.13746     -5762.49544  23818440.2664                   23818439.2274
 -23176169.21148 -18047856.98346  20852797.7424                   20852795.0394
 -17524343.37146 -13641863.22943  24070670.1884                   24070669.6764
 -27863658.88748 -21699639.60946  21134277.1414                   21134272.4064
 -19202792.51647 -14924575.55445  22209060.4454                   22209058.3554
 -13980756.60548 -10877950.78246  21714081.8914                   21714080.0044
 -24088522.21148 -18757669.61647  20338125.7664                   20338122.9184
 -14063559.28948 -10942640.17246  21928577.3674                   21928577.5354
 11  8 19  1 41 30.0000000  0  8G29G12G04G02G10G30G05G25
   -139711.59447    -95790.88044  23796455.4144                   23796452.9964
 -23186071.86348 -18055573.33846  20850913.2734                   20850910.3754
 -17476631.00846 -13604684.81743  24079749.3984                   24079749.0314
 -27865752.53948 -21701271.03846  21133878.5084                   21133875.1024
 -19152264.25447 -14885202.93045  22218676.1094                   22218674.1844
 -14040648.85247 -10924620.04946  21702684.4144                   21702682.9304
 -24138737.30148 -18796798.23847  20328569.9304                   20328567.3834
 -14139671.69948 -11001948.52946  21914093.9534                   21914094.1054
 11  8 19  1 42  0.0000000  0  8G29G12G04G02G10G30G05G25
   -255284.77347   -185847.90944  23774461.9304                   23774461.1024
 -23195409.50848 -18062849.42246  20849136.2814                   20849133.7194
 -17428972.45746 -13567548.25544  24088819.0314                   24088818.4144
 -27867724.19948 -21702807.41846  21133503.1724                   21133499.1054
 -19101357.70747 -14845535.47845  22228363.6564                   22228360.7464
 -14099944.39548 -10970824.32846  21691401.0864                   21691399.1054
 -24188377.89148 -18835479.19447  20319123.6174                   20319121.1994
 -14215251.55148 -11060841.89746  21899711.2344                   21899712.0044
 11  8 19  1 42 30.0000000  0  8G29G12G04G02G10G30G05G25
   -370894.03947   -275933.01944  23752461.8364                   23752461.2544
 -23204183.84048 -18069686.56146  20847466.3204                   20847464.2544
 -17381368.67247 -13530454.45743  24097877.5864                   24097877.0944
 -27869575.78948 -21704250.21846  21133151.1804                   21133146.8014
 -19050076.56247 -14805576.15645  22238121.3674                   22238119.6374
 -14158643.34448 -11016563.74745  21680231.1954                   21680229.1174
 -24237444.51648 -18873712.90947  20309786.4844                   20309784.1094
 -14290298.18748 -11119319.76646  21885430.8204                   21885430.8954
 11  8 19  1 43  0.0000000  0  8G29G12G04G02G10G30G05G25
   -486534.69547   -366042.63844  23730456.8284                   23730455.2774
 -23212391.84848 -18076082.41546  20845904.7034                   20845902.0824
 -17333816.50846 -13493400.82543  24106926.3754                   24106925.6914
 -27871304.15248 -21705597.01146  21132821.9534                   21132817.9024
 -18998419.91847 -14765324.23345  22247951.5474                   22247949.6884
 -14216741.24648 -11061834.83945  21669175.3204                   21669173.5634
 -24285933.40648 -18911496.44547  20300559.4694                   20300556.8714
 -14364806.43448 -11177378.11946  21871252.0634                   21871252.0594
 11  8 19  1 43 30.0000000  0  8G29G12G04G02G10G30G05G25
   -602206.71147   -456176.65144  23708445.5554                   23708442.6484
 -23220035.80548 -18082038.74146  20844450.1644                   20844447.7274
 -17286317.44946 -13456388.57044  24115964.5474                   24115964.8094
 -27872910.62548 -21706848.80846  21132516.6334                   21132512.3874
 -18946391.68747 -14724782.74945  22257852.9144                   22257849.7154
 -14274238.51247 -11106637.85245  21658234.2034                   21658231.8554
 -24333845.50448 -18948830.52647  20291442.1174                   20291439.5634
 -14438775.93048 -11235016.65246  21857176.3674                   21857175.8794
 11  8 19  1 44  0.0000000  0  8G29G12G04G02G10G30G05G25
   -717910.97747   -546335.75644  23686426.5784                   23686426.1524
 -23227118.45748 -18087557.69546  20843102.6644                   20843099.6484
 -17238873.91046 -13419419.63244  24124993.3594                   24124992.8834
 -27874398.37948 -21708008.12046  21132233.3204                   21132229.3874
 -18893996.59047 -14683955.42345  22267823.1564                   22267821.7234
 -14331136.38748 -11150973.86146  21647406.3444                   21647404.6564
 -24381182.60248 -18985716.55547  20282433.8984                   20282431.4064
 -14512207.23048 -11292235.82946  21843202.3984                   21843202.6484
 11  8 19  1 44 30.0000000  0  8G29G12G04G02G10G30G05G25
   -833643.81247   -636517.21444  23664403.5164                   23664402.5824
 -23233638.71148 -18092638.41146  20841861.4384                   20841858.3874
 -17191483.86747 -13382492.25344  24134012.4614                   24134011.0314
 -27875765.58247 -21709073.46946  21131973.5704                   21131969.2344
 -18841235.09447 -14642842.56045  22277862.8054                   22277860.4064
 -14387431.84848 -11194840.44245  21636694.2424                   21636691.7384
 -24427942.35548 -19022152.70647  20273536.1724                   20273533.5744
 -14585096.52048 -11349032.64146  21829331.9384                   21829331.9144
 11  8 19  1 45  0.0000000  0  8G29G12G04G02G10G30G05G25
   -949403.99247   -726719.94144  23642375.3594                   23642374.0204
 -23239597.52348 -18097281.65546  20840727.5784                   20840725.1214
 -17144147.81246 -13345606.99444  24143019.1884                   24143018.6914
 -27877012.98048 -21710045.47846  21131736.1564                   21131731.4964
 -18788110.02047 -14601446.39745  22287972.7034                   22287970.6954
 -14443124.37148 -11238237.18846  21626095.8134                   21626094.0434
 -24474124.46948 -19058138.75247  20264748.0864                   20264745.5204
 -14657442.49648 -11405406.11046  21815565.2424                   21815565.2664
 11  8 19  1 45 30.0000000  0  8G29G12G04G02G10G30G05G25
  -1065190.65247   -816943.23844  23620341.6414                   23620340.5514
 -23244995.80148 -18101488.11146  20839700.4454                   20839698.0394
 -17096866.37546 -13308764.27243  24152016.1254                   24152015.6254
 -27878141.15248 -21710924.56646  21131521.2274                   21131516.7854
 -18734624.11347 -14559769.07345  22298150.1564                   22298147.8674
 -14498213.43748 -11281163.73845  21615612.8674                   21615611.0124
 -24519728.94148 -19093674.68647  20256069.5394                   20256067.0004
 -14729243.86348 -11461355.19646  21801901.8754                   21801902.3204
 11  8 19  1 46  0.0000000  0  8G29G12G04G02G10G30G05G25
  -1181001.89547   -907185.73844  23598303.8284                   23598302.4774
 -23249834.45748 -18105258.49446  20838779.5634                   20838776.5744
 -17049639.18046 -13271963.80143  24161002.6644                   24161002.3484
 -27879150.47748 -21711711.06546  21131328.9614                   21131325.2624
 -18680779.69146 -14517812.41345  22308396.5864                   22308395.1094
 -14552698.02348 -11323619.25145  21605244.6644                   21605242.5944
 -24564755.39148 -19128760.20347  20247500.9534                   20247498.4804
 -14800498.78948 -11516878.49946  21788342.3914                   21788343.1724
 11  8 19  1 46 30.0000000  0  8G29G12G04G02G10G30G05G25
  -1296841.75847   -997450.53044  23576259.9614                   23576258.2114
 -23254119.35248 -18108597.37646  20837964.4694                   20837961.6134
 -17002471.50846 -13235209.79943  24169979.4224                   24169977.9844
 -27880046.72348 -21712409.44246  21131158.8914                   21131154.0744
 -18626584.78147 -14475582.57345  22318709.7894                   22318706.7704
 -14606582.48848 -11365607.14046  21594990.9224                   21594989.0664
 -24609208.75448 -19163399.15647  20239042.2114                   20239039.7934
 -14871210.87548 -11571978.80546  21774886.1484                   21774886.5984
 11  8 19  1 47  0.0000000  0  8G29G12G04G02G10G30G05G25
  -1412707.09847  -1087735.15144  23554211.3834                   23554210.1374
 -23257849.80948 -18111504.22546  20837254.3594                   20837251.9224
 -16955362.27346 -13198501.33443  24178944.0004                   24178942.8754
 -27880828.22748 -21713018.42246  21131009.9144                   21131005.7854
 -18572040.17247 -14433080.33645  22329089.0634                   22329087.0984
 -14659864.44148 -11407125.53645  21584851.7034                   21584849.6724
 -24653087.66048 -19197590.50047  20230692.2274                   20230689.7304
 -14941376.99648 -11626653.68746  21761533.9774                   21761534.4104
 11  8 19  1 47 30.0000000  0  8G29G12G04G02G10G30G05G25
  -1528593.36747  -1178036.08044  23532159.0084                   23532157.7194
 -23261023.69948 -18113977.38246  20836649.9384                   20836647.5704
 -16908307.86346 -13161835.50842  24187897.7194                   24187895.7934
 -27881492.53548 -21713536.05846  21130883.7034                   21130879.1414
 -18517145.47747 -14390305.25945  22339535.5704                   22339532.8484
 -14712540.11348 -11448171.52246  21574827.6414                   21574825.8324
 -24696388.45748 -19231331.35847  20222452.3444                   20222449.7304
 -15010992.60548 -11680899.59546  21748286.5164                   21748286.9414
 11  8 19  1 48  0.0000000  0  8G29G12G04G02G10G30G05G25
  -1644503.75847  -1268355.78944  23510102.1954                   23510100.8404
 -23263646.45748 -18116021.08746  20836151.3914                   20836148.7774
 -16861313.82046 -13125216.84442  24196838.8834                   24196839.4884
 -27882044.78948 -21713966.37746  21130778.6254                   21130773.8984
 -18461908.10247 -14347263.16245  22350046.6724                   22350044.7424
 -14764613.54348 -11488748.23646  21564918.6884                   21564916.5704
 -24739115.67248 -19264625.26347  20214321.5474                   20214318.9224
 -15080060.96948 -11734719.08646  21735143.4454                   21735143.5474
 11  8 19  1 48 30.0000000  0  8G29G12G04G02G10G30G05G25
  -1760432.96947  -1358690.16044  23488040.8284                   23488040.1254
 -23265715.56648 -18117633.38046  20835757.7114                   20835754.9144
 -16814376.04346 -13088641.92642  24205772.0004                   24205771.8094
 -27882481.72748 -21714306.84546  21130695.0704                   21130690.7894
 -18406326.62147 -14303952.97045  22360623.5084                   22360621.6724
 -14816080.23848 -11528852.14646  21555124.8444                   21555122.7624
 -24781265.20348 -19297469.03347  20206300.4774                   20206298.3954
 -15148576.68748 -11788107.93646  21722105.2424                   21722105.6054
 11  8 19  1 49  0.0000000  0  9G26G29G12G04G02G10G30G05G25
   6120184.66456   4780221.01153  24732474.3834                   24732473.1524
  -1876384.63347  -1449042.03944  23465976.4064                   23465975.3954
 -23267236.60548 -18118818.59946  20835468.1174                   20835465.4844
 -16767499.37146 -13052114.67642  24214692.2734                   24214693.2034
 -27882808.27748 -21714561.28346  21130633.3674                   21130628.4414
 -18350408.68047 -14260380.57645  22371264.0554                   22371262.1484
 -14866944.43448 -11568486.58745  21545445.5784                   21545443.7074
 -24822842.23848 -19329866.70747  20198388.7034                   20198386.1914
 -15216543.23448 -11841068.87946  21709171.5704                   21709171.9844
 11  8 19  1 49 30.0000000  0  9G26G29G12G04G02G10G30G05G25
   5994943.47346   4682630.61643  24708642.5004                   24708640.9104
  -1992363.17647  -1539414.87644  23443906.5164                   23443905.0744
 -23268217.18048 -18119582.68846  20835281.7664                   20835279.3204
 -16720690.28946 -13015640.13643  24223599.6724                   24223599.5044
 -27883031.30948 -21714735.06746  21130590.6174                   21130586.1684
 -18294163.18047 -14216552.92545  22381967.0394                   22381965.2734
 -14917211.77348 -11607655.93646  21535879.9454                   21535878.3134
 -24863852.75048 -19361822.93347  20190584.8134                   20190582.5744
 -15283965.44948 -11893605.65046  21696341.6644                   21696341.8094
 11  8 19  1 50  0.0000000  0  9G26G29G12G04G02G10G30G05G25
   5869558.64146   4584928.23243  24684782.2034                   24684781.3634
  -2108370.26247  -1629809.94544  23421831.3594                   23421829.8324
 -23268661.13348 -18119928.62146  20835196.8834                   20835194.3984
 -16673951.61346 -12979220.40242  24232493.5634                   24232493.3834
 -27883153.93048 -21714830.60146  21130567.4384                   21130562.5514
 -18237595.61747 -14172474.34045  22392732.1724                   22392729.8554
 -14966884.53948 -11646361.97545  21526427.4924                   21526425.8444
 -24904299.74248 -19393340.06247  20182888.0554                   20182885.6054
 -15350844.81248 -11945719.41946  21683614.8984                   21683615.1644
 11  8 19  1 50 30.0000000  0  9G26G29G12G04G02G10G30G05G25
   5744036.77346   4487119.14143  24660894.7894                   24660895.2704
  -2224401.06647  -1720223.49445  23399751.4924                   23399750.5474
 -23268565.79348 -18119854.33246  20835214.9454                   20835212.3284
 -16627280.10946 -12942853.05142  24241375.3524                   24241374.8594
 -27883173.10948 -21714845.53046  21130563.9454                   21130558.9534
 -18180705.24647 -14128144.19145  22403557.7504                   22403555.6724
 -15015958.74648 -11684601.60646  21517088.9304                   21517087.5474
 -24944179.50448 -19424415.18047  20175299.4064                   20175296.3634
 -15417176.47748 -11997406.41446  21670992.2814                   21670992.2464
 11  8 19  1 51  0.0000000  0  9G26G29G12G04G02G10G30G05G25
   5618386.71146   4389210.13343  24636984.5164                   24636985.2894
  -2340447.73847  -1810649.45045  23377668.3914                   23377667.5944
 -23267926.64148 -18119356.28546  20835336.6884                   20835334.2894
 -16580670.11346 -12906533.59343  24250245.5864                   24250244.5044
 -27883083.60948 -21714775.77646  21130580.8984                   21130575.8284
 -18123488.73047 -14083559.90745  22414446.1414                   22414443.5554
 -15064428.05148 -11722369.87546  21507866.0084                   21507863.9614
 -24983486.40248 -19455043.92347  20167819.1024                   20167816.9964
 -15482953.34848 -12048661.10546  21658475.4614                   21658475.6804
 11  8 19  1 51 30.0000000  0  9G26G29G12G04G02G10G30G05G25
   5492613.52346   4291205.15544  24613051.5944                   24613051.4224
  -2456507.02747  -1901085.18845  23355583.2194                   23355581.2974
 -23266742.51648 -18118433.58546  20835562.3834                   20835559.6054
 -16534119.42246 -12870260.35743  24259104.0234                   24259102.7974
 -27882883.34848 -21714619.71546  21130619.0474                   21130614.0984
 -18065946.48447 -14038721.83745  22425395.6414                   22425394.1094
 -15112289.99648 -11759664.86246  21498757.6644                   21498755.9884
 -25022218.34048 -19485224.64247  20160448.8914                   20160446.2664
 -15548172.05548 -12099480.84646  21646064.5234                   21646065.0554
 11  8 19  1 52  0.0000000  0  9G26G29G12G04G02G10G30G05G25
   5366719.41047   4193105.99144  24589093.8524                   24589094.2114
  -2572578.53147  -1991530.45445  23333495.5314                   23333493.7894
 -23265016.09848 -18117088.33846  20835890.6804                   20835887.7034
 -16487629.32846 -12834034.30743  24267950.7034                   24267949.9964
 -27882574.16048 -21714378.75046  21130677.5394                   21130673.0234
 -18008082.31247 -13993632.92644  22436407.1484                   22436404.4264
 -15159545.28548 -11796487.13946  21489765.4384                   21489763.7464
 -25060376.61348 -19514958.34747  20153187.4064                   20153184.9694
 -15612832.48448 -12149865.57246  21633759.8984                   21633760.3054
 11  8 19  1 52 30.0000000  0  9G26G29G12G04G02G10G30G05G25
   5240704.26646   4094912.49544  24565114.4144                   24565113.9384
  -2688663.68747  -2081986.37845  23311405.1334                   23311403.7384
 -23262751.19148 -18115323.46846  20836321.2974                   20836318.6334
 -16441202.79347 -12797857.75143  24276785.1024                   24276784.7544
 -27882159.31248 -21714055.47346  21130756.1954                   21130751.7934
 -17949901.87946 -13948297.54244  22447478.4534                   22447476.4734
 -15206196.44148 -11832838.65846  21480888.0314                   21480886.2464
 -25097964.24648 -19544247.40247  20146034.8364                   20146031.8984
 -15676936.32848 -12199816.59746  21621561.5234                   21621561.6994
 11  8 19  1 53  0.0000000  0  9G26G29G12G04G02G10G30G05G25
   5114576.93046   3996631.62644  24541112.7974                   24541112.6454
  -2804755.30547  -2172447.31844  23289313.4384                   23289311.8714
 -23259943.67648 -18113135.80146  20836856.3674                   20836853.2194
 -16394834.23447 -12761726.39643  24285608.7814                   24285608.1484
 -27881633.57448 -21713645.77846  21130856.2424                   21130852.0234
 -17891402.12946 -13902713.35244  22458610.4694                   22458608.3674
 -15252237.38348 -11868714.67046  21472126.6884                   21472124.7664
 -25134975.82848 -19573087.57747  20138991.9384                   20138989.1134
 -15740476.75848 -12249328.59446  21609470.3134                   21609470.7584
 11  8 19  1 53 30.0000000  0  9G26G29G12G04G02G10G30G05G25
   4988337.51246   3898263.35544  24517090.3984                   24517089.6684
  -2920855.28547  -2262914.81744  23267219.4614                   23267218.4774
 -23256597.92648 -18110528.73246  20837492.6644                   20837489.8204
 -16348527.25446 -12725643.06244  24294420.4224                   24294420.1454
 -27881000.51648 -21713152.45846  21130976.6564                   21130972.0234
 -17832589.30946 -13856885.18944  22469801.6954                   22469799.9344
 -15297671.18048 -11904117.59146  21463481.0634                   21463479.2194
 -25171414.96148 -19601481.69047  20132057.8284                   20132055.4844
 -15803455.83248 -12298403.16446  21597486.0394                   21597486.0944
 11  8 19  1 54  0.0000000  0  9G26G29G12G04G02G10G30G05G25
   4861988.70346   3799809.90743  24493046.8204                   24493046.2424
  -3036962.44546  -2353387.90544  23245125.4534                   23245124.2304
 -23252715.64148 -18107503.58346  20838231.6174                   20838228.7504
 -16302282.05946 -12689607.85444  24303221.2734                   24303220.1644
 -27880261.02748 -21712576.21346  21131117.3204                   21131112.6684
 -17773466.31246 -13810815.34144  22481053.3134                   22481050.6914
 -15342497.94548 -11939047.51246  21454950.9144                   21454948.8674
 -25207282.00048 -19629430.01347  20125231.9304                   20125229.8364
 -15865872.81248 -12347039.75446  21585608.0234                   21585608.4144
 11  8 19  1 54 30.0000000  0  9G26G29G12G04G02G10G30G05G25
   6310962.96546   4928880.87643  24768777.0474                   24768776.2544
  -1577646.02046  -1216258.23144  23522823.7034                   23522823.2344
 -21672872.60948 -16876457.07246  21138865.6414                   21138863.0864
 -14680674.94546 -11426017.88244  24611802.2664                   24611801.9144
 -26303989.85948 -20484312.93446  21431071.9774                   21431067.4614
 -16138612.68746 -12536903.42444  22792155.1644                   22792153.2854
 -13811290.42648 -10745898.76346  21746329.9694                   21746328.0084
 -23667150.70348 -18429327.68447  20418309.4694                   20418307.0234
 -14352299.18448 -11167631.70746  21873631.4924                   21873631.8404
 11  8 19  1 55  0.0000000  0  9G26G29G12G04G02G10G30G05G25
   6184413.16446   4830270.66643  24744696.3524                   24744694.4494
  -1693754.34447  -1306732.20644  23500729.6644                   23500727.7894
 -21667912.44148 -16872592.01946  21139809.4844                   21139807.0594
 -14634544.96946 -11390072.46044  24620580.8524                   24620580.2464
 -26303029.76648 -20483564.80346  21431255.0864                   21431250.3364
 -16078868.93746 -12490349.87444  22803523.8914                   22803522.4064
 -13854893.58248 -10779875.20346  21738032.5704                   21738030.2114
 -23701865.49248 -18456378.14647  20411703.3284                   20411701.0944
 -14413580.03548 -11215382.99346  21861970.5394                   21861970.3324
 11  8 19  1 55 30.0000000  0  9G26G29G12G04G02G10G30G05G25
   6057758.85946   4731579.14443  24720594.9694                   24720592.9614
  -1809869.84047  -1397211.80844  23478633.3054                   23478631.7734
 -21662424.55148 -16868315.74946  21140853.8134                   21140851.0044
 -14588481.53546 -11354178.87044  24629345.7814                   24629346.1334
 -26301968.91847 -20482738.15046  21431456.7974                   21431451.8094
 -16018827.69146 -12443564.53744  22814949.1254                   22814947.6884
 -13897893.37948 -10813381.51346  21729850.0474                   21729848.0664
 -23736013.64548 -18482987.08047  20405205.3984                   20405202.9534
 -14474300.02748 -11262697.24046  21850415.5554                   21850415.8874
 11  8 19  1 56  0.0000000  0  9G26G29G12G04G02G10G30G05G25
   5931011.34446   4632814.88543  24696474.4844                   24696473.3094
  -1925982.42647  -1487689.14044  23456537.8524                   23456535.8754
 -21656401.60548 -16863622.54546  21141999.7974                   21141997.4024
 -14542476.39847 -11318330.71443  24638101.1884                   24638100.3324
 -26300799.06647 -20481826.57246  21431679.0164                   21431675.2734
 -15958483.21147 -12396542.89544  22826432.7894                   22826430.8594
 -13940281.53948 -10846411.23346  21721783.4384                   21721781.5354
 -23769587.23448 -18509148.31047  20398816.4384                   20398813.5204
 -14534449.83248 -11309567.19946  21838969.6414                   21838969.8444
 11  8 19  1 56 30.0000000  0  9G26G29G12G04G02G10G30G05G25
   5804172.29746   4533979.42543  24672337.6884                   24672336.6884
  -2042092.30547  -1578164.36544  23434443.1334                   23434441.4804
 -21649846.77748 -16858514.90346  21143247.4224                   21143244.8014
 -14496531.32847 -11282529.31443  24646843.9534                   24646843.0864
 -26299522.54347 -20480831.85946  21431922.4924                   21431917.4884
 -15897839.92647 -12349288.40344  22837972.9774                   22837971.1844
 -13982059.48848 -10878965.46146  21713833.0474                   21713831.7114
 -23802588.00848 -18534863.17647  20392536.7504                   20392533.8554
 -14594030.17248 -11355993.42046  21827631.7194                   21827631.8554
 11  8 19  1 57  0.0000000  0  9G26G29G12G04G02G10G30G05G25
   5677242.28946   4435073.11943  24648183.7814                   24648182.3524
  -2158200.51247  -1668638.28444  23412348.1334                   23412347.0274
 -21642763.99248 -16852995.86846  21144594.9454                   21144592.3754
 -14450648.99247 -11246776.91243  24655575.5004                   24655574.5514
 -26298142.03948 -20479756.12746  21432184.6724                   21432180.4064
 -15836903.42647 -12301805.42945  22849568.9774                   22849567.1764
 -14023229.75448 -10911046.17646  21705998.7504                   21705996.9224
 -23835019.07848 -18560134.12647  20386364.9454                   20386362.5744
 -14653042.62948 -11401977.14046  21816402.2894                   21816402.0164
 11  8 19  1 57 30.0000000  0  9G26G29G12G04G02G10G30G05G25
   5550226.19946   4336099.50143  24624013.0474                   24624011.9184
  -2274303.76247  -1759108.31644  23390254.3754                   23390253.1374
 -21635152.89548 -16847065.14946  21146043.3524                   21146040.8914
 -14404827.48846 -11211071.87743  24664293.5084                   24664294.1294
 -26296656.27748 -20478598.37346  21432467.6414                   21432463.3134
 -15775674.13747 -12254094.27444  22861219.8674                   22861218.1254
 -14063790.38348 -10942651.85946  21698279.9924                   21698278.6764
 -23866879.04748 -18584960.06547  20380302.5704                   20380300.0784
 -14711484.35548 -11447516.13146  21805280.9844                   21805281.0274
 11  8 19  1 58  0.0000000  0  9G26G29G12G04G02G10G30G05G25
   5423122.90646   4237058.04742  24599826.0864                   24599824.6954
  -2390404.98846  -1849576.78045  23368161.5784                   23368159.6374
 -21627020.03548 -16840727.86146  21147591.2424                   21147587.9924
 -14359071.25846 -11175417.64143  24673001.6254                   24673000.7344
 -26295070.23047 -20477362.49246  21432769.3284                   21432764.9384
 -15714159.24246 -12206160.60544  22872926.0164                   22872924.1134
 -14103746.03148 -10973786.13646  21690677.1414                   21690675.5354
 -23898172.98047 -18609344.93447  20374347.2894                   20374344.9734
 -14769359.08247 -11492613.30946  21794267.6024                   21794267.9104
 11  8 19  1 58 30.0000000  0  9G26G29G12G04G02G10G30G05G25
   5295939.07046   4137953.82543  24575624.0234                   24575622.2304
  -2506498.89146  -1940039.51145  23346069.6024                   23346067.8204
 -21618363.07048 -16833982.19046  21149238.1954                   21149235.5984
 -14313376.98046 -11139811.77342  24681697.0474                   24681696.1604
 -26293380.27747 -20476045.65246  21433090.6724                   21433086.2934
 -15652358.16046 -12158003.96944  22884686.6954                   22884684.4844
 -14143092.99648 -11004446.11346  21683189.5394                   21683187.6724
 -23928897.72748 -18633286.28547  20368500.5164                   20368498.0784
 -14826662.31647 -11537265.17046  21783363.1334                   21783363.6024
 11  8 19  1 59  0.0000000  0  9G26G29G12G04G02G10G30G05G25
   5168680.20346   4038791.20343  24551407.5314                   24551405.7974
  -2622581.47747  -2030493.44745  23323980.0944                   23323978.0864
 -21609180.82448 -16826827.19246  21150985.5234                   21150983.2234
 -14267742.27045 -11104252.31642  24690380.3204                   24690380.4844
 -26291584.62147 -20474646.44746  21433432.4384                   21433428.2854
 -15590271.37547 -12109624.63644  22896501.5864                   22896499.0744
 -14181828.94948 -11034629.99046  21675818.8204                   21675816.6134
 -23959051.35248 -18656782.60447  20362762.6804                   20362760.3284
 -14883390.79748 -11581469.16746  21772568.2894                   21772568.4804
 11  8 19  1 59 30.0000000  0  9G26G29G12G04G02G10G30G05G25
   5041348.19546   3939571.43043  24527176.2344                   24527175.4384
  -2738653.11747  -2120938.83945  23301891.5004                   23301890.1844
 -21599476.64848 -16819265.51546  21152832.6024                   21152829.7584
 -14222168.82446 -11068740.47742  24699052.8284                   24699052.2664
 -26289685.20347 -20473166.39646  21433793.8914                   21433789.6134
 -15527902.66046 -12061025.65244  22908369.3984                   22908367.2384
 -14219955.37148 -11064338.90446  21668563.3674                   21668561.5704
 -23988635.94547 -18679835.53147  20357132.6484                   20357130.2464
 -14939545.17648 -11625225.82646  21761882.3134                   21761882.4184
 11  8 19  2  0  0.0000000  0  9G26G29G12G04G02G10G30G05G25
   4913942.65246   3840294.48343  24502932.6884                   24502930.3364
  -2854715.21147  -2211376.79945  23279806.1024                   23279804.5004
 -21589255.57448 -16811301.05446  21154777.3284                   21154774.6684
 -14176659.92246 -11033278.98842  24707713.4694                   24707712.1414
 -26287685.70347 -20471608.33646  21434174.8984                   21434170.2194
 -15465258.49646 -12012212.01744  22920290.4224                   22920287.9734
 -14257475.97348 -11093575.74346  21661423.1644                   21661421.5434
 -24017655.48848 -18702448.15347  20351610.6254                   20351607.6604
 -14995128.18748 -11668537.25246  21751305.0164                   21751305.5004
 11  8 19  2  0 30.0000000  0  9G26G29G12G04G02G10G30G05G25
   4786468.54746   3740964.10243  24478675.2114                   24478673.2154
  -2970764.69546  -2301804.89845  23257722.2974                   23257721.0514
 -21578517.68748 -16802933.87646  21156820.7424                   21156818.1844
 -14131214.14847 -10997866.61543  24716361.5084                   24716360.3204
 -26285584.80548 -20469971.28546  21434574.2584                   21434570.1804
 -15402340.33246 -11963184.87644  22932263.4304                   22932261.5824
 -14294389.29348 -11122339.38646  21654399.0634                   21654397.3444
 -24046108.84848 -18724619.60047  20346196.0784                   20346193.6054
 -15050137.42248 -11711401.59346  21740837.6024                   21740837.7774
 11  8 19  2  1  0.0000000  0  9G26G29G12G04G02G10G30G05G25
   4658929.09846   3641582.79344  24454404.8204                   24454403.5314
  -3086799.88346  -2392221.87145  23235641.7424                   23235640.2664
 -21567264.46148 -16794165.12846  21158962.5164                   21158959.5204
 -14085831.22346 -10962503.30542  24724997.1954                   24724995.6214
 -26283382.90648 -20468255.52746  21434993.4844                   21434988.9344
 -15339150.43746 -11913946.00544  22944287.9844                   22944285.8754
 -14330695.16848 -11150629.68546  21647490.2664                   21647488.2974
 -24073996.46548 -18746350.19547  20340889.2344                   20340886.6484
 -15104571.98048 -11753818.13646  21730478.7504                   21730478.8714
 11  8 19  2  1 30.0000000  0  9G26G29G12G04G02G10G30G05G25
   4531331.77746   3542156.42743  24430123.4064                   24430122.2194
  -3202814.98846  -2482623.17244  23213564.7344                   23213563.3364
 -21555493.47348 -16784992.92946  21161202.0234                   21161199.5744
 -14040507.17647 -10927185.90643  24733622.3984                   24733621.6684
 -26281076.15247 -20466458.05446  21435432.4924                   21435428.6604
 -15275687.60246 -11864494.47144  22956364.4844                   22956362.5664
 -14366389.88748 -11178443.75646  21640697.6484                   21640695.7704
 -24101315.25448 -18767637.55647  20335690.9224                   20335688.0274
 -15158427.11348 -11795783.16546  21720230.5864                   21720230.2734
 11  8 19  2  2  0.0000000  0  8G26G29G12G02G10G30G05G25
   4403675.14546   3442683.84243  24405831.1334                   24405830.3284
  -3318813.20346  -2573011.34945  23191490.3444                   23191489.3444
 -21543211.05548 -16775422.21746  21163539.5314                   21163536.8134
 -26278669.58647 -20464582.82746  21435890.1094                   21435886.3284
 -15211959.14846 -11814835.98344  22968491.7814                   22968490.0164
 -14401478.27048 -11205785.36546  21634020.7814                   21634018.8164
 -24128070.39847 -18788485.71347  20330599.2734                   20330596.7344
 -15211706.80148 -11837299.80446  21710091.4844                   21710091.8874
 11  8 19  2  2 30.0000000  0  8G26G29G12G02G10G30G05G25
   4275961.84447   3343167.08944  24381528.8524                   24381526.6724
  -3434793.50846  -2663385.55145  23169420.0084                   23169418.7664
 -21530419.56248 -16765454.81246  21165973.7034                   21165970.7544
 -26276163.80947 -20462630.25746  21436366.9924                   21436363.1214
 -15147968.38346 -11764973.04044  22980668.7274                   22980666.5594
 -14435960.99248 -11232655.01746  21627458.4844                   21627457.1334
 -24154263.07848 -18808895.58247  20325615.0864                   20325612.6684
 -15264410.81648 -11878367.86746  21700062.6024                   21700062.5744
 11  8 19  2  3  0.0000000  0  8G26G29G12G02G10G30G05G25
   4148205.02746   3243616.42044  24357217.1954                   24357215.8014
  -3550744.10246  -2753736.61044  23147355.3834                   23147354.1804
 -21517110.52348 -16755084.13446  21168506.0784                   21168503.5784
 -26273549.47747 -20460593.11546  21436864.5084                   21436860.2154
 -15083708.07846 -11714900.05944  22992897.0234                   22992894.7734
 -14469828.60948 -11259045.36946  21621014.1644                   21621012.3754
 -24179884.16448 -18828860.04447  20320739.2344                   20320736.6024
 -15316528.73848 -11918979.22246  21690144.7194                   21690144.7584
 11  8 19  2  3 30.0000000  0  8G26G29G12G02G10G30G05G25
   4020404.68446   3144031.83343  24332896.7584                   24332895.5084
  -3666666.75046  -2844065.88245  23125296.3444                   23125294.3754
 -21503289.73448 -16744314.68246  21171136.2194                   21171133.4024
 -26270830.17647 -20458474.17546  21437381.6254                   21437377.3594
 -15019184.07046 -11664621.63944  23005175.6254                   23005173.6764
 -14503084.67648 -11284959.19746  21614685.8524                   21614683.8874
 -24204937.69548 -18848382.25747  20315971.9224                   20315969.3014
 -15368063.21948 -11959135.96746  21680338.3284                   21680338.3014
 11  8 19  2  4  0.0000000  0  8G26G29G12G02G10G30G05G25
   3892565.23446   3044416.79943  24308569.9774                   24308568.5554
  -3782558.53947  -2934371.13845  23103243.0784                   23103240.8914
 -21488957.32048 -16733146.56746  21173863.4694                   21173860.8674
 -26268004.98448 -20456272.73446  21437919.6254                   21437915.1994
 -14954398.02346 -11614139.02244  23017503.7664                   23017502.4964
 -14535728.36348 -11310395.81446  21608473.9774                   21608471.8134
 -24229422.92248 -18867461.63547  20311312.5704                   20311309.9614
 -15419012.54748 -11998836.73046  21670643.0084                   21670642.6684
 11  8 19  2  4 30.0000000  0  8G26G29G12G02G10G30G05G25
   3764686.96546   2944771.44643  24284235.5084                   24284234.1604
  -3898421.09847  -3024653.57245  23081194.7814                   23081193.6254
 -21474117.72348 -16721583.24946  21176687.3364                   21176684.9654
 -26265077.34848 -20453991.46346  21438476.7504                   21438472.3364
 -14889355.74246 -11563456.79244  23029880.7274                   23029879.3054
 -14567763.12548 -11335357.96146  21602377.7034                   21602376.2074
 -24253343.97748 -18886101.39447  20306760.4694                   20306757.9344
 -15469379.23448 -12038083.49846  21661058.3284                   21661058.0474
 11  8 19  2  5  0.0000000  0  8G26G29G12G02G10G30G05G25
   3636771.82846   2845097.43843  24259893.7114                   24259892.3754
  -4014254.24247  -3114913.12345  23059152.2114                   23059150.7304
 -21458775.00048 -16709627.89046  21179606.9774                   21179604.3754
 -26262048.78948 -20451631.53146  21439053.3984                   21439048.8364
 -14824061.50047 -11512578.16844  23042306.1644                   23042304.6844
 -14599190.83248 -11359847.07946  21596397.3444                   21596395.3204
 -24276703.34448 -18904303.48347  20302315.2424                   20302312.5904
 -15519164.17648 -12076876.95946  21651584.5234                   21651584.6684
 11  8 19  2  5 30.0000000  0  8G26G29G12G02G10G30G05G25
   3508819.95346   2745394.79244  24235545.7114                   24235544.3134
  -4130059.07047  -3205150.62145  23037115.5864                   23037113.9184
 -21442933.47348 -16697283.83246  21182621.5944                   21182618.8794
 -26258922.73448 -20449195.63446  21439648.5164                   21439643.7074
 -14758521.18747 -11461507.81144  23054778.3914                   23054776.6564
 -14630014.98048 -11383865.89546  21590531.8524                   21590529.6804
 -24299504.52048 -18922070.60247  20297976.1254                   20297973.7504
 -15568370.02048 -12115219.16546  21642221.1094                   21642221.2774
 11  8 19  2  6  0.0000000  0  8G26G29G12G02G10G30G05G25
   3380828.66446   2645661.36143  24211189.3134                   24211188.6914
  -4245839.87547  -3295369.38945  23015082.8204                   23015081.5904
 -21426601.58248 -16684557.68446  21185729.2894                   21185727.1804
 -26255705.65648 -20446688.80846  21440260.4304                   21440256.0164
 -14692743.60947 -11410252.53344  23067295.0554                   23067293.5744
 -14660241.94548 -11407419.34946  21584779.8364                   21584778.0084
 -24321754.47348 -18939408.20847  20293742.2344                   20293739.7154
 -15617002.16048 -12153114.32346  21632966.5164                   21632966.5984
 11  8 19  2  6 30.0000000  0  8G26G29G12G02G10G30G05G25
   3252807.03146   2545904.33443  24186827.9144                   24186826.4614
  -4361589.66447  -3385563.99945  22993056.5394                   22993055.1914
 -21409775.22748 -16671446.25746  21188931.2424                   21188928.6134
 -26252392.01248 -20444106.73246  21440891.0474                   21440886.0704
 -14626725.87547 -11358810.14044  23079857.8834                   23079856.4454
 -14689866.71548 -11430503.58346  21579142.1174                   21579140.3284
 -24343448.69948 -18956312.77247  20289614.3834                   20289611.2424
 -15665054.66848 -12190557.83946  21623822.3054                   21623822.6954
 11  8 19  2  7  0.0000000  0  8G26G29G12G02G10G30G05G25
   3124760.14846   2446127.54543  24162461.3594                   24162459.8594
  -4477304.55547  -3475731.42445  22971037.2034                   22971035.4384
 -21392454.59448 -16657949.66246  21192227.1484                   21192224.8054
 -26248980.23048 -20441448.18746  21441539.8674                   21441535.2544
 -14560468.64547 -11307181.19944  23092465.8834                   23092464.7664
 -14718887.87948 -11453117.46046  21573619.7194                   21573617.5944
 -24364586.05548 -18972783.41147  20285591.7034                   20285589.1804
 -15712525.18748 -12227547.83446  21614788.9614                   21614789.0824
 11  8 19  2  7 30.0000000  0  8G26G29G12G02G10G30G05G25
   2996688.30946   2346331.40643  24138089.8754                   24138088.0514
  -4592986.16847  -3565872.92145  22949023.4064                   22949021.8794
 -21374644.50848 -16644071.67846  21195616.4384                   21195613.6844
 -26245473.72347 -20438715.83846  21442207.1564                   21442202.8094
 -14493977.78147 -11255370.15044  23105119.0704                   23105117.3094
 -14747309.09047 -11475263.85446  21568211.3364                   21568209.4064
 -24385170.50448 -18988823.22147  20281674.7424                   20281672.0004
 -15759416.46148 -12264086.46646  21605865.9384                   21605866.0944
 11  8 19  2  8  0.0000000  0  8G26G29G12G02G10G30G05G25
   2868597.26246   2246520.27543  24113713.8284                   24113713.4844
  -4708630.29747  -3655985.20545  22927017.1724                   22927015.8054
 -21356344.59448 -16629812.01046  21199099.0394                   21199096.3794
 -26241870.31247 -20435907.97146  21442893.0394                   21442888.2854
 -14427253.61347 -11203377.32544  23117816.4924                   23117814.3284
 -14775128.51247 -11496941.32246  21562917.5084                   21562915.4654
 -24405200.78548 -19004431.20447  20277862.9924                   20277860.4924
 -15805725.75448 -12300171.62446  21597053.5314                   21597053.5004
 11  8 19  2  8 30.0000000  0  8G26G29G12G02G10G30G05G25
   2740486.80546   2146693.97343  24089336.4224                   24089334.3444
  -4824238.64147  -3746069.59345  22905017.3444                   22905015.9844
 -21337560.34448 -16615174.94946  21202673.2814                   21202670.8284
 -26238173.53548 -20433027.35046  21443596.4224                   21443591.7034
 -14360302.14147 -11151207.36443  23130556.7424                   23130555.0204
 -14802350.22748 -11518153.04246  21557737.4304                   21557735.5634
 -24424680.99248 -19019610.57747  20274155.8674                   20274153.0704
 -15851456.16048 -12335805.68646  21588351.2344                   21588351.8554
 11  8 19  2  9  0.0000000  0  8G26G29G12G02G10G30G05G25
   2612360.72747   2046855.60643  24064955.3204                   24064953.0704
  -4939809.30947  -3836124.64445  22883025.0634                   22883023.4534
 -21318293.29348 -16600161.66146  21206339.8914                   21206337.1724
 -26234383.52748 -20430074.07346  21444317.7114                   21444313.3674
 -14293125.96147 -11098862.28443  23143339.9224                   23143337.6604
 -14828974.65248 -11538899.36546  21552671.2274                   21552668.9414
 -24443612.17648 -19034362.12747  20270553.4384                   20270550.7504
 -15896607.14548 -12370988.26746  21579759.3674                   21579759.4534
 11  8 19  2  9 30.0000000  0  8G26G29G12G02G10G30G05G25
   2484223.92647   1947008.81243  24040571.0864                   24040569.6764
  -5055338.63747  -3926147.47845  22861040.3674                   22861039.2504
 -21298543.99248 -16584772.61346  21210098.1564                   21210095.6054
 -26230498.74648 -20427046.94446  21445056.7504                   21445052.2704
 -14225726.05947 -11046342.88744  23156165.9224                   23156163.4654
 -14855000.70748 -11559179.39546  21547718.2974                   21547716.5434
 -24461993.83648 -19048685.48347  20267055.3834                   20267052.8874
 -15941176.70348 -12405717.77346  21571278.0084                   21571278.0984
 11  8 19  2 10  0.0000000  0  8G26G29G12G02G10G30G05G25
   2356076.86346   1847154.02043  24016185.5474                   24016183.5314
  -5170828.36347  -4016139.44345  22839063.5314                   22839061.9064
 -21278317.95348 -16569012.06746  21213947.0314                   21213944.7704
 -26226522.81247 -20423948.80046  21445813.1334                   21445808.7034
 -14158108.62947 -10993653.99044  23169033.2734                   23169031.8634
 -14880432.32848 -11578996.23646  21542879.1094                   21542877.5164
 -24479830.10948 -19062583.86147  20263661.1804                   20263658.7344
 -15985167.85248 -12439996.56946  21562907.1954                   21562906.8874
 11  8 19  2 10 30.0000000  0  8G26G29G12G02G10G30G05G25
   2227924.91846   1747295.37244  23991798.7894                   23991797.4574
  -5286274.24647  -4106097.28045  22817094.7274                   22817093.0394
 -21257614.30148 -16552879.36046  21217886.6484                   21217884.0904
 -26222453.55547 -20420777.95546  21446587.8204                   21446583.1914
 -14090273.71947 -10940795.67744  23181942.0004                   23181939.6214
 -14905267.92247 -11598348.64546  21538152.7734                   21538151.2854
 -24497119.43448 -19076056.05047  20260371.1094                   20260368.6524
 -16028577.95748 -12473822.61046  21554646.1484                   21554646.4924
 11  8 19  2 11  0.0000000  0  8G26G29G12G02G10G30G05G25
   2099772.96946   1647436.76744  23967412.8754                   23967410.3284
  -5401673.35247  -4196018.67745  22795135.2114                   22795133.6374
 -21236434.32848 -16536375.49246  21221916.8364                   21221914.6684
 -26218290.05148 -20417533.67146  21447379.6024                   21447375.6024
 -14022223.27747 -10887769.38644  23194891.5474                   23194888.7154
 -14929507.14148 -11617236.35146  21533540.1884                   21533538.3364
 -24513861.93448 -19089102.14247  20257185.2034                   20257182.6484
 -16071405.93448 -12507195.02146  21546496.2344                   21546496.1804
 11  8 19  2 11 30.0000000  0  8G26G29G12G02G10G30G05G25
   1971621.87946   1547578.85543  23943025.5234                   23943023.4304
  -5517026.00447  -4285903.85445  22773184.2344                   22773182.7464
 -21214782.01648 -16519503.57246  21226037.1954                   21226034.9494
 -26214035.05948 -20414218.08146  21448189.5944                   21448185.0514
 -13953962.02047 -10834578.79644  23207880.8284                   23207878.5514
 -14953152.98048 -11635661.65946  21529040.5474                   21529038.7584
 -24530061.05948 -19101724.82447  20254102.9064                   20254100.4104
 -16113653.68748 -12540115.32746  21538456.5704                   21538456.7464
 11  8 19  2 12  0.0000000  0  8G26G29G12G02G10G30G05G25
   1843480.60946   1447728.62344  23918640.6564                   23918639.7464
  -5632325.09447  -4375747.29445  22751243.2664                   22751241.5474
 -21192654.41048 -16502261.28946  21230248.1804                   21230245.8014
 -26209682.67648 -20410826.61846  21449018.1954                   21449013.2234
 -13885487.22347 -10781221.84744  23220911.6564                   23220909.8984
 -14976200.63348 -11653620.86146  21524654.6174                   21524652.5824
 -24545712.46148 -19113920.71647  20251124.6254                   20251121.7384
 -16155315.52348 -12572579.08946  21530528.4694                   21530528.8634
 11  8 19  2 12 30.0000000  0  8G26G29G12G02G10G30G05G25
   1715347.30946   1347884.52943  23894258.3754                   23894257.0164
  -5747574.53947  -4465552.02745  22729312.7814                   22729310.6294
 -21170058.99648 -16484654.48646  21234547.9384                   21234545.0984
 -26205238.69948 -20407363.76246  21449863.5474                   21449859.0044
 -13816807.05146 -10727704.82244  23233980.5944                   23233979.1024
 -14998656.62148 -11671119.03746  21520381.6254                   21520379.4964
 -24560822.64148 -19125694.87347  20248248.9064                   20248246.4184
 -16196396.96148 -12604590.58446  21522711.4774                   21522711.2814
 11  8 19  2 13  0.0000000  0  8G26G29G12G02G10G30G05G25
   1587220.22346   1248045.30543  23869875.9614                   23869874.9104
  -5862777.22747  -4555320.33445  22707390.0234                   22707388.4494
 -21147002.89148 -16466688.70346  21238935.3524                   21238933.2464
 -26200708.50048 -20403833.75346  21450725.6174                   21450721.3404
 -13747928.97347 -10674033.61644  23247088.1484                   23247086.5664
 -15020526.77348 -11688160.70346  21516219.7504                   21516217.8834
 -24575397.80548 -19137052.14047  20245475.5394                   20245472.9264
 -16236902.83648 -12636153.57946  21515002.9454                   21515003.5274
 11  8 19  2 13 30.0000000  0  8G26G29G12G02G10G30G05G25
   1459108.53146   1148218.08844  23845497.5784                   23845496.7304
  -5977925.89847  -4645046.55245  22685478.0474                   22685475.9184
 -21123482.47748 -16448361.11946  21243410.8914                   21243408.6884
 -26196086.59848 -20400232.25146  21451604.8754                   21451600.4104
 -13678850.25047 -10620206.07244  23260233.7894                   23260231.5704
 -15041806.29348 -11704742.13046  21512170.1024                   21512168.4414
 -24589433.52748 -19147989.05747  20242804.7504                   20242801.9654
 -16276827.52048 -12667263.69846  21507405.5554                   21507405.6644
 11  8 19  2 14  0.0000000  0  8G26G29G12G02G10G30G05G25
   1331017.64846   1048407.07644  23821122.3134                   23821120.7934
  -6093016.09847  -4734727.18345  22663576.9844                   22663575.3554
 -21099498.20348 -16429672.08346  21247974.9924                   21247972.6564
 -26191371.29748 -20396557.99746  21452502.6094                   21452497.8634
 -13609571.62546 -10566222.74644  23273416.1884                   23273415.2034
 -15062493.91448 -11720862.33546  21508233.5634                   21508231.5474
 -24602928.90248 -19158504.92547  20240236.4224                   20240233.7464
 -16316168.80148 -12697919.21746  21499919.5234                   21499919.2934
 11  8 19  2 14 30.0000000  0  8G26G29G12G02G10G30G05G25
   1202953.29746    948616.76943  23796752.1564                   23796752.1524
  -6208044.16847  -4824359.37245  22641687.6484                   22641686.1294
 -21075049.94948 -16410621.50346  21252627.7504                   21252625.3714
 -26186560.55548 -20392809.36246  21453418.1724                   21453413.4264
 -13540093.67246 -10512084.05643  23286637.2584                   23286635.5594
 -15082588.69948 -11736520.60046  21504409.7034                   21504407.8094
 -24615883.20348 -19168599.17647  20237771.2274                   20237768.8324
 -16354924.71148 -12728118.59946  21492544.1954                   21492544.3054
 11  8 19  2 15  0.0000000  0  8G26G29G12G02G10G30G05G25
   1074913.84446    848845.80044  23772387.3914                   23772386.6724
  -6323013.63347  -4913945.90845  22619809.7894                   22619808.2974
 -21050144.81648 -16391214.91546  21257366.7974                   21257364.6914
 -26181659.21548 -20388990.12646  21454350.7584                   21454346.3014
 -13470423.76246 -10457795.86743  23299894.5864                   23299893.4104
 -15102096.36348 -11751721.35746  21500697.6724                   21500695.5474
 -24628302.66848 -19178276.68147  20235408.1644                   20235404.9414
 -16393100.17648 -12757865.69246  21485279.6724                   21485279.5904
 11  8 19  2 15 30.0000000  0  8G26G29G12G02G10G30G05G25
    946899.73446    749094.66344  23748026.7344                   23748025.8014
  -6437925.48447  -5003487.52645  22597942.8524                   22597941.5944
 -21024788.27348 -16371456.57846  21262192.0234                   21262189.5164
 -26176670.80148 -20385103.04446  21455299.7664                   21455294.9734
 -13400567.82446 -10403362.71243  23313188.1954                   23313186.4414
 -15121021.22748 -11766467.98946  21497095.9304                   21497094.4964
 -24640191.60948 -19187540.76747  20233145.4844                   20233142.8204
 -16430698.42248 -12787163.00646  21478125.0164                   21478124.8754
 11  8 19  2 16  0.0000000  0  8G26G29G12G02G10G30G05G25
    818918.85946    649369.33244  23723673.3754                   23723671.6604
  -6552773.72747  -5092979.57245  22576087.4614                   22576086.0904
 -20998978.30148 -16351344.92946  21267103.6414                   21267100.7584
 -26171590.85248 -20381144.63346  21456266.5164                   21456262.3094
 -13330524.07846 -10348783.12243  23326517.2974                   23326515.5044
 -15139360.00448 -11780757.92946  21493606.1334                   21493604.5864
 -24651547.06648 -19196389.17047  20230984.8134                   20230981.9694
 -16467715.18748 -12816007.22746  21471081.0864                   21471081.1724
 11  8 19  2 16 30.0000000  0  8G26G29G12G02G10G30G05G25
    690972.54346    549670.97743  23699326.3204                   23699323.8914
  -6667558.42647  -5182422.09145  22554244.7584                   22554243.5394
 -20972718.87148 -16330883.04146  21272100.4384                   21272097.7304
 -26166421.80148 -20377116.77246  21457250.2424                   21457245.5204
 -13260297.13746 -10294060.83143  23339881.2194                   23339877.8554
 -15157115.67248 -11794593.50146  21490227.1804                   21490225.5744
 -24662372.45348 -19204824.51147  20228924.5314                   20228921.9024
 -16504152.57848 -12844399.98446  21464147.1644                   21464147.0354
 11  8 19  2 17  0.0000000  0  8G26G29G12G02G10G30G05G25
    563068.60546    450005.63044  23674986.8444                   23674984.8444
  -6782273.27047  -5271810.18745  22532415.1254                   22532413.6844
 -20946008.37548 -16310069.69046  21277183.5784                   21277180.8014
 -26161159.38748 -20373016.16846  21458251.6954                   21458247.2544
 -13189885.65647 -10239194.72343  23353280.2734                   23353277.6214
 -15174285.11748 -11807972.27046  21486960.3054                   21486958.1214
 -24672664.74248 -19212844.46547  20226966.0704                   20226962.8554
 -16540006.46948 -12872338.07046  21457324.1254                   21457324.2154
 11  8 19  2 17 30.0000000  0  8G26G29G12G02G10G30G05G25
    435204.23447    350371.11244  23650655.2344                   23650653.1094
  -6896922.87947  -5361147.43245  22510597.9614                   22510596.4144
 -20918855.22748 -16288911.39946  21282350.7194                   21282347.7854
 -26155810.64148 -20368848.29746  21459269.6094                   21459264.6844
 -13119298.37947 -10184191.64244  23366712.7274                   23366710.1644
 -15190875.76648 -11820900.03646  21483803.2194                   21483801.1254
 -24682431.57848 -19220454.96847  20225107.5554                   20225104.8054
 -16575283.41048 -12899826.57246  21450611.1174                   21450611.3094
 11  8 19  2 18  0.0000000  0  8G26G29G12G02G10G30G05G25
    307387.65246    250773.82444  23626332.4774                   23626330.3244
  -7011500.25047  -5450428.40145  22488794.4694                   22488793.4574
 -20891256.98448 -16267406.28846  21287602.4454                   21287599.5164
 -26150370.12548 -20364608.89946  21460304.9694                   21460300.2974
 -13048533.18747 -10129049.93144  23380178.1954                   23380176.2234
 -15206883.86348 -11833373.87746  21480756.7504                   21480755.0474
 -24691669.59448 -19227653.39947  20223349.3674                   20223346.7464
 -16609978.66848 -12926861.83146  21444009.1884                   21444008.9414
 11  8 19  2 18 30.0000000  0  8G26G29G12G02G10G30G05G25
   1755045.15246   1378818.70844  23901811.9304                   23901810.2624
  -5550581.43747  -4312049.99245  22766797.8444                   22766796.7734
 -19287798.52347 -15017958.14546  21592730.1564                   21592727.8754
 -24569419.94148 -19132699.64346  21761149.6484                   21761144.7504
 -11402176.93447  -8846174.92544  23693469.6724                   23693467.3244
 -13646891.80548 -10617795.64946  21777613.5474                   21777611.6094
 -23124961.28548 -18006841.72047  20521484.1644                   20521481.1954
 -15068673.03948 -11725844.44046  21737309.8204                   21737309.9654
 11  8 19  2 19  0.0000000  0  8G26G29G12G02G10G30G05G25
   1627329.30146   1279299.86043  23877508.5704                   23877506.5164
  -5665014.71147  -4401218.66545  22745021.6484                   22745020.6254
 -19259322.30147 -14995768.87746  21598149.1564                   21598146.3984
 -24563802.31248 -19128322.25646  21762218.4924                   21762213.5944
 -11331069.71147  -8790766.64844  23707001.0084                   23706998.6844
 -13661744.18448 -10629368.90946  21774787.3834                   21774785.4104
 -23133151.34448 -18013223.56447  20519925.4304                   20519922.5784
 -15102211.48048 -11751978.28046  21730927.6724                   21730927.6454
 11  8 19  2 19 30.0000000  0  8G26G29G12G02G10G30G05G25
   1499669.60946   1179824.79744  23853215.4924                   23853214.0594
  -5779372.43447  -4490328.46945  22723260.2664                   22723258.8954
 -19230410.59047 -14973240.27046  21603651.0234                   21603648.3634
 -24558095.87148 -19123875.67746  21763304.3754                   21763299.5234
 -11259795.04746  -8735227.94144  23720563.5634                   23720562.3284
 -13676020.10248 -10640493.00946  21772070.5164                   21772068.4414
 -23140819.41448 -18019198.67647  20518466.7194                   20518463.5474
 -15135171.43448 -11777661.36346  21724655.6954                   21724655.7034
 11  8 19  2 20  0.0000000  0  9G26G29G12G15G02G10G30G05G25
   1372067.46946   1080394.62944  23828934.3984                   23828932.2274
  -5893655.08647  -4579379.79445  22701513.4844                   22701511.7034
 -19201067.93447 -14950375.86446  21609234.6884                   21609231.7154
   9266378.51656   7235182.90953  24739274.4534                   24739273.5474
 -24552303.12948 -19119361.83446  21764406.3754                   21764401.6294
 -11188357.50847  -8679562.35444  23734158.2424                   23734156.6484
 -13689722.87148 -10651170.49446  21769463.1564                   21769461.1054
 -23147968.84048 -18024769.62947  20517105.8524                   20517103.1524
 -15167555.36348 -11802895.58846  21718493.0784                   21718493.2814
 11  8 19  2 20 30.0000000  0  9G26G29G12G15G02G10G30G05G25
   1244525.32046    981011.22644  23804663.1254                   23804660.8914
  -6007861.98047  -4668372.11845  22679780.6254                   22679778.7894
 -19171297.70748 -14927178.29046  21614899.6564                   21614897.6134
   9140244.23446   7136896.63843  24715271.7584                   24715271.8364
 -24546424.85248 -19114781.34046  21765525.6174                   21765520.4534
 -11116761.00047  -8623772.91544  23747782.2194                   23747780.4104
 -13702854.91048 -10661403.25246  21766964.0314                   21766961.9734
 -23154602.21148 -18029938.47947  20515843.7344                   20515840.6764
 -15199364.68448 -11827682.08946  21712439.9774                   21712439.9774
 11  8 19  2 21  0.0000000  0  9G26G29G12G15G02G10G30G05G25
   1117044.31346    881675.40144  23780404.8364                   23780402.3284
  -6121993.09847  -4757305.38445  22658061.9304                   22658060.6134
 -19141104.20747 -14903650.89046  21620645.2814                   21620642.3594
   9013978.47746   7038507.84343  24691244.3674                   24691243.9654
 -24540463.50048 -19110136.12446  21766659.9924                   21766654.7774
 -11045010.09047  -8567863.14143  23761435.3444                   23761434.4184
 -13715419.64148 -10671193.96846  21764573.6414                   21764571.0474
 -23160723.39148 -18034708.21647  20514678.8284                   20514675.7814
 -15230601.92248 -11852022.79146  21706495.6174                   21706495.7304
 11  8 19  2 21 30.0000000  0  9G26G29G12G15G02G10G30G05G25
    989625.27747    782387.87244  23756157.2424                   23756155.8554
  -6236049.57847  -4846180.48545  22636357.4454                   22636356.0514
 -19110493.19547 -14879798.14946  21626470.1884                   21626467.8834
   8887580.78546   6940016.36443  24667191.5234                   24667190.8164
 -24534422.05548 -19105428.49346  21767809.1954                   21767804.4804
 -10973110.37546  -8511837.43143  23775117.5554                   23775116.8834
 -13727421.55948 -10680546.11446  21762289.1884                   21762287.2734
 -23166336.80148 -18039082.28447  20513610.6254                   20513607.7114
 -15261270.54348 -11875920.41546  21700659.6094                   21700659.9024
 11  8 19  2 22  0.0000000  0  9G26G29G12G15G02G10G30G05G25
    862277.86347    683156.14644  23731924.6414                   23731920.9804
  -6350023.23447  -4934991.08045  22614668.9224                   22614667.8244
 -19079460.69147 -14855616.97946  21632375.9384                   21632373.0274
   8761059.73046   6841428.62743  24643115.8754                   24643114.2304
 -24528294.63748 -19100653.87146  21768974.8284                   21768970.3244
 -10901058.56246  -8455693.17943  23788828.8984                   23788827.6884
 -13738855.85548 -10689455.97746  21760113.1644                   21760111.3674
 -23171437.93048 -18043057.18147  20512639.8134                   20512636.8594
 -15291364.82448 -11899370.51446  21694933.2814                   21694932.6604
 11  8 19  2 22 30.0000000  0  9G26G29G12G15G02G10G30G05G25
    735006.56347    583983.75144  23707705.2734                   23707704.1994
  -6463910.98047  -5023734.71945  22592996.6564                   22592995.3554
 -19048008.16447 -14831108.51746  21638360.9534                   21638358.5984
   8634419.20746   6742747.83143  24619016.0004                   24619015.6884
 -24522080.19148 -19095811.44746  21770158.0004                   21770153.2854
 -10828856.32447  -8399431.70344  23802569.2344                   23802566.6684
 -13749722.65648 -10697923.62746  21758045.3984                   21758043.3554
 -23176027.06248 -18046633.11147  20511766.4304                   20511763.5704
 -15320884.05948 -11922372.51046  21689315.6094                   21689315.4654
 11  8 19  2 23  0.0000000  0  9G26G29G12G15G02G10G30G05G25
    607814.87947    484873.40444  23683501.6334                   23683499.1644
  -6577711.24247  -5112410.20445  22571340.9384                   22571339.6294
 -19016138.34447 -14806274.89646  21644425.3134                   21644422.8444
   8507661.43846   6643975.67243  24594895.4224                   24594894.0864
 -24515779.12148 -19090901.53646  21771356.5864                   21771352.5394
 -10756506.19947  -8343055.01643  23816337.1804                   23816333.8404
 -13760023.77048 -10705950.49246  21756085.4064                   21756083.4654
 -23180106.04348 -18049811.52947  20510990.3444                   20510987.7154
 -15349829.01247 -11944927.03946  21683807.2274                   21683807.4964
 11  8 19  2 23 30.0000000  0  9G26G29G12G15G02G10G30G05G25
    480701.79347    385824.30544  23659312.6174                   23659310.1954
  -6691426.73047  -5201019.63645  22549701.9384                   22549700.0634
 -18983858.61347 -14781121.85246  21650567.6414                   21650565.2704
   8380784.57846   6545110.72043  24570750.5554                   24570750.9774
 -24509395.87148 -19085927.55146  21772571.4774                   21772566.7154
 -10684015.54347  -8286568.75743  23830131.2814                   23830129.2154
 -13769765.29348 -10713541.29846  21754231.5234                   21754229.6214
 -23183681.42248 -18052597.52747  20510310.2114                   20510307.1644
 -15378204.85248 -11967038.08846  21678407.7974                   21678408.1524
 11  8 19  2 24  0.0000000  0  9G26G29G12G15G02G10G30G05G25
    353672.62947    286840.61444  23635139.3524                   23635137.6454
  -6805053.55947  -5289559.97445  22528079.6094                   22528077.5234
 -18951169.25848 -14755649.64046  21656788.7424                   21656786.5434
   8253793.22746   6446156.54943  24546584.9774                   24546583.7074
 -24502928.74248 -19080888.20646  21773802.2274                   21773797.4774
 -10611385.14147  -8229973.65043  23843952.5164                   23843950.3594
 -13778946.68748 -10720695.63646  21752484.2344                   21752482.4694
 -23186752.94548 -18054990.92647  20509725.5234                   20509722.7344
 -15406010.16848 -11988704.57546  21673116.7894                   21673116.3674
 11  8 19  2 24 30.0000000  0  9G26G29G12G15G02G10G30G05G25
    226736.19146    187929.12244  23610983.6804                   23610982.5204
  -6918584.51247  -5378025.61945  22506475.0864                   22506473.6884
 -18918067.64148 -14729856.17246  21663088.1414                   21663084.8364
   8126694.75045   6347118.92343  24522398.0394                   24522397.9844
 -24496372.71948 -19075779.61446  21775049.6564                   21775045.4414
 -10538612.55147  -8173267.70143  23857801.1254                   23857798.9184
 -13787564.46548 -10727410.81446  21750844.6024                   21750842.3324
 -23189316.77048 -18056988.69947  20509237.2814                   20509234.5164
 -15433240.46948 -12009922.99446  21667934.9384                   21667934.9064
 11  8 19  2 25  0.0000000  0  9G26G29G12G15G02G10G30G05G25
     99892.94147     89090.27744  23586846.7194                   23586845.6764
  -7032020.54347  -5466417.31645  22484888.8364                   22484887.5274
 -18884559.32048 -14703745.80446  21669464.4304                   21669461.4804
   7999489.18045   6247997.77743  24498192.1094                   24498191.3204
 -24489730.62548 -19070603.95846  21776313.7974                   21776308.8634
 -10465702.77747  -8116454.88143  23871674.3754                   23871672.2624
 -13795622.90648 -10733690.14446  21749310.7344                   21749309.1484
 -23191377.34048 -18058594.33547  20508845.6804                   20508843.0354
 -15459899.11748 -12030695.97546  21662861.9694                   21662861.9414
 11  8 19  2 25 30.0000000  0  9G26G29G12G15G02G10G30G05G25
    -26848.59847     -9669.31944  23562728.5164                   23562727.3524
  -7145355.01647  -5554729.85645  22463322.6804                   22463320.5004
 -18850642.49248 -14677317.10046  21675918.6564                   21675915.5354
   7872183.54746   6148798.81843  24473966.5704                   24473965.6604
 -24482998.08648 -19065357.81846  21777594.8204                   21777590.3284
 -10392654.15647  -8059533.84943  23885575.6254                   23885572.8094
 -13803119.05947 -10739531.32046  21747884.8594                   21747882.8244
 -23192932.24648 -18059805.95047  20508549.8984                   20508546.6134
 -15485982.30548 -12051020.54446  21657898.3984                   21657898.3484
 11  8 19  2 26  0.0000000  0  9G26G29G12G15G02G10G30G05G25
   -153487.84847   -108349.20544  23538630.0554                   23538628.5234
  -7258588.56647  -5642963.76345  22441774.6334                   22441772.7704
 -18816322.50048 -14650574.25646  21682449.3444                   21682446.7194
   7744777.97346   6049521.86943  24449722.4064                   24449721.3594
 -24476177.83648 -19060043.32646  21778893.1334                   21778887.5514
 -10319472.01247  -8002508.82343  23899501.3444                   23899499.4224
 -13810057.42648 -10744937.85846  21746564.1094                   21746562.2074
 -23193985.86748 -18060626.95347  20508349.1254                   20508346.4264
 -15511493.45748 -12070899.35646  21653043.7814                   21653044.0204
 11  8 19  2 26 30.0000000  0  9G26G29G12G15G02G10G30G05G25
   -280022.71147   -206947.76144  23514551.4064                   23514549.2584
  -7371721.21547  -5731119.04145  22420246.5234                   22420244.5314
 -18781603.37947 -14623520.40146  21689055.8134                   21689053.3164
   7617273.36746   5950167.76643  24425459.2584                   24425458.6804
 -24469271.70747 -19054661.90346  21780206.6724                   21780202.3524
 -10246160.44546  -7945382.91143  23913452.5784                   23913449.9964
 -13816441.06648 -10749912.11846  21745349.7424                   21745347.4224
 -23194541.32048 -18061059.76247  20508243.3914                   20508240.4414
 -15536434.84448 -12090334.20446  21648297.6484                   21648297.3204
 11  8 19  2 27  0.0000000  0  9G26G29G12G15G02G10G30G05G25
   -406448.10247   -305460.99344  23490492.8594                   23490490.9224
  -7484749.28547  -5819192.82246  22398737.4144                   22398735.5514
 -18746486.27747 -14596156.42846  21695738.8674                   21695735.6994
   7489673.71546   5850739.61243  24401177.9614                   24401176.1684
 -24462278.08247 -19049212.31145  21781537.8834                   21781533.0864
 -10172720.77746  -7888157.21643  23927427.1884                   23927425.5274
 -13822270.18047 -10754454.29746  21744240.7034                   21744238.5594
 -23194598.92248 -18061104.63747  20508232.1644                   20508229.4224
 -15560805.66047 -12109324.45846  21643659.6644                   21643660.0824
 11  8 19  2 27 30.0000000  0  9G26G29G12G15G02G10G30G05G25
   -532762.69947   -403887.92544  23466455.7734                   23466454.0354
  -7597672.90647  -5907185.21945  22377248.7584                   22377247.0514
 -18710976.02047 -14568486.10246  21702495.8754                   21702493.3244
   7361979.39846   5751237.66243  24376878.0634                   24376877.1884
 -24455199.58647 -19043696.59946  21782884.8754                   21782879.9104
 -10099158.03546  -7830835.61843  23941426.3914                   23941423.7974
 -13827548.77048 -10758567.50446  21743235.8364                   21743233.6604
 -23194163.10548 -18060765.03647  20508315.3984                   20508312.5004
 -15584609.03147 -12127872.54546  21639130.4924                   21639130.5124
 11  8 19  2 28  0.0000000  0  9G26G29G12G15G02G10G30G05G25
   -658960.38347   -502223.74744  23442442.5394                   23442439.6024
  -7710487.43047  -5995092.59045  22355780.9224                   22355778.9844
 -18675072.20347 -14540509.10446  21709328.2974                   21709325.7114
   7234195.96946   5651666.33843  24352561.9614                   24352559.9964
 -24448033.10947 -19038112.31346  21784248.7664                   21784243.9024
 -10025471.42246  -7773417.46743  23955447.5164                   23955446.3984
 -13832275.76248 -10762250.86246  21742336.3524                   21742333.9654
 -23193232.42248 -18060039.81247  20508492.6884                   20508489.6804
 -15607842.92248 -12145976.87546  21634709.0554                   21634708.7894
 11  8 19  2 28 30.0000000  0  9G26G29G12G15G02G10G30G05G25
   -785035.82847   -600464.31444  23418450.7504                   23418447.9144
  -7823189.38347  -6082912.23345  22334334.0944                   22334332.9844
 -18638776.49247 -14512226.74246  21716235.1884                   21716232.5984
   7106327.34446   5552028.58843  24328228.6954                   24328227.0474
 -24440777.30547 -19032458.43546  21785629.5234                   21785624.8364
  -9951662.39146  -7715903.98843  23969493.5864                   23969491.6094
 -13836451.35547 -10765504.58746  21741541.0864                   21741539.9384
 -23191807.41848 -18058929.40147  20508763.9064                   20508760.6294
 -15630506.66448 -12163636.92646  21630396.3674                   21630396.8524
 11  8 19  2 29  0.0000000  0  9G26G29G12G15G02G10G30G05G25
   -910989.77347   -698610.19944  23394481.4224                   23394480.5434
  -7935781.10947  -6170645.98745  22312908.9694                   22312906.9064
 -18602095.98047 -14483644.54246  21723215.1334                   21723212.5984
   6978372.18047   5452323.42644  24303879.2114                   24303879.2544
 -24433436.43447 -19026738.25746  21787026.1564                   21787021.7734
  -9877737.80947  -7658300.37644  23983561.6334                   23983558.6764
 -13840081.66047 -10768333.39146  21740850.7274                   21740849.1914
 -23189894.30948 -18057438.64247  20509128.0084                   20509125.0394
 -15652605.36748 -12180856.70846  21626191.2814                   21626190.9264
 11  8 19  2 29 30.0000000  0  9G26G29G12G15G02G10G30G05G25
  -1036814.71947   -796655.55944  23370537.9694                   23370535.5864
  -8048256.53547  -6258289.09745  22291505.6564                   22291503.4264
 -18565028.90247 -14454761.10946  21730269.0084                   21730266.3524
   6850337.26247   5352556.03044  24279515.1414                   24279514.4654
 -24426006.40247 -19020948.63046  21788439.7814                   21788434.7934
  -9803696.20747  -7600605.60743  23997650.7114                   23997648.5984
 -13843164.41048 -10770735.52945  21740264.5084                   21740262.1254
 -23187490.83248 -18055565.78147  20509584.9924                   20509581.7194
 -15674135.98047 -12197633.78146  21622094.1884                   21622093.9304
 11  8 19  2 30  0.0000000  0  9G26G29G12G15G02G10G30G05G25
  -1162509.00847   -894599.13044  23346619.3834                   23346617.5704
  -8160615.69947  -6345841.59445  22270124.3594                   22270122.1214
 -18527580.57447 -14425580.61446  21737395.1094                   21737392.0864
   6722222.90647   5252726.78843  24255135.8284                   24255134.1644
 -24418489.88347 -19015091.56846  21789870.3754                   21789865.1054
  -9729542.42247  -7542823.42343  24011761.4844                   24011759.4414
 -13845703.61747 -10772714.12146  21739780.8594                   21739778.6724
 -23184601.14148 -18053314.04647  20510134.8444                   20510131.6374
 -15695101.52048 -12213970.56946  21618104.4144                   21618104.5784
 11  8 19  2 30 30.0000000  0  9G26G29G12G15G02G10G30G05G25
  -1288068.35247   -992437.53744  23322725.7194                   23322723.8204
  -8272855.79347  -6433301.33445  22248765.2974                   22248763.5314
 -18489752.55947 -14396104.25146  21744593.7114                   21744590.8634
   6594032.47747   5152838.24943  24230741.6724                   24230741.3324
 -24410885.91448 -19009166.39346  21791317.7894                   21791312.8404
  -9655277.78947  -7484954.89043  24025893.6414                   24025892.3404
 -13847700.22347 -10774269.92446  21739401.0704                   21739399.1844
 -23181225.96548 -18050684.01847  20510777.1174                   20510774.3954
 -15715502.03148 -12229867.06246  21614222.2194                   21614222.3284
 11  8 19  2 31  0.0000000  0  9G26G29G12G15G02G10G30G05G25
  -1413488.08247  -1090167.14444  23298859.0474                   23298857.0434
  -8384973.81247  -6520665.91045  22227430.3204                   22227428.2934
 -18451546.58247 -14366333.36846  21751863.5084                   21751860.9454
   6465769.85547   5052893.45544  24206334.6414                   24206332.7814
 -24403193.48848 -19003172.27846  21792781.3444                   21792776.3204
  -9580904.23847  -7427001.43643  24040045.8594                   24040044.9304
 -13849155.07847 -10775403.56345  21739124.4064                   21739122.4344
 -23177366.42248 -18047676.55447  20511511.4774                   20511508.7624
 -15735337.51648 -12245323.28146  21610447.5944                   21610447.7704
 11  8 19  2 31 30.0000000  0  9G26G29G12G15G02G10G30G05G25
  -1538769.16847  -1187788.74644  23275019.0784                   23275017.3634
  -8496972.27347  -6607937.33145  22206117.4064                   22206115.7624
 -18412969.85247 -14336273.59046  21759204.6724                   21759202.4804
   6337433.08647   4952890.89244  24181912.1564                   24181911.6294
 -24395416.95748 -18997112.61846  21794261.0234                   21794256.5274
  -9506428.88747  -7368968.71643  24054218.1644                   24054216.8164
 -13850074.71148 -10776120.15845  21738949.3524                   21738947.0124
 -23173028.80148 -18044296.55847  20512337.1254                   20512334.1454
 -15754613.51648 -12260343.52146  21606779.7194                   21606779.5864
 11  8 19  2 32  0.0000000  0  9G26G29G12G15G02G10G30G05G25
  -1663901.55547  -1285294.45344  23251206.9534                   23251205.8164
  -8608842.80547  -6695109.07145  22184828.9844                   22184827.3164
 -18374018.97347 -14305922.26346  21766616.9924                   21766614.1054
   6209031.14847   4852837.52744  24157478.6724                   24157477.4264
 -24387550.06647 -18990982.54346  21795758.2424                   21795753.6134
  -9431847.53546  -7310853.33943  24068410.6024                   24068408.4454
 -13850454.65648 -10776416.21246  21738877.2114                   21738875.2584
 -23168209.04348 -18040540.89147  20513254.1254                   20513251.3324
 -15773324.71148 -12274923.66046  21603218.7274                   21603219.3914
 11  8 19  2 32 30.0000000  0  9G26G29G12G15G02G10G30G05G25
  -1788884.83647  -1382683.97844  23227423.6724                   23227421.3984
  -8720586.09047  -6782181.65346  22163565.2664                   22163562.9304
 -18334699.86747 -14275284.01846  21774099.0474                   21774096.0434
   6080563.91447   4752733.25143  24133032.3834                   24133030.4734
 -24379596.13347 -18984784.65546  21797271.2734                   21797266.7304
  -9357165.64846  -7252659.59043  24082622.3674                   24082619.2774
 -13850299.93448 -10776295.63746  21738905.9454                   21738904.6564
 -23162911.98448 -18036413.29347  20514262.0784                   20514259.1174
 -15791475.12148 -12289066.82346  21599764.9844                   21599765.1254
 11  8 19  2 33  0.0000000  0  9G26G29G12G15G02G10G30G05G25
  -1913719.07047  -1479957.37444  23203668.8594                   23203666.0234
  -8832204.27347  -6869156.77245  22142324.9694                   22142322.2034
 -18295019.00847 -14244363.85346  21781650.0554                   21781647.0984
   5952029.85246   4652576.95743  24108572.1174                   24108571.5084
 -24371559.01247 -18978521.94746  21798801.2274                   21798796.3244
  -9282389.88346  -7194392.79843  24096851.2894                   24096849.0904
 -13849616.34048 -10775762.96546  21739036.4694                   21739034.8404
 -23157143.32847 -18031918.21847  20515359.8594                   20515356.6484
 -15809069.77748 -12302776.93146  21596417.0474                   21596416.7384
 11  8 19  2 33 30.0000000  0  9G26G29G12G15G02G10G30G05G25
  -2038394.95347  -1577107.38844  23179943.5474                   23179941.6884
  -8943689.38747  -6956028.20846  22121109.8914                   22121107.5004
 -18254973.62948 -14213159.68846  21789270.8134                   21789267.7664
   5823437.60247   4552375.31243  24084101.5084                   24084100.3674
 -24363432.83247 -18972189.84446  21800347.1724                   21800342.4304
  -9207517.34046  -7136050.54543  24111099.9924                   24111097.3794
 -13848400.09848 -10774815.22745  21739267.8444                   21739265.7464
 -23150899.27748 -18027052.71347  20516548.0864                   20516545.2734
 -15826103.96148 -12316050.30446  21593175.3754                   21593175.5824
 11  8 19  2 34  0.0000000  0  9G26G29G12G15G02G10G30G05G25
  -2162911.57047  -1674133.25544  23156248.5314                   23156246.8054
  -9055042.24247  -7042796.57546  22099919.7664                   22099917.8594
 -18214568.83248 -14181675.43946  21796959.3834                   21796956.6024
   5694787.37546   4452128.41843  24059620.2504                   24059618.6454
 -24355220.09848 -18965790.29846  21801910.3054                   21801905.8444
  -9132552.86746  -7077636.70043  24125364.0864                   24125362.7504
 -13846655.90648 -10773456.11445  21739600.0004                   21739598.0354
 -23144184.74248 -18021820.59047  20517825.8364                   20517822.6134
 -15842581.52348 -12328889.95146  21590040.1954                   21590039.9694
 11  8 19  2 34 30.0000000  0  9G26G29G12G15G02G10G30G05G25
  -2287265.36747  -1771032.28844  23132585.2114                   23132583.4184
  -9166260.54747  -7129460.09446  22078756.0394                   22078753.7034
 -18173807.57048 -14149913.40846  21804715.2424                   21804713.2584
   5566081.83646   4351838.51944  24035129.3674                   24035127.1094
 -24346920.74648 -18959323.24745  21803489.3674                   21803484.5594
  -9057498.91846  -7019153.04343  24139646.5394                   24139644.6054
 -13844385.71548 -10771687.11946  21740032.1174                   21740030.0474
 -23137001.46548 -18016223.21946  20519192.7584                   20519189.3794
 -15858503.50448 -12341296.66146  21587009.9384                   21587009.7074
 11  8 19  2 35  0.0000000  0  9G26G29G12G15G02G10G30G05G25
  -2411456.77747  -1867804.78944  23108952.1484                   23108949.7424
  -9277346.58647  -7216020.57046  22057616.7734                   22057614.7464
 -18132697.04348 -14117879.26246  21812538.8594                   21812536.4454
   5437319.69146   4251504.44744  24010625.9694                   24010624.3404
 -24338539.18048 -18952792.13145  21805084.9064                   21805079.3794
  -8982362.03546  -6960604.89743  24153944.5164                   24153942.8204
 -13841595.81248 -10769513.17546  21740562.5394                   21740560.7194
 -23129355.98448 -18010265.69347  20520647.5634                   20520644.4344
 -15873875.24648 -12353274.62946  21584084.8594                   21584084.6954
 11  8 19  2 35 30.0000000  0  9G26G29G12G15G02G10G30G05G25
  -2535478.51647  -1964445.02144  23085351.0704                   23085349.5824
  -9388294.38347  -7302473.33546  22036504.0944                   22036501.9804
 -18091236.36348 -14085572.23046  21820428.9844                   21820426.0004
   5308507.16046   4151131.15044  23986113.5784                   23986112.0434
 -24330071.52748 -18946193.94746  21806695.7974                   21806691.0704
  -8907141.14146  -6901991.17543  24168259.0394                   24168256.6094
 -13838284.63747 -10766933.03646  21741192.6254                   21741190.8594
 -23121246.55148 -18003946.64047  20522190.7664                   20522187.7274
 -15888694.46548 -12364822.05146  21581264.4844                   21581264.9694
 11  8 19  2 36  0.0000000  0  9G26G29G12G15G02G10G30G05G25
  -2659326.98447  -2060950.27745  23061784.3054                   23061782.7034
  -9499102.02747  -7388816.90346  22015418.1884                   22015415.9064
 -18049428.11348 -14052994.39346  21828384.4774                   21828381.9734
   5179647.05147   4050720.78444  23961593.0084                   23961591.9414
 -24321517.91448 -18939528.78746  21808323.2814                   21808318.8324
  -8831838.95346  -6843314.19743  24182589.1254                   24182587.1454
 -13834454.17247 -10763948.27046  21741921.5004                   21741919.6254
 -23112675.29348 -17997267.71947  20523821.9534                   20523818.8754
 -15902962.20748 -12375939.75446  21578549.7424                   21578549.6454
 11  8 19  2 36 30.0000000  0  9G26G29G12G15G02G10G30G05G25
  -2782998.70347  -2157317.79845  23038250.3834                   23038248.4844
  -9609767.64547  -7475049.81346  21994359.0704                   21994356.9144
 -18007275.42648 -14020148.13046  21836406.1094                   21836403.4104
   5050741.88347   3950275.29044  23937062.2734                   23937061.6684
 -24312878.64147 -18932796.86645  21809967.3364                   21809962.6524
  -8756457.87946  -6784575.71343  24196933.3444                   24196931.8444
 -13830106.86348 -10760560.75346  21742749.2114                   21742747.2304
 -23103644.11348 -17990230.42546  20525540.2424                   20525537.3364
 -15916680.00448 -12386628.92946  21575939.4774                   21575938.9384
 11  8 19  2 37  0.0000000  0  9G26G29G12G15G02G10G30G05G25
  -2906489.00447  -2253543.98044  23014750.6024                   23014748.3054
  -9720287.65247  -7561169.24446  21973327.5164                   21973325.5474
 -17964780.41848 -13987035.14846  21844492.2504                   21844489.6374
   4921795.68047   3849797.86244  23912525.2504                   23912523.3164
 -24304152.43048 -18925997.22745  21811627.6334                   21811622.8754
  -8680999.32846  -6725776.80643  24211292.4224                   24211291.3754
 -13825243.74248 -10756771.31045  21743674.2194                   21743672.1254
 -23094153.87148 -17982835.41747  20527346.5004                   20527343.3634
 -15929848.03948 -12396889.70946  21573433.1174                   21573433.3714
 11  8 19  2 37 30.0000000  0  9G26G29G12G15G02G10G30G05G25
  -3029794.41847  -2349626.07544  22991286.3674                   22991284.4494
  -9830660.75447  -7647174.23846  21952324.0084                   21952322.1414
 -17921946.10548 -13953657.76846  21852643.6254                   21852640.5594
   4792810.78547   3749290.22644  23887979.7034                   23887978.1294
 -24295339.43447 -18919129.96346  21813305.2274                   21813299.8874
  -8605466.24646  -6666919.89443  24225666.1644                   24225664.9924
 -13819867.22748 -10752581.82346  21744697.2974                   21744695.9534
 -23084207.72748 -17975085.15646  20529238.9144                   20529236.0204
 -15942467.86348 -12406723.33346  21571031.8204                   21571032.0594
 11  8 19  2 38  0.0000000  0  9G26G29G12G15G02G10G30G05G25
  -3152914.67247  -2445563.88944  22967856.9774                   22967855.6374
  -9940887.90247  -7733065.50346  21931348.6254                   21931346.6174
 -17878778.48448 -13920020.66946  21860857.8594                   21860854.9414
   4663786.84846   3648752.21444  23863426.8134                   23863425.0984
 -24286443.19147 -18912197.82145  21814997.5554                   21814993.1134
  -8529864.29347  -6608009.25143  24240052.8914                   24240050.2934
 -13813982.84048 -10747996.58346  21745817.1564                   21745815.4694
 -23073810.72748 -17966983.58046  20531217.3444                   20531214.1484
 -15954544.14848 -12416133.39746  21568733.9924                   21568733.9734
 11  8 19  2 38 30.0000000  0  9G26G29G12G15G02G10G30G05G25
  -3275845.54347  -2541354.13144  22944463.7194                   22944462.4654
 -10050966.45747  -7818840.99546  21910401.7504                   21910399.3524
 -17835280.21548 -13886125.91546  21869135.7734                   21869132.7934
   4534726.94146   3548186.12844  23838868.2584                   23838866.4574
 -24277462.81247 -18905200.12145  21816706.6954                   21816701.8714
  -8454195.30146  -6549046.37843  24254451.8834                   24254450.3914
 -13807592.30948 -10743016.94545  21747033.2894                   21747031.1414
 -23062964.41847 -17958531.90247  20533281.6094                   20533277.9924
 -15966077.74648 -12425120.60346  21566539.1024                   21566538.9964
 11  8 19  2 39  0.0000000  0  9G26G29G12G15G02G10G30G05G25
  -3398581.81247  -2636992.73244  22921107.9694                   22921106.0274
 -10160892.63347  -7904497.73346  21889483.2814                   21889481.1844
 -17791452.15248 -13851974.19846  21877475.3444                   21877473.1334
   4405635.41846   3447595.45444  23814302.1174                   23814301.0354
 -24268396.61347 -18898135.54945  21818432.0394                   21818427.0664
  -8378460.03147  -6490031.93143  24268864.2974                   24268861.8914
 -13800696.05548 -10737643.23345  21748345.6564                   21748344.0944
 -23051669.22348 -17949730.43846  20535430.4694                   20535427.9614
 -15977068.31648 -12433684.68346  21564447.7194                   21564447.6724
 11  8 19  2 39 30.0000000  0  9G26G29G12G15G02G10G30G05G25
  -3521117.38347  -2732474.98544  22897790.2814                   22897787.8554
 -10270661.58647  -7990031.97446  21868594.4224                   21868593.2234
 -17747295.05547 -13817566.08946  21885878.7424                   21885875.9694
   4276517.70346   3346984.34644  23789731.9924                   23789730.8164
 -24259242.19147 -18891002.22945  21820173.9694                   21820169.1294
  -8302658.59046  -6430965.93143  24283288.6564                   24283286.6884
 -13793293.99247 -10731875.40145  21749753.8914                   21749752.1024
 -23039924.97748 -17940579.06247  20537665.5234                   20537662.5124
 -15987514.84448 -12441824.82346  21562459.9064                   21562459.8094
 11  8 19  2 40  0.0000000  0  9G26G29G12G15G02G10G30G05G25
  -3643449.25847  -2827798.46844  22874511.2424                   22874509.2274
 -10380272.19947  -8075442.82746  21847736.8054                   21847734.4224
 -17702812.54348 -13782904.38546  21894343.3054                   21894340.5824
   4147375.78146   3246354.38744  23765157.0084                   23765155.7814
 -24250000.16447 -18883800.67945  21821933.0004                   21821927.9064
  -8226793.77746  -6371850.48143  24297724.9224                   24297722.8364
 -13785389.03948 -10725715.69245  21751258.3914                   21751256.6294
 -23027734.35248 -17931079.85946  20539985.3914                   20539982.3834
 -15997419.46548 -12449542.69546  21560575.2814                   21560574.7704
 11  8 19  2 40 30.0000000  0  9G26G29G12G15G02G10G30G05G25
  -3765578.75047  -2922964.23444  22851269.9384                   22851268.7504
 -10489727.41047  -8160732.58146  21826907.9064                   21826905.8834
 -17658012.18748 -13747995.02646  21902868.5314                   21902866.3984
   4018207.24246   3145703.67944  23740577.0314                   23740575.5124
 -24240675.70748 -18876534.86545  21823707.2664                   21823701.6994
  -8150873.18046  -6312691.54343  24312172.3914                   24312169.6804
 -13776988.69548 -10719169.98745  21752856.5234                   21752855.3164
 -23015104.98048 -17921238.79746  20542388.8364                   20542385.7704
 -16006788.78548 -12456843.46446  21558791.9304                   21558792.0314
 11  8 19  2 41  0.0000000  0  9G26G29G12G15G02G10G30G05G25
  -3887499.76247  -3017967.61044  22828069.5864                   22828067.5394
 -10599022.25847  -8245897.35446  21806109.8984                   21806108.0594
 -17612894.94948 -13712838.76046  21911454.0164                   21911451.3244
   3889017.87546   3045036.76444  23715993.0234                   23715991.3364
 -24231266.08647 -18869202.69845  21825497.8754                   21825492.9414
  -8074896.89546  -6253489.30542  24326630.2734                   24326628.0594
 -13768092.49648 -10712237.87745  21754549.9304                   21754547.8674
 -23002036.19548 -17911055.32046  20544875.6724                   20544872.6844
 -16015621.62148 -12463726.19346  21557111.1564                   21557111.0434
 11  8 19  2 41 30.0000000  0  9G26G29G12G15G02G10G30G05G25
  -4009205.90247  -3112803.53244  22804910.1724                   22804908.2234
 -10708152.12947  -8330933.57446  21785343.4774                   21785341.1374
 -17567461.26247 -13677435.88846  21920099.7664                   21920097.3134
   3759812.92246   2944357.69644  23691405.3204                   23691404.0784
 -24221768.51247 -18861801.99245  21827305.1414                   21827300.3404
  -7998864.79746  -6194243.57043  24341098.6644                   24341096.2624
 -13758700.36348 -10704919.31645  21756337.4064                   21756335.0274
 -22988527.67648 -17900529.20046  20547446.1884                   20547443.2304
 -16023916.95348 -12470190.08146  21555532.4224                   21555532.5204
 11  8 19  2 42  0.0000000  0 10G26G29G12G15G02G10G30G05G25G21
  -4130694.04347  -3207469.58844  22781791.8444                   22781789.6334
 -10817115.32447  -8415839.90846  21764608.0474                   21764605.9264
 -17521713.98048 -13641788.66846  21928805.2814                   21928802.8164
   3630594.82446   2843668.36744  23666816.6954                   23666814.9844
 -24212183.36347 -18854333.00945  21829129.1334                   21829124.1454
  -7922779.25845  -6134956.14842  24355576.9064                   24355574.3404
 -13748814.90247 -10697216.35745  21758218.3524                   21758216.3634
 -22974582.09848 -17889662.50346  20550099.7974                   20550096.8594
 -16031676.60548 -12476236.56946  21554056.1094                   21554056.0164
   9320431.66056   7272968.13153  25025625.2034                   25025624.5394
 11  8 19  2 42 30.0000000  0 10G26G29G12G15G02G10G30G05G25G21
  -2676543.74247  -2074365.42044  23058507.3834                   23058505.0394
  -9350493.06247  -7273017.31446  22043697.0164                   22043694.4734
 -15900244.58647 -12378306.03746  22237360.7504                   22237358.1094
   5076783.51646   3970568.77544  23942017.1564                   23942015.3674
 -22627098.02747 -17619201.59045  22130760.5634                   22130755.7194
  -6271232.53145  -4848036.68442  24669855.3364                   24669853.5434
 -12163026.10247  -9461536.77445  22059983.8204                   22059982.1604
 -21384788.95748 -16650862.65447  20852627.6564                   20852624.4534
 -14463489.18048 -11254272.33546  21852471.9924                   21852472.1214
  10806537.72346   8430972.94743  25308422.9924                   25308420.6914
 11  8 19  2 43  0.0000000  0 10G26G29G12G15G02G10G30G05G25G21
  -2797601.13347  -2168695.83344  23035470.6954                   23035468.9414
  -9459132.55547  -7357671.40246  22023023.2274                   22023021.4024
 -15853895.64848 -12342189.99846  22246180.4304                   22246177.4924
   4947531.39847   3869852.87944  23917421.1724                   23917419.7074
 -22617353.56247 -17611608.50745  22132614.9224                   22132609.9734
  -6195063.82045  -4788684.37942  24684350.9614                   24684347.7464
 -12152177.53547  -9453083.33445  22062048.1174                   22062046.3324
 -21369991.64548 -16639332.28046  20855443.4774                   20855440.1914
 -14470198.57048 -11259500.43846  21851195.5554                   21851195.1954
  10717223.76646   8361377.75243  25291426.2034                   25291424.6484
 11  8 19  2 43 30.0000000  0 10G26G29G12G15G02G10G30G05G25G21
  -2918436.47747  -2262853.19244  23012476.0314                   23012474.9844
  -9567605.77748  -7442195.91646  22002381.5944                   22002379.5434
 -15807249.07847 -12305842.04046  22255057.2424                   22255054.4454
   4818267.70346   3769128.02544  23892823.8984                   23892821.6254
 -22607528.23847 -17603952.40145  22134485.0234                   22134480.4654
  -6118855.73846  -4729301.42242  24698852.8524                   24698850.1454
 -12140849.72748  -9444256.47245  22064204.0704                   22064202.1524
 -21354770.75048 -16627471.84046  20858339.8364                   20858336.7194
 -14476383.88348 -11264320.16846  21850018.6414                   21850018.8094
  10627914.42246   8291786.22143  25274431.2424                   25274429.8984
 11  8 19  2 44  0.0000000  0 10G26G29G12G15G02G10G30G05G25G21
  -3039042.01647  -2356831.51744  22989525.8834                   22989524.0474
  -9675906.34848  -7526585.91146  21981772.5944                   21981770.1484
 -15760303.84447 -12269261.34546  22263990.5164                   22263987.8484
   4688999.22347   3668399.38244  23868224.3284                   23868221.8834
 -22597617.69147 -17596229.88145  22136370.3444                   22136365.8364
  -6042606.83646  -4669886.70742  24713362.9304                   24713360.4414
 -12129041.17648  -9435054.98845  22066450.5634                   22066449.1994
 -21339124.41448 -16615279.87646  20861317.2034                   20861314.0984
 -14482042.89148 -11268729.78646  21848941.6804                   21848941.6844
  10538613.10946   8222200.84243  25257437.9534                   25257436.9804
 11  8 19  2 44 30.0000000  0  9G26G29G12G15G02G30G05G25G21
  -3159412.94147  -2450626.99345  22966620.6334                   22966618.0084
  -9784030.78148  -7610838.64646  21961197.0944                   21961195.0204
 -15713061.74647 -12232449.34546  22272980.2894                   22272977.9024
   4559730.18847   3567670.35644  23843624.6334                   23843622.6764
 -22587620.98448 -17588440.23245  22138272.6884                   22138268.3444
 -12116753.02748  -9425479.80545  22068789.3834                   22068787.4924
 -21323053.64148 -16602757.19046  20864375.4384                   20864372.2304
 -14487175.88348 -11272729.52646  21847964.7584                   21847964.9614
  10449320.44146   8152622.22343  25240445.9774                   25240444.5594
 11  8 19  2 45  0.0000000  0  9G26G29G12G15G02G30G05G25G21
  -3279546.92247  -2544237.84645  22943759.8204                   22943757.0984
  -9891978.54748  -7694953.72546  21940655.3444                   21940653.0944
 -15665527.01248 -12195409.31046  22282026.4454                   22282023.4494
   4430461.93847   3466941.95844  23819026.2664                   23819024.0984
 -22577539.07848 -17580584.20045  22140191.7274                   22140186.8634
 -12103989.28547  -9415534.02745  22071218.0634                   22071216.3754
 -21306562.23848 -16589906.73646  20867513.6094                   20867510.6134
 -14491786.07048 -11276321.88746  21847087.5474                   21847087.3364
  10360033.98846   8083048.48343  25223454.5864                   25223453.9064
 11  8 19  2 45 30.0000000  0  9G26G29G12G15G02G30G05G25G21
  -3399429.79747  -2637653.05545  22920946.7424                   22920944.4804
  -9999736.65647  -7778921.02446  21920149.6024                   21920147.4104
 -15617692.46147 -12158135.64146  22291128.3444                   22291125.8714
   4301208.21147   3366224.81244  23794430.1414                   23794428.0594
 -22567361.17648 -17572653.34745  22142128.6254                   22142123.3134
 -12090741.66047  -9405211.19945  22073739.2274                   22073737.1684
 -21289642.01648 -16576722.13246  20870733.3834                   20870730.3094
 -14495864.35948 -11279499.79046  21846311.5704                   21846311.7034
  10270764.30146   8013487.74343  25206467.7814                   25206465.6334
 11  8 19  2 46  0.0000000  0  9G26G29G12G15G02G30G05G25G21
  -3519057.61747  -2730869.49345  22898181.6954                   22898179.9654
 -10107302.71948  -7862738.67946  21899680.6174                   21899678.2274
 -15569560.59047 -12120630.30146  22300287.6484                   22300285.3914
   4171971.95347   3265521.28744  23769836.7034                   23769834.9264
 -22557086.88347 -17564647.38245  22144083.1884                   22144078.6374
 -12077012.49647  -9394513.13945  22076351.5004                   22076349.4534
 -21272294.85548 -16563204.85946  20874034.7504                   20874031.4304
 -14499412.28948 -11282264.39746  21845636.1024                   21845635.9574
  10181511.04746   7943939.79543  25189483.5084                   25189480.8134
 11  8 19  2 46 30.0000000  0  9G26G29G12G15G02G30G05G25G21
  -3638429.07447  -2823886.19645  22875466.3134                   22875464.0744
 -10214677.03948  -7946406.91846  21879247.7344                   21879245.2304
 -15521136.82848 -12082897.52846  22309502.5084                   22309499.8204
   4042753.49647   3164831.65644  23745247.5864                   23745245.3444
 -22546718.81648 -17556568.33245  22146056.2034                   22146051.8714
 -12062806.82847  -9383443.79545  22079054.9224                   22079053.2464
 -21254525.30548 -16549358.44246  20877415.8444                   20877412.4774
 -14502434.14148 -11284619.10346  21845061.4064                   21845061.2304
  10092270.89546   7874402.11043  25172501.5474                   25172498.8164
 11  8 19  2 47  0.0000000  0  9G26G29G12G15G02G30G05G25G21
  -3757541.51647  -2916701.02145  22852800.2504                   22852798.0744
 -10321858.34048  -8029924.76646  21858851.7114                   21858849.3954
 -15472425.12947 -12044940.36446  22318772.1334                   22318769.9494
   3913554.77347   3064157.41544  23720661.5234                   23720659.3054
 -22536257.57848 -17548416.71345  22148046.7584                   22148042.3754
 -12048127.87547  -9372005.65145  22081848.3284                   22081846.1564
 -21236337.03148 -16535185.74746  20880877.0634                   20880873.8674
 -14504932.47348 -11286565.86246  21844585.9224                   21844585.6994
  10003042.66846   7804873.68843  25155521.8674                   25155520.0904
 11  8 19  2 47 30.0000000  0  9G26G29G12G15G02G30G05G25G21
  -3876390.58647  -3009310.65445  22830183.7734                   22830181.8954
 -10428843.66848  -8113289.91646  21838493.2274                   21838490.7424
 -15423427.80947 -12006760.64746  22328095.9924                   22328093.2734
   3784379.59447   2963501.47744  23696080.6484                   23696078.2934
 -22525702.24647 -17540191.80045  22150055.6804                   22150050.9694
 -12032977.87147  -9360200.44245  22084731.0864                   22084729.3674
 -21217731.34848 -16520687.79446  20884417.3134                   20884414.6094
 -14506908.56248 -11288105.68046  21844209.7344                   21844209.7934
   9913825.97746   7735354.31243  25138544.0474                   25138542.1054
 11  8 19  2 48  0.0000000  0  9G26G29G12G15G02G30G05G25G21
  -3994979.33647  -3101717.46145  22807617.4694                   22807614.7194
 -10535637.34448  -8196505.72646  21818171.0704                   21818168.4184
 -15374154.71947 -11968366.06446  22337472.3754                   22337470.1684
   3655224.34847   2862861.09444  23671502.7274                   23671501.1454
 -22515059.82448 -17531898.98745  22152080.8754                   22152075.9104
 -12017365.72748  -9348035.14545  22087702.2344                   22087700.0204
 -21198717.18748 -16505871.55546  20888035.5164                   20888032.9264
 -14508370.68748 -11289245.00146  21843931.8054                   21843931.7194
   9824613.85546   7665838.49143  25121567.0704                   25121565.1604
 11  8 19  2 48 30.0000000  0  9G26G29G12G15G02G30G05G25G21
  -4113303.87547  -3193918.35545  22785100.1414                   22785098.7664
 -10642237.18448  -8279570.50546  21797885.8524                   21797883.1684
 -15324608.78947 -11929758.85846  22346900.4304                   22346897.5984
   3526091.74246   2762238.38944  23646929.6954                   23646927.9574
 -22504329.78148 -17523537.91545  22154122.7034                   22154117.5784
 -12001293.93048  -9335511.67545  22090760.2194                   22090759.0474
 -21179296.86348 -16490738.82146  20891731.5004                   20891728.2194
 -14509320.53948 -11289985.14246  21843750.8284                   21843750.7304
   9735405.88746   7596325.82042  25104591.5784                   25104589.6334
 11  8 19  2 49  0.0000000  0  9G26G29G12G15G02G30G05G25G21
  -4231358.58647  -3285909.02745  22762635.4144                   22762633.3874
 -10748639.23048  -8362481.17146  21777638.2034                   21777635.3134
 -15274791.02047 -11890939.82046  22356380.8594                   22356378.4924
   3396986.63346   2661637.09244  23622361.6724                   23622359.5704
 -22493509.89547 -17515106.80645  22156181.4064                   22156176.8204
 -11984763.40248  -9322630.74945  22093906.3754                   22093904.4144
 -21159471.03948 -16475290.11246  20895503.8984                   20895501.0354
 -14509758.24648 -11290326.22946  21843667.6334                   21843667.3674
   9646203.13345   7526817.26242  25087617.7274                   25087615.3204
 11  8 19  2 49 30.0000000  0  9G26G29G12G15G02G30G05G25G21
  -4349139.35547  -3377686.19345  22740222.6804                   22740221.0164
 -10854840.06248  -8445235.03346  21757428.7114                   21757426.3094
 -15224703.24247 -11851910.39546  22365912.1024                   22365909.6374
   3267912.58646   2561059.98344  23597799.7194                   23597797.4964
 -22482599.22348 -17506604.96945  22158258.0784                   22158253.2584
 -11967775.87148  -9309393.72845  22097138.7424                   22097136.7974
 -21139241.16448 -16459526.56746  20899353.6094                   20899349.9574
 -14509684.84448 -11290269.02046  21843681.0314                   21843681.1604
   9557005.84845   7457312.94542  25070643.3524                   25070641.0044
 11  8 19  2 50  0.0000000  0  9G26G29G12G15G02G30G05G25G21
  -4466646.92647  -3469250.51045  22717861.2504                   22717859.8594
 -10960842.34448  -8527834.17046  21737257.1414                   21737254.5944
 -15174353.83247 -11812677.10946  22375493.2504                   22375490.8324
   3138867.95746   2460505.78844  23573243.6334                   23573241.1454
 -22471602.46148 -17498036.06745  22160350.3284                   22160345.7664
 -11950338.60548  -9295806.24745  22100457.1804                   22100454.4734
 -21118614.14148 -16443453.54746  20903278.9224                   20903276.3134
 -14509106.81248 -11289818.60846  21843791.4844                   21843791.2544
   9467809.08245   7387809.05142  25053669.7344                   25053667.0634
 11  8 19  2 50 30.0000000  0  9G26G29G12G15G02G30G05G25G21
  -4583871.92647  -3560594.65445  22695554.1954                   22695552.2154
 -11066637.72348  -8610272.09846  21717125.0634                   21717122.2154
 -15123739.93047 -11773237.69745  22385124.4534                   22385121.9734
   3009861.66847   2359981.49944  23548693.6724                   23548692.3674
 -22460513.55548 -17489395.35645  22162460.6174                   22162456.2234
 -11932448.41448  -9281865.83845  22103861.1564                   22103859.7154
 -21097586.38348 -16427068.28146  20907280.1174                   20907277.2664
 -14508020.29348 -11288971.97246  21843998.0004                   21843998.2734
   9378618.07845   7318309.57842  25036696.2274                   25036694.2544
 11  8 19  2 51  0.0000000  0  9G26G29G12G15G02G30G05G25G21
  -4700812.25047  -3651716.97545  22673301.4144                   22673299.3094
 -11172226.12148  -8692548.73446  21697032.0864                   21697029.3244
 -15072866.19147 -11733595.84646  22394805.7344                   22394802.7974
   2880894.90246   2259487.98044  23524151.9694                   23524150.6214
 -22449333.84048 -17480683.90745  22164588.1094                   22164583.5554
 -11914109.75848  -9267575.98145  22107351.2034                   22107348.7544
 -21076162.05148 -16410373.97246  20911357.0004                   20911354.2034
 -14506428.94548 -11287731.95146  21844300.6804                   21844301.1094
   9289429.95745   7248812.50042  25019724.1254                   25019722.0864
 11  8 19  2 51 30.0000000  0  9G26G29G12G15G02G30G05G25G21
  -4817463.81247  -3742614.23545  22651103.1174                   22651101.3094
 -11277604.34448  -8774661.60046  21676979.3984                   21676976.7934
 -15021735.16447 -11693753.50945  22404535.8444                   22404533.0434
   2751971.04347   2159027.92944  23499618.9844                   23499616.6294
 -22438062.97747 -17471901.40745  22166732.7114                   22166727.9344
 -11895324.70748  -9252938.27445  22110926.0864                   22110923.2734
 -21054343.14848 -16393372.22546  20915509.2734                   20915505.8914
 -14504334.11748 -11286099.61746  21844699.6254                   21844699.5044
   9200245.01646   7179317.78942  25002753.5394                   25002751.6994
 11  8 19  2 52  0.0000000  0  9G26G29G12G15G02G30G05G25G21
  -4933823.88747  -3833284.41145  22628960.9454                   22628958.0394
 -11382771.18448  -8856609.75646  21656966.7274                   21656964.0204
 -14970350.78147 -11653713.72845  22414313.9064                   22414311.2304
   2623092.26246   2058602.96045  23475093.8984                   23475092.1844
 -22426701.18048 -17463048.05445  22168894.7274                   22168890.6684
 -11876096.72747  -9237955.42645  22114584.8914                   22114583.1334
 -21032132.66448 -16376065.33246  20919735.6334                   20919732.6414
 -14501738.61748 -11284077.13946  21845193.6954                   21845193.6994
   9111061.97746   7109824.62942  24985782.0864                   24985780.6054
 11  8 19  2 52 30.0000000  0  9G26G29G12G15G02G30G05G25G21
  -5049890.76647  -3923726.09545  22606873.9844                   22606871.3364
 -11487726.17648  -8938392.81646  21636994.4844                   21636991.5234
 -14918717.74647 -11613480.20045  22424139.5234                   22424136.7034
   2494259.47347   1958213.83744  23450578.1414                   23450576.4304
 -22415250.37548 -17454125.35645  22171073.5394                   22171069.6054
 -11856430.61747  -9222631.18545  22118327.1884                   22118325.0204
 -21009535.20748 -16358456.93346  20924035.9144                   20924032.7774
 -14498646.46148 -11281667.66146  21845782.1174                   21845781.8444
   9021878.24646   7040330.90242  24968812.1564                   24968809.8794
 11  8 19  2 53  0.0000000  0  9G26G29G12G15G02G30G05G25G21
  -5165661.12147  -4013936.73745  22584843.1414                   22584841.3914
 -11592467.77748  -9020009.60146  21617062.2424                   21617060.1454
 -14866839.91047 -11573055.92245  22434011.0084                   22434008.9184
   2365475.34046   1857862.62345  23426071.1414                   23426069.4694
 -22403710.85548 -17445133.49845  22173269.6414                   22173264.5554
 -11836329.55947  -9206968.02045  22122152.1724                   22122150.2304
 -20986553.66448 -16340549.22646  20928409.2034                   20928406.1214
 -14495060.16048 -11278873.13046  21846464.2194                   21846464.6994
   8932692.87546   6970835.85943  24951840.1724                   24951838.6844
 11  8 19  2 53 30.0000000  0  9G26G29G12G15G02G30G05G25G21
  -5281128.09447  -4103910.97745  22562870.9614                   22562868.3754
 -11696989.86748  -9101455.35546  21597172.6884                   21597170.3284
 -14814716.94547 -11532440.65045  22443930.0474                   22443927.1724
   2236745.97347   1757554.08844  23401574.7664                   23401572.6134
 -22392079.07448 -17436069.75945  22175483.2894                   22175478.6524
 -11815792.83647  -9190965.39245  22126060.3204                   22126058.4454
 -20963186.68448 -16322341.16846  20932855.8674                   20932852.8094
 -14490978.28548 -11275692.43846  21847241.0634                   21847241.1134
   8843508.39546   6901341.53043  24934869.2194                   24934866.5314
 11  8 19  2 54  0.0000000  0  9G26G29G12G15G02G30G05G25G21
  -5396288.75847  -4193646.52745  22540956.6564                   22540954.0354
 -11801291.39548  -9182729.22146  21577324.6094                   21577321.9734
 -14762352.67247 -11491637.34145  22453894.7814                   22453891.9654
   2108073.58247   1657289.93445  23377089.4304                   23377087.3054
 -22380355.66048 -17426934.63445  22177713.9534                   22177709.1254
 -11794824.07847  -9174626.09345  22130050.8054                   22130048.6644
 -20939437.69948 -16303835.47546  20937374.8674                   20937371.4144
 -14486403.75848 -11272127.86646  21848111.6644                   21848111.5164
   8754323.52046   6831847.02343  24917897.8284                   24917895.3914
 11  8 19  2 54 30.0000000  0  9G26G29G12G15G02G30G05G25G21
  -5511139.96547  -4283140.93545  22519100.9774                   22519098.6684
 -11905370.52348  -9263829.79746  21557519.2734                   21557516.7894
 -14709750.85547 -11450648.89745  22463904.4304                   22463901.4144
   1979460.78947   1557072.23544  23352614.9064                   23352612.6524
 -22368540.86748 -17417728.30045  22179962.7974                   22179957.3554
 -11773426.54347  -9157952.68145  22134122.1884                   22134120.3324
 -20915309.85548 -16285034.53446  20941966.6564                   20941963.1954
 -14481339.23848 -11268181.46446  21849075.6094                   21849075.4104
   8665136.85946   6762350.97343  24900925.9844                   24900924.0664
 11  8 19  2 55  0.0000000  0  9G26G29G12G15G02G30G05G25G21
  -5625677.83647  -4372391.17945  22497305.1954                   22497302.4804
 -12009224.33248  -9344754.80546  21537756.2974                   21537754.0204
 -14656913.96947 -11409477.34545  22473958.4774                   22473955.9184
   1850911.02347   1456903.63144  23328152.8444                   23328150.8094
 -22356634.26248 -17408450.41445  22182227.8054                   22182223.3524
 -11751602.64547  -9140947.04545  22138275.3754                   22138273.1604
 -20890804.91848 -16265939.77546  20946629.4304                   20946626.5084
 -14475786.32448 -11263854.52446  21850132.0784                   21850132.0704
   8575948.41046   6692853.55943  24883953.1564                   24883952.1484
 11  8 19  2 55 30.0000000  0  9G26G29G12G15G02G30G05G25G21
  -5739895.77747  -4461392.13445  22475569.9064                   22475567.9734
 -12112847.90248  -9425500.40646  21518037.5234                   21518034.8284
 -14603842.25847 -11368122.76646  22484058.2664                   22484055.9024
   1722430.01647   1356788.62644  23303703.5784                   23303701.3954
 -22344632.47348 -17399098.38145  22184512.3444                   22184506.6414
 -11729352.26247  -9123609.08745  22142509.1804                   22142507.0004
 -20865922.25448 -16246550.68746  20951364.5314                   20951361.2344
 -14469744.22348 -11259146.38246  21851282.2504                   21851282.0314
   8486760.57847   6623356.62443  24866981.6644                   24866979.4964
 11  8 19  2 56  0.0000000  0  9G26G29G12G15G02G30G05G25G21
  -5853793.28547  -4550143.40745  22453896.1804                   22453894.1564
 -12216241.94948  -9506067.15846  21498362.2274                   21498359.5984
 -14550541.84847 -11326590.00545  22494201.0314                   22494198.4344
   1594017.58247   1256727.03844  23279268.1174                   23279265.2304
 -22332538.52348 -17389674.51845  22186813.7034                   22186808.6454
 -11706681.32047  -9105943.40245  22146823.4454                   22146821.5944
 -20840667.82448 -16226871.90846  20956170.3594                   20956167.0394
 -14463218.18448 -11254061.15846  21852524.2194                   21852523.4304
   8397569.78947   6553857.35643  24850009.2504                   24850007.3284
 11  8 19  2 56 30.0000000  0  9G26G29G12G15G02G30G05G25G21
  -5967368.44547  -4638643.48545  22432282.7504                   22432281.2344
 -12319405.96548  -9586454.65346  21478730.8054                   21478728.4924
 -14497017.75047 -11284882.94345  22504386.0314                   22504383.8674
   1465674.77346   1156719.70144  23254844.5784                   23254842.5554
 -22320353.73048 -17380179.86945  22189132.1174                   22189127.3834
 -11683594.37947  -9087953.58545  22151216.8134                   22151215.1294
 -20815045.64148 -16206906.56646  20961046.1254                   20961042.9414
 -14456212.19148 -11248601.93246  21853857.1414                   21853856.8444
   8308373.44946   6484353.72343  24833035.6724                   24833034.1294
 11  8 19  2 57  0.0000000  0  9G26G29G12G15G02G30G05G25G21
  -6080614.02747  -4726886.78545  22410733.5314                   22410731.4924
 -12422333.85948  -9666658.17046  21459143.9224                   21459141.6334
 -14443269.27747 -11243001.01945  22514614.2034                   22514611.3914
   1337408.53547   1056772.05644  23230436.5394                   23230434.0274
 -22308074.24647 -17370611.42145  22191468.9534                   22191464.0004
 -11660090.66447  -9069639.00645  22155689.3524                   22155687.0354
 -20789054.28148 -16186653.55346  20965992.0084                   20965989.0354
 -14448724.68048 -11242767.50046  21855281.5944                   21855281.7624
   8219174.88746   6414848.43643  24816061.2894                   24816060.1374
 11  8 19  2 57 30.0000000  0  9G26G29G12G15G02G30G05G25G21
  -6193527.82847  -4814871.53745  22389246.6484                   22389244.1914
 -12525025.12948  -9746677.29646  21439602.3594                   21439600.1334
 -14389301.18047 -11200947.98645  22524884.1254                   22524881.5984
   1209220.34847    956885.20144  23206042.2504                   23206040.9964
 -22295701.73048 -17360970.49545  22193823.3444                   22193818.1374
 -11636174.53547  -9051003.07045  22160240.5704                   22160238.4574
 -20762697.82047 -16166116.04646  20971007.3284                   20971004.3014
 -14440759.48448 -11236560.85446  21856797.3674                   21856797.4494
   8129971.81646   6345339.65743  24799087.5234                   24799085.7074
 11  8 19  2 58  0.0000000  0  9G26G29G12G15G02G30G05G25G21
  -6306107.20747  -4902595.69945  22367823.5314                   22367821.1524
 -12627477.95748  -9826510.63446  21420106.6094                   21420103.9924
 -14335117.35947 -11158726.83045  22535194.8444                   22535192.1844
   1081112.63747    857061.07745  23181664.4614                   23181662.2934
 -22283236.51248 -17351257.34845  22196195.2584                   22196190.3794
 -11611849.59047  -9032048.56445  22164869.5474                   22164867.7114
 -20735979.54348 -16145296.62446  20976091.8284                   20976088.5784
 -14432319.52348 -11229984.26346  21858403.7504                   21858403.5274
   8040763.18846   6275826.51843  24782110.1564                   24782109.0474
 11  8 19  2 58 30.0000000  0  9G26G29G12G15G02G30G05G25G21
  -6418347.63747  -4990055.72745  22346464.7424                   22346462.6914
 -12729689.66848  -9906156.09046  21400656.3204                   21400653.4774
 -14280719.77747 -11116339.14145  22545546.1484                   22545543.9304
    953088.48447    757302.05945  23157301.8834                   23157300.0634
 -22270677.56648 -17341471.16145  22198585.0864                   22198580.7114
 -11587118.03547  -9012777.23645  22169575.6334                   22169573.6174
 -20708901.09448 -16124196.53946  20981244.6484                   20981241.3874
 -14423406.33648 -11223038.91546  21860099.6024                   21860099.5314
   7951548.91446   6206308.92343  24765133.6174                   24765132.1604
 11  8 19  2 59  0.0000000  0  9G26G29G12G15G02G30G05G25G21
  -6530247.58647  -5077250.45345  22325170.9694                   22325168.8014
 -12831659.67248  -9985613.19246  21381251.9694                   21381249.3914
 -14226113.97747 -11073789.17845  22555936.9144                   22555934.6844
    825149.59047    657609.45445  23132956.7814                   23132954.4144
 -22258026.59047 -17331613.24845  22200992.3984                   22200987.4224
 -11561984.63747  -8993192.76445  22174358.2894                   22174356.2894
 -20681466.99648 -16102819.31446  20986465.3134                   20986462.1724
 -14414024.01248 -11215728.00846  21861885.0784                   21861885.0944
   7862326.60546   6136785.12343  24748156.0634                   24748154.2304
 11  8 19  2 59 30.0000000  0  9G26G29G12G15G02G30G05G25G21
  -6641803.82047  -5164177.37145  22303942.4384                   22303939.7034
 -12933385.77348 -10064880.25246  21361893.5084                   21361891.4844
 -14171303.18047 -11031079.50645  22566367.7894                   22566365.2934
    697298.35947    557985.18445  23108627.1484                   23108624.8094
 -22245283.57848 -17321683.62745  22203417.6094                   22203412.7194
 -11536452.55547  -8973297.64545  22179216.9774                   22179215.1214
 -20653680.01648 -16081167.11246  20991752.8834                   20991749.9024
 -14404175.12148 -11208053.56146  21863759.2344                   21863759.3874
   7773095.30946   6067254.32243  24731174.8444                   24731173.5084
 11  8 19  3  0  0.0000000  0  9G26G29G12G15G02G30G05G25G21
  -6753011.69947  -5250832.82445  22282780.1564                   22282778.7114
 -13034865.15248 -10143955.07346  21342583.0554                   21342580.3874
 -14116289.33647 -10988211.59145  22576836.3984                   22576833.5824
    569538.69947    458432.25545  23084315.3134                   23084313.1094
 -22232447.40247 -17311681.40545  22205860.0234                   22205855.1604
 -11510523.94547  -8953093.53945  22184150.8914                   22184148.8324
 -20625541.65248 -16059241.11746  20997107.3674                   20997104.2584
 -14393861.15248 -11200016.70546  21865721.8754                   21865721.8364
   7683855.22346   5997716.69743  24714193.3914                   24714191.0744
 11  8 19  3  0 30.0000000  0  9G26G29G12G15G02G30G05G25G21
  -6863867.59447  -5337214.01845  22261684.9534                   22261683.5744
 -13136095.08648 -10222835.49846  21323319.7734                   21323316.8284
 -14061075.93447 -10945188.18445  22587342.6954                   22587340.7814
    441873.88347    358953.21645  23060021.1484                   23060018.9694
 -22219517.76647 -17301606.37945  22208320.6484                   22208315.2704
 -11484201.57447  -8932582.62345  22189160.1024                   22189158.2194
 -20597054.45348 -16037043.30246  21002528.2814                   21002525.2974
 -14383084.35248 -11191619.20046  21867772.7194                   21867772.7894
   7594605.97746   5928171.87843  24697208.8834                   24697208.1564
 11  8 19  3  1  0.0000000  0  9G26G29G12G15G02G30G05G25G21
  -6974362.87147  -5423314.19945  22240658.4224                   22240656.4534
 -13237067.80948 -10301515.49446  21304105.4384                   21304102.5474
 -14005660.72747 -10902007.52945  22597888.3674                   22597885.8834
    314312.29347    259554.62844  23035747.2664                   23035744.7704
 -22206489.11748 -17291454.19145  22210799.9454                   22210795.1414
 -11457483.28547  -8911763.16645  22194244.4144                   22194242.4344
 -20568215.43047 -16014571.31746  21008016.0864                   21008012.7114
 -14371841.75448 -11182858.73346  21869911.9384                   21869912.1914
   7505352.51246   5858623.90243  24680225.4454                   24680223.3874
 11  8 19  3  1 30.0000000  0  9G26G29G12G15G02G30G05G25G21
  -7084499.18047  -5509134.68845  22219700.3364                   22219697.6684
 -13337787.10248 -10379998.03346  21284938.9924                   21284936.1524
 -13950052.06247 -10858676.13645  22608470.1644                   22608467.8404
    186851.28947    160234.39345  23011491.7814                   23011489.6604
 -22193366.76247 -17281228.98445  22213297.3204                   22213292.3874
 -11430377.26247  -8890641.61545  22199402.6644                   22199400.3674
 -20539032.59448 -15991831.45246  21013569.3524                   21013566.6334
 -14360141.13747 -11173741.37046  21872138.5864                   21872138.5234
   7416088.61746   5789067.67543  24663238.5234                   24663236.5594
 11  8 19  3  2  0.0000000  0  9G26G29G12G15G02G30G05G25G21
  -7194271.30547  -5594671.37745  22198811.3204                   22198809.8204
 -13438248.45348 -10458279.57846  21265821.5084                   21265818.8324
 -13894251.35247 -10815195.08345  22619088.7974                   22619086.5474
     59495.88747     60996.48045  22987256.9774                   22987255.2074
 -22180148.48847 -17270929.04645  22215812.1954                   22215807.8714
 -11402884.57447  -8869218.75645  22204634.1174                   22204632.0864
 -20509506.41848 -15968824.03946  21019188.2274                   21019184.7424
 -14347983.01247 -11164267.51046  21874452.3364                   21874451.9574
   7326815.39846   5719504.20243  24646249.9924                   24646248.7704
 11  8 19  3  2 30.0000000  0  9G26G29G12G15G02G30G05G25G21
  -7303674.11747  -5679920.28345  22177992.8054                   22177990.9804
 -13538447.94948 -10536357.05646  21246754.0944                   21246751.4344
 -13838260.19147 -10771565.62145  22629743.7894                   22629741.4774
    -67749.73447    -38155.91645  22963043.2974                   22963041.1954
 -22166832.66447 -17260553.09745  22218346.0084                   22218341.1954
 -11375006.93747  -8847495.92045  22209939.1174                   22209937.1334
 -20479638.00848 -15945549.94246  21024871.7974                   21024868.8094
 -14335368.30947 -11154437.86946  21876852.6804                   21876852.3524
   7237533.99646   5649934.39743  24629261.3834                   24629258.1954
 11  8 19  3  3  0.0000000  0  9G26G29G12G15G02G30G05G25G21
  -7412703.39147  -5764878.13945  22157245.0314                   22157242.0044
 -13638383.00448 -10614228.49346  21227737.1094                   21227734.2894
 -13782081.23847 -10727789.83345  22640434.5864                   22640431.7664
   -194881.80147   -137219.81745  22938850.6804                   22938848.9264
 -22153418.09047 -17250100.17545  22220898.8914                   22220893.8714
 -11346746.70347  -8825474.97645  22215316.4534                   22215314.8014
 -20449429.32448 -15922010.70746  21030620.5314                   21030617.1524
 -14322298.89148 -11144253.91946  21879339.8284                   21879339.9774
   7148244.48046   5580358.23943  24612269.1644                   24612267.5164
 11  8 19  3  3 30.0000000  0  9G26G29G12G15G02G30G05G25G21
  -7521356.19547  -5849542.63445  22136569.1724                   22136566.8594
 -13738051.56248 -10691892.26246  21208770.8984                   21208768.2154
 -13725717.43047 -10683869.98745  22651159.9534                   22651157.8754
   -321897.39847   -236192.96645  22914680.2504                   22914678.7704
 -22139905.23447 -17239570.69345  22223470.3364                   22223466.3674
 -11318107.16047  -8803158.49245  22220767.0314                   22220764.7584
 -20418883.35248 -15898208.63346  21036432.8674                   21036429.5204
 -14308777.43748 -11133717.73646  21881913.0164                   21881912.6524
   7058945.64546   5510774.84743  24595276.8594                   24595274.3484
 11  8 19  3  4  0.0000000  0  9G26G29G12G15G02G30G05G25G21
  -7629631.60548  -5933913.04245  22115965.0234                   22115962.3954
 -13837453.88748 -10769348.58146  21189855.2974                   21189852.8324
 -13669175.24247 -10639811.16145  22661919.3204                   22661916.7934
   -448796.48447   -335075.31945  22890532.3834                   22890530.7344
 -22126296.28947 -17228966.32045  22226059.7814                   22226055.0314
 -11289093.94147  -8780550.78545  22226288.0234                   22226285.6214
 -20388005.28948 -15874147.79746  21042309.2664                   21042306.1334
 -14294809.10248 -11122833.31246  21884571.1174                   21884570.8404
   6969634.60546   5441182.02043  24578281.0554                   24578278.7424
 11  8 19  3  4 30.0000000  0  9G26G29G12G15G02G30G05G25G21
  -7737522.16047  -6017983.56145  22095434.0944                   22095431.5554
 -13936583.64848 -10846592.52446  21170991.5944                   21170988.6134
 -13612453.57847 -10595612.49845  22672713.4844                   22672710.6844
   -575571.78947   -433861.23045  22866407.4614                   22866405.2544
 -22112587.14546 -17218283.92945  22228669.2974                   22228663.8674
 -11259706.31247  -8757651.32745  22231879.8914                   22231877.9104
 -20356793.46147 -15849826.88046  21048248.4064                   21048245.0044
 -14280392.37947 -11111599.52046  21887314.4694                   21887314.3164
   6880314.72746   5371582.15643  24561284.2974                   24561281.8634
 11  8 19  3  5  0.0000000  0  9G26G29G12G15G02G30G05G25G21
  -7845031.82047  -6101757.29845  22074975.6334                   22074972.6454
 -14035446.32048 -10923628.32646  21152178.4224                   21152175.8444
 -13555563.30547 -10551282.42645  22683539.3364                   22683536.6884
   -702228.10247   -532554.42345  22842305.5474                   22842303.7194
 -22098784.96546 -17207528.97545  22231295.5314                   22231291.0984
 -11229954.75047  -8734468.31545  22237541.6564                   22237539.6644
 -20325258.06648 -15825253.84346  21054249.7194                   21054246.5274
 -14265537.31647 -11100024.15446  21890141.1884                   21890140.8244
   6790977.74646   5301969.02043  24544283.6024                   24544281.1484
 11  8 19  3  5 30.0000000  0 10G26G29G12G15G02G18G30G05G25G21
  -7952151.38347  -6185227.05145  22054591.7274                   22054588.9884
 -14134033.54348 -11000449.52246  21133417.9844                   21133415.3984
 -13498501.42647 -10506818.64445  22694397.8134                   22694395.8094
   -828756.26647   -631147.74545  22818228.3134                   22818225.9024
 -22084883.68747 -17196696.79845  22233940.3914                   22233935.6994
  10847170.09056   8466745.79753  24527113.3204                   24527112.7234
 -11199836.36747  -8710999.45845  22243273.0554                   22243270.8444
 -20293395.72748 -15800426.03646  21060312.7504                   21060309.3404
 -14250240.55948 -11088104.61346  21893052.3984                   21893052.0084
   6701628.87146   5232346.66643  24527281.2194                   24527278.1024
 11  8 19  3  6  0.0000000  0 10G26G29G12G15G02G18G30G05G25G21
  -8058884.55547  -6268395.72645  22034280.5394                   22034278.7304
 -14232350.31648 -11077059.95446  21114708.8204                   21114706.1374
 -13441278.57447 -10462229.42845  22705286.9454                   22705284.5824
   -955160.76247   -729644.70045  22794174.3204                   22794171.9024
 -22070890.17247 -17185792.76345  22236603.7734                   22236598.9534
  10724883.21146   8371457.60143  24503843.8204                   24503842.8404
 -11169361.69547  -8687252.95545  22249071.8754                   22249069.9264
 -20261216.33248 -15775351.18446  21066436.0164                   21066432.8674
 -14234511.93748 -11075848.54446  21896044.7584                   21896044.9144
   6612260.35546   5162708.97143  24510274.5234                   24510272.3204
 11  8 19  3  6 30.0000000  0 10G26G29G12G15G02G18G30G05G25G21
  -8165227.31647  -6351260.18545  22014044.3594                   22014041.9574
 -14330393.96548 -11153457.56846  21096051.9694                   21096049.0044
 -13383897.23447 -10417516.71045  22716206.4144                   22716203.7154
  -1081438.19947   -828042.66845  22770144.2584                   22770142.1294
 -22056803.96147 -17174816.49245  22239283.3834                   22239279.3634
  10602756.45746   8276294.16543  24480603.0864                   24480603.2664
 -11138533.22347  -8663230.77645  22254938.1484                   22254936.4344
 -20228721.82448 -15750030.78146  21072619.7344                   21072616.1684
 -14218353.48048 -11063257.54546  21899120.2344                   21899119.9184
   6522872.30546   5093056.06243  24493264.7584                   24493262.2504
 11  8 19  3  7  0.0000000  0 10G26G29G12G15G02G18G30G05G25G21
  -6695754.50048  -5206216.39245  22293676.1334                   22293673.4414
 -12852740.35948 -10002039.15046  21377239.8524                   21377237.3874
 -11750944.24647  -9145085.82845  23026946.8444                   23026944.0864
    367837.52747    301263.12145  23045932.2974                   23045929.9614
 -20467206.77047 -15936169.34645  22541774.1414                   22541769.5744
  12056213.49646   9408858.29643  24757187.1724                   24757186.6374
  -9531936.76247  -7411337.43545  22560663.7344                   22560661.1524
 -18620497.51648 -14496868.97746  21378654.4614                   21378651.6094
 -12626349.90648  -9822735.27746  22202068.2894                   22202068.4804
   8008885.37147   6250988.41943  24776044.1024                   24776040.8014
 11  8 19  3  7 30.0000000  0 10G26G29G12G15G02G18G30G05G25G21
  -6801306.15647  -5288464.40445  22273590.0944                   22273587.3874
 -12950230.34448 -10078005.34546  21358688.0784                   21358685.2344
 -11693255.16847  -9100133.33045  23037924.8444                   23037923.0394
    241824.27747    203071.02645  23021952.3754                   23021950.4024
 -20452933.61747 -15925047.44345  22544490.2344                   22544485.9924
  11934411.43846   9313947.80343  24734009.2344                   24734008.1414
  -9500409.73047  -7386770.91145  22566663.1094                   22566661.4774
 -18587380.36748 -14471063.41046  21384956.2734                   21384953.5904
 -12609339.14148  -9809480.14346  22205305.0084                   22205305.1884
   7919456.51646   6181303.71043  24759026.0554                   24759023.3834
 11  8 19  3  8  0.0000000  0 10G26G29G12G15G02G18G30G05G25G21
  -6906450.96547  -5370395.38545  22253581.5314                   22253579.0234
 -13047434.15648 -10153748.55246  21340190.9224                   21340188.0124
 -11635411.14847  -9055060.08645  23048932.3134                   23048929.8594
    115953.25847    104989.76045  22998000.0784                   22997998.0314
 -20438560.93447 -15913847.97445  22547225.5164                   22547220.8754
  11812779.18446   9219169.68743  24710862.4454                   24710861.3204
  -9468532.10947  -7361931.22445  22572729.1254                   22572727.4494
 -18553949.43048 -14445013.33146  21391318.1804                   21391315.1724
 -12591900.14148  -9795891.31846  22208623.8054                   22208623.6914
   7830012.17246   6111606.93343  24742004.9614                   24742002.6644
 11  8 19  3  8 30.0000000  0 10G26G29G12G15G02G18G30G05G25G21
  -7011186.54348  -5452007.50745  22233650.9924                   22233647.9884
 -13144350.17648 -10229267.49646  21321748.4844                   21321745.5474
 -11577416.08247  -9009869.11145  23059967.6484                   23059965.6334
     -9773.04747      7021.22445  22974075.3914                   22974072.8874
 -20424088.78947 -15902570.97745  22549979.2584                   22549974.9264
  11691317.22346   9124524.21743  24687748.8364                   24687746.8404
  -9436307.84846  -7336821.39245  22578861.1174                   22578858.7934
 -18520208.36747 -14418721.60246  21397739.2114                   21397735.7114
 -12574036.31248  -9781971.44846  22212023.1414                   22212023.1054
   7740551.32447   6041897.34143  24724981.5234                   24724978.3284
 11  8 19  3  9  0.0000000  0 10G26G29G12G15G02G18G30G05G25G21
  -7115508.77047  -5533297.52045  22213798.6884                   22213796.3554
 -13240975.90648 -10304560.24346  21303361.3204                   21303358.5314
 -11519272.43747  -8964562.39445  23071032.8984                   23071030.0124
   -135351.13347    -90831.78945  22950178.5084                   22950176.4144
 -20409516.61347 -15891216.03245  22552752.6174                   22552747.4734
  11570027.31346   9030012.81943  24664668.4144                   24664665.6914
  -9403739.54347  -7311443.49745  22585058.5004                   22585056.7464
 -18486158.93748 -14392189.56346  21404218.3284                   21404215.3284
 -12555749.80548  -9767722.23546  22215503.1254                   22215502.7814
   7651073.75446   5972174.64143  24707953.3674                   24707950.9844
 11  8 19  3  9 30.0000000  0 10G26G29G12G15G02G18G30G05G25G21
  -7219413.34847  -5614262.10445  22194026.7424                   22194024.1174
 -13337307.85948 -10379624.07546  21285029.8444                   21285027.1764
 -11460982.25447  -8919141.49345  23082124.5944                   23082122.5904
   -260776.79347   -188566.05045  22926310.7974                   22926308.8054
 -20394842.90647 -15879781.98645  22555544.8754                   22555540.3554
  11448911.54746   8935637.03543  24641620.5784                   24641619.4844
  -9370829.27747  -7285799.16345  22591321.4304                   22591319.7624
 -18451802.93448 -14365418.64546  21410755.9614                   21410753.0984
 -12537042.14548  -9753144.83746  22219063.2114                   22219062.8594
   7561580.03546   5902439.43643  24690923.6254                   24690921.3954
 11  8 19  3 10  0.0000000  0 10G26G29G12G15G02G18G30G05G25G21
  -7322896.50847  -5694898.31445  22174334.4774                   22174331.8914
 -13433343.30948 -10454456.87246  21266755.0394                   21266751.9224
 -11402548.63347  -8873608.80545  23093244.5004                   23093242.1994
   -386046.83647   -286179.01445  22902472.5864                   22902470.4964
 -20380067.30547 -15868268.53545  22558356.4144                   22558351.9924
  11327971.57445   8841398.26243  24618606.8834                   24618605.5474
  -9337580.03147  -7259890.64445  22597648.4304                   22597646.5314
 -18417142.50847 -14338410.53146  21417351.7344                   21417348.5234
 -12517915.78148  -9738241.18246  22222702.5784                   22222702.1414
   7472069.85246   5832691.29643  24673890.5944                   24673888.2114
 11  8 19  3 10 30.0000000  0 10G26G29G12G15G02G18G30G05G25G21
  -7425954.29747  -5775203.04945  22154723.1644                   22154720.5784
 -13529079.19148 -10529056.23746  21248536.8134                   21248533.8094
 -11343973.84047  -8827966.12845  23104391.0474                   23104388.3874
   -511157.37547   -383667.68945  22878664.4844                   22878662.6094
 -20365188.34047 -15856674.52545  22561188.0474                   22561183.2974
  11207209.48046   8747298.17143  24595625.3444                   24595624.3324
  -9303993.98847  -7233719.73045  22604039.9224                   22604037.9884
 -18382179.69548 -14311166.76946  21424004.8914                   21424001.8134
 -12498372.50448  -9723012.65446  22226421.8364                   22226421.2274
   7382543.60546   5762930.76643  24656853.5554                   24656851.4494
 11  8 19  3 11  0.0000000  0 10G26G29G12G15G02G18G30G05G25G21
  -7528584.91848  -5855174.91645  22135193.5474                   22135190.6334
 -13624515.28548 -10603421.98746  21230376.0944                   21230373.5704
 -11285262.79347  -8782217.27845  23115563.3754                   23115560.7194
   -636107.43747   -481031.31545  22854887.6724                   22854885.2974
 -20350208.18047 -15845001.67645  22564038.4454                   22564034.0124
  11086624.48846   8653335.97743  24572679.5784                   24572677.7854
  -9270076.39847  -7207290.44745  22610494.2974                   22610492.2734
 -18346918.37548 -14283690.41446  21430715.1024                   21430712.1214
 -12478416.92648  -9707462.86346  22230219.1954                   22230218.9344
   7292998.70746   5693155.67343  24639813.3754                   24639811.5634
 11  8 19  3 11 30.0000000  0 10G26G29G12G15G02G18G30G05G25G21
  -7630784.82048  -5934811.17245  22115745.5864                   22115743.1724
 -13719648.85548 -10677552.01646  21212272.6724                   21212269.8914
 -11226418.43447  -8736364.53845  23126760.5944                   23126758.0274
   -760892.77347   -578266.59245  22831141.9614                   22831139.3284
 -20335125.80947 -15833249.18645  22566909.0314                   22566903.3834
  10966218.12546   8559512.94543  24549766.4144                   24549764.5904
  -9235829.89546  -7180604.88245  22617011.1644                   22617009.0394
 -18311361.07847 -14255983.41946  21437481.0864                   21437477.8674
 -12458051.34848  -9691593.59446  22234094.2034                   22234094.5164
   7203435.02346   5623365.93143  24622770.8444                   24622767.7304
 11  8 19  3 12  0.0000000  0 10G26G29G12G15G02G18G30G05G25G21
  -7732542.88748  -6014103.13445  22096380.8444                   22096378.4574
 -13814469.71948 -10751438.37446  21194228.5394                   21194225.7464
 -11167436.10247  -8690404.27445  23137985.0864                   23137982.5124
   -885503.73847   -675365.99945  22807429.1724                   22807426.6644
 -20319933.44547 -15821410.99845  22569799.4534                   22569794.5204
  10845999.21946   8465836.00842  24526889.3594                   24526886.6414
  -9201250.00847  -7153659.51445  22623591.6254                   22623589.5084
 -18275502.39848 -14228041.59146  21444304.7894                   21444301.7154
 -12437270.77748  -9675400.94746  22238048.9064                   22238048.6564
   7113859.44546   5553566.97943  24605724.4454                   24605722.2304
 11  8 19  3 12 30.0000000  0 10G26G29G12G15G02G18G30G05G25G21
  -7833864.66848  -6093055.14545  22077099.8444                   22077097.7544
 -13908984.33648 -10825086.09546  21176242.9534                   21176240.5434
 -11108327.87147  -8644345.94145  23149233.1254                   23149230.7894
  -1009946.29347   -772334.19045  22783748.6644                   22783745.7934
 -20304639.37547 -15809493.54845  22572709.7974                   22572705.4804
  10725960.01246   8372299.07643  24504046.5944                   24504044.7974
  -9166348.71147  -7126463.71745  22630232.9064                   22630230.8094
 -18239353.87548 -14199873.90146  21451183.7274                   21451180.8674
 -12416086.75048  -9658893.91446  22242079.7034                   22242079.7304
   7024263.05146   5483751.75743  24588674.3834                   24588672.4694
 11  8 19  3 13  0.0000000  0 10G26G29G12G15G02G18G30G05G25G21
  -7934750.04348  -6171667.10545  22057902.2114                   22057900.2194
 -14003193.96148 -10898496.16546  21158315.3364                   21158312.9494
 -11049099.76247  -8598194.16745  23160503.6724                   23160501.3484
  -1134219.49247   -869170.39245  22760100.0084                   22760097.3204
 -20289246.22347 -15797498.87945  22575638.8524                   22575634.6174
  10606098.72446   8278900.92743  24481237.8754                   24481235.8204
  -9131132.31247  -7099022.38345  22636934.6094                   22636932.5234
 -18202921.21148 -14171484.79646  21458116.6724                   21458113.4614
 -12394505.09848  -9642077.05946  22246186.8834                   22246186.9184
   6934641.75846   5413917.09143  24571620.8834                   24571617.2814
 11  8 19  3 13 30.0000000  0 10G26G29G12G15G02G18G30G05G25G21
  -8035193.48847  -6249934.69345  22038788.6024                   22038786.3674
 -14097094.42647 -10971665.31446  21140446.9144                   21140444.1724
 -10989753.07047  -8551950.01145  23171796.8984                   23171794.9884
  -1258318.93047   -965871.22245  22736484.5084                   22736482.2154
 -20273751.94547 -15785425.41645  22578587.7894                   22578582.5234
  10486418.31646   8185643.48243  24458463.1094                   24458461.4804
  -9095602.03947  -7071336.45845  22643695.1884                   22643693.7774
 -18166204.96148 -14142874.73046  21465103.6094                   21465100.0664
 -12372526.55548  -9624950.92746  22250369.2424                   22250369.4144
   6844997.52346   5344064.54043  24554561.2194                   24554559.0004
 11  8 19  3 14  0.0000000  0 10G26G29G12G15G02G18G30G05G25G21
  -8135187.79748  -6327852.30145  22019760.2974                   22019757.1604
 -14190678.90648 -11044588.26446  21122638.4304                   21122635.3054
 -10930287.16447  -8505612.96045  23183112.4924                   23183110.2464
  -1382237.27347  -1062430.91645  22712903.8984                   22712901.0784
 -20258152.40247 -15773269.93545  22581556.0314                   22581550.6454
  10366923.96546   8092531.11943  24435724.3284                   24435722.4494
  -9059757.06247  -7043405.33945  22650516.7114                   22650515.0124
 -18129203.70748 -14114042.59646  21472144.3754                   21472141.3794
 -12350149.98848  -9607514.65346  22254627.5234                   22254627.0274
   6755333.49646   5274196.66443  24537499.0084                   24537496.9884
 11  8 19  3 14 30.0000000  0 10G26G29G12G15G02G18G30G05G25G21
  -8234731.19548  -6405418.56745  22000817.5554                   22000814.8874
 -14283946.66848 -11117264.40946  21104889.8444                   21104887.4264
 -10870706.26647  -8459186.30545  23194450.7894                   23194448.2114
  -1505972.94947  -1158848.29445  22689358.1024                   22689354.9844
 -20242448.41447 -15761033.08545  22584544.8984                   22584540.0044
  10247615.35246   7999563.52343  24413020.1804                   24413018.3094
  -9023602.07447  -7015232.61545  22657396.3284                   22657395.0314
 -18091921.28148 -14084991.35146  21479239.3594                   21479236.2074
 -12327379.49648  -9589771.42946  22258960.3594                   22258960.5474
   6665648.03146   5204312.09143  24520432.4924                   24520430.3014
 11  8 19  3 15  0.0000000  0 10G26G29G12G15G02G18G30G05G25G21
  -8333821.11748  -6482631.45245  21981961.8364                   21981959.4614
 -14376896.03148 -11189692.45346  21087202.2344                   21087199.5474
 -10811014.03547  -8412672.88045  23205810.0164                   23205807.5664
  -1629523.65647  -1255121.51945  22665846.7814                   22665844.4964
 -20226640.69147 -15748715.38645  22587552.4534                   22587547.8014
  10128493.09446   7906741.11143  24390351.7274                   24390350.1524
  -8987140.94947  -6986821.38245  22664334.9384                   22664333.3914
 -18054361.05148 -14055723.63646  21486386.7194                   21486383.2234
 -12304218.64847  -9571724.02446  22263367.7034                   22263368.0904
   6575939.94547   5134409.78043  24503360.7974                   24503358.7344
 11  8 19  3 15 30.0000000  0 10G26G29G12G15G02G18G30G05G25G21
  -8432453.68447  -6559487.95945  21963192.5004                   21963190.1724
 -14469524.55548 -11261870.50546  21069575.7974                   21069572.5274
 -10751213.16447  -8366074.83145  23217189.8984                   23217187.5314
  -1752885.75447  -1351247.79645  22642371.4694                   22642369.7034
 -20210728.05147 -15736315.92845  22590580.6724                   22590576.6094
  10009558.54346   7814064.89243  24367719.3594                   24367717.9454
  -8950376.44547  -6958173.71845  22671331.2504                   22671329.4064
 -18016524.98848 -14026240.98346  21493586.5004                   21493583.5164
 -12280669.69948  -9553374.20946  22267849.0944                   22267848.8164
   6486208.68446   5064489.42543  24486285.8834                   24486283.0664
 11  8 19  3 16  0.0000000  0 10G26G29G12G15G02G18G30G05G25G21
  -8530623.64147  -6635983.99445  21944511.2344                   21944509.0554
 -14561827.70748 -11333794.99446  21052011.1024                   21052007.9414
 -10691305.19947  -8319393.32945  23228590.0634                   23228586.8674
  -1876054.14147  -1447223.11845  22618933.1954                   22618930.8244
 -20194708.16847 -15723832.91845  22593629.2274                   22593625.0004
   9890814.89546   7721537.56943  24345123.1954                   24345121.6844
  -8913309.69947  -6929290.54645  22678384.5784                   22678382.6054
 -17978413.50848 -13996543.72546  21500838.8054                   21500836.3674
 -12256733.34048  -9534722.52646  22272404.2274                   22272403.8444
   6396456.15246   4994552.50943  24469206.9694                   24469204.0394
 11  8 19  3 16 30.0000000  0 10G26G29G12G15G02G18G30G05G25G21
  -8628327.22747  -6712116.63445  21925918.8914                   21925916.1844
 -14653802.65647 -11405463.76946  21034508.7114                   21034505.8444
 -10631292.30947  -8272630.02845  23240009.9064                   23240007.0514
  -1999025.11347  -1543044.62345  22595532.6174                   22595530.8164
 -20178580.21947 -15711265.67545  22596697.8054                   22596692.8714
   9772263.93846   7629160.36844  24322563.5164                   24322561.8914
  -8875943.30147  -6900173.88745  22685494.9844                   22685493.5474
 -17940028.66448 -13966633.46246  21508143.3204                   21508140.1454
 -12232411.83248  -9515770.70946  22277032.6024                   22277032.3554
   6306682.25846   4924599.00743  24452123.1254                   24452119.9064
 11  8 19  3 17  0.0000000  0 10G26G29G12G15G02G18G30G05G25G21
  -8725564.10547  -6787885.60645  21907415.3054                   21907413.0944
 -14745449.95347 -11476877.21446  21017068.7974                   21017065.8714
 -10571180.52347  -8225789.72345  23251449.1954                   23251446.4694
  -2121798.89847  -1638712.46545  22572169.7424                   22572167.6724
 -20162346.70747 -15698616.21545  22599787.5164                   22599782.2504
   9653903.77746   7536931.73243  24300039.9694                   24300038.5784
  -8838283.42247  -6870828.54745  22692661.8364                   22692660.0044
 -17901375.77748 -13936514.34946  21515498.7814                   21515495.5984
 -12207710.87147  -9496523.21946  22281732.7194                   22281733.1454
   6216883.75846   4854626.20343  24435035.6254                   24435031.7664
 11  8 19  3 17 30.0000000  0 10G26G29G12G15G02G18G30G05G25G21
  -8822330.16847  -6863287.70145  21889000.9144                   21888999.0124
 -14836766.51647 -11548032.96446  20999692.0864                   20999689.0514
 -10510971.85947  -8178873.90645  23262906.4454                   23262904.5944
  -2244371.50447  -1734223.55545  22548844.8594                   22548842.4884
 -20146006.43047 -15685883.54045  22602896.5704                   22602892.0314
   9535736.38746   7444853.33643  24277554.0394                   24277552.1954
  -8800332.36747  -6841256.28845  22699883.0634                   22699881.2624
 -17862456.43748 -13906187.59146  21522904.9614                   21522901.8914
 -12182632.43447  -9476981.58646  22286504.8834                   22286505.0984
   6127061.06647   4784634.67343  24417942.2504                   24417939.2114
